[[{"header":{"parameterUnit":"m.s-1","parameterCategory":1,"la1":30.6,"la2":29.2853,"lo1":-89.7004,"lo2":-87.6739,"dy":0.0162,"dx":0.0183,"nx":112,"ny":82,"refTime":"2026-04-19T00:00:00:Z","depth":0,"parameterNumber":2,"parameterNumberName":"U-component_of_WINDS"},"data":[0.0,0.0,0.0,0.0,0.0,0.0,0.0,0.0,0.0,0.0,0.0,0.0,0.0,0.0,0.0,0.0,0.0,0.0,0.0,0.0,0.0,0.0,0.0,0.0,0.0,0.0,0.0,0.0,0.0,0.0,0.0,0.0,0.0,0.0,0.0,0.0,0.0,0.0,0.0,0.0,0.0,0.0,0.0,0.0,0.0,0.0,0.0,0.0,0.0,0.0,0.0,0.0,0.0,0.0,0.0,0.0,0.0,0.0,0.0,0.0,0.0,0.0,0.0,0.0,0.0,0.0,0.0,0.0,0.0,0.0,0.0,0.0,0.0,0.0,0.0,0.0,0.0,0.0,0.0,0.0,0.0,0.0,0.0,0.0,0.0,0.0,0.0,0.0,0.0,0.0,-5.7396,-6.3974,-7.286,-7.7323,-7.4899,-7.2476,-6.7628,-5.9396,0.0,0.0,0.0,0.0,0.0,0.0,0.0,0.0,0.0,0.0,0.0,0.0,0.0,0.0,0.0,0.0,0.0,0.0,0.0,0.0,0.0,0.0,0.0,0.0,0.0,0.0,0.0,0.0,0.0,0.0,0.0,0.0,0.0,0.0,0.0,0.0,0.0,0.0,0.0,0.0,0.0,0.0,0.0,0.0,0.0,0.0,0.0,0.0,0.0,0.0,0.0,0.0,0.0,0.0,0.0,0.0,0.0,0.0,0.0,0.0,0.0,0.0,0.0,0.0,0.0,0.0,0.0,0.0,0.0,0.0,0.0,0.0,0.0,0.0,0.0,0.0,0.0,0.0,0.0,0.0,0.0,0.0,0.0,0.0,0.0,0.0,0.0,0.0,0.0,0.0,0.0,0.0,0.0,0.0,0.0,0.0,0.0,0.0,0.0,0.0,0.0,0.0,0.0,0.0,-6.0292,-6.9821,-7.4822,-7.6746,-7.4861,-7.3053,-6.9013,-6.1985,0.0,0.0,0.0,0.0,0.0,0.0,0.0,0.0,0.0,0.0,0.0,0.0,0.0,0.0,0.0,0.0,0.0,0.0,0.0,0.0,0.0,0.0,0.0,0.0,0.0,0.0,0.0,0.0,0.0,0.0,0.0,0.0,0.0,0.0,0.0,0.0,0.0,0.0,0.0,0.0,0.0,0.0,0.0,0.0,0.0,0.0,0.0,0.0,0.0,0.0,0.0,0.0,0.0,0.0,0.0,0.0,0.0,0.0,0.0,0.0,0.0,0.0,0.0,0.0,0.0,0.0,0.0,0.0,0.0,0.0,0.0,0.0,0.0,0.0,0.0,0.0,0.0,0.0,0.0,0.0,0.0,0.0,0.0,0.0,0.0,0.0,0.0,0.0,0.0,0.0,0.0,0.0,0.0,0.0,0.0,0.0,0.0,0.0,0.0,0.0,0.0,0.0,0.0,-5.8588,-6.5128,-7.2168,-7.5553,-7.6399,-7.4245,-7.2091,-6.7744,-6.0512,-5.4164,0.0,0.0,0.0,0.0,0.0,0.0,0.0,0.0,0.0,0.0,0.0,0.0,0.0,0.0,0.0,0.0,0.0,0.0,0.0,0.0,0.0,0.0,0.0,0.0,0.0,0.0,0.0,0.0,0.0,0.0,0.0,0.0,0.0,0.0,0.0,0.0,0.0,0.0,0.0,0.0,0.0,0.0,0.0,0.0,0.0,0.0,0.0,0.0,0.0,0.0,0.0,0.0,0.0,0.0,0.0,0.0,0.0,0.0,0.0,0.0,0.0,0.0,0.0,0.0,0.0,0.0,0.0,0.0,0.0,0.0,0.0,0.0,0.0,0.0,0.0,0.0,0.0,0.0,0.0,0.0,0.0,0.0,0.0,0.0,0.0,0.0,0.0,0.0,0.0,0.0,0.0,0.0,0.0,0.0,0.0,0.0,0.0,0.0,0.0,0.0,0.0,0.0,-6.3858,-6.8975,-7.3053,-7.5592,-7.5861,-7.3129,-7.0552,-6.5897,-5.8473,-5.3203,0.0,0.0,0.0,0.0,0.0,0.0,0.0,0.0,0.0,0.0,0.0,0.0,0.0,0.0,0.0,0.0,0.0,0.0,0.0,0.0,0.0,0.0,0.0,0.0,0.0,0.0,0.0,0.0,0.0,0.0,0.0,0.0,0.0,0.0,0.0,0.0,0.0,0.0,0.0,0.0,0.0,0.0,0.0,0.0,0.0,0.0,0.0,0.0,0.0,0.0,0.0,0.0,0.0,0.0,0.0,0.0,0.0,0.0,0.0,0.0,0.0,0.0,0.0,0.0,0.0,0.0,0.0,0.0,0.0,0.0,0.0,0.0,0.0,0.0,0.0,0.0,0.0,0.0,0.0,0.0,0.0,0.0,0.0,0.0,0.0,0.0,0.0,0.0,0.0,0.0,0.0,0.0,0.0,0.0,0.0,0.0,0.0,0.0,0.0,0.0,0.0,0.0,-6.5128,-6.9615,-7.3129,-7.5053,-7.4745,-7.136,-6.8744,-6.4359,-5.7522,-5.2318,0.0,0.0,0.0,0.0,0.0,0.0,0.0,0.0,0.0,0.0,0.0,0.0,0.0,0.0,0.0,0.0,0.0,0.0,0.0,0.0,0.0,0.0,0.0,0.0,0.0,0.0,0.0,0.0,0.0,0.0,0.0,0.0,0.0,0.0,0.0,0.0,0.0,0.0,0.0,0.0,0.0,0.0,0.0,0.0,0.0,0.0,0.0,0.0,0.0,0.0,0.0,0.0,0.0,0.0,0.0,0.0,0.0,0.0,0.0,0.0,0.0,0.0,0.0,0.0,0.0,0.0,0.0,0.0,0.0,0.0,0.0,0.0,0.0,0.0,0.0,0.0,0.0,0.0,0.0,0.0,0.0,0.0,0.0,0.0,0.0,0.0,0.0,0.0,0.0,0.0,0.0,0.0,0.0,0.0,0.0,0.0,0.0,0.0,0.0,0.0,0.0,0.0,-6.568,-7.0321,-7.3206,-7.5014,-7.4399,-7.0475,-6.7321,-6.2666,-5.5857,0.0,0.0,0.0,0.0,0.0,0.0,0.0,0.0,0.0,0.0,0.0,0.0,0.0,0.0,0.0,0.0,0.0,0.0,0.0,0.0,0.0,0.0,0.0,0.0,0.0,0.0,0.0,0.0,0.0,0.0,0.0,0.0,0.0,0.0,0.0,0.0,0.0,0.0,0.0,0.0,0.0,0.0,0.0,0.0,0.0,0.0,0.0,0.0,0.0,0.0,0.0,0.0,0.0,0.0,0.0,0.0,0.0,0.0,0.0,0.0,0.0,0.0,0.0,0.0,0.0,0.0,0.0,0.0,0.0,0.0,0.0,0.0,0.0,0.0,0.0,0.0,0.0,0.0,0.0,0.0,0.0,0.0,0.0,0.0,0.0,0.0,0.0,0.0,0.0,0.0,0.0,0.0,0.0,0.0,0.0,0.0,0.0,0.0,0.0,0.0,0.0,0.0,-5.9777,-6.5961,-7.0667,-7.3245,-7.4745,-7.3976,-7.0052,-6.609,-6.1012,-5.4511,0.0,0.0,0.0,0.0,0.0,0.0,0.0,0.0,0.0,0.0,0.0,0.0,0.0,0.0,0.0,0.0,0.0,0.0,0.0,0.0,0.0,0.0,0.0,0.0,0.0,0.0,0.0,0.0,0.0,0.0,0.0,0.0,0.0,0.0,0.0,0.0,0.0,0.0,0.0,0.0,0.0,0.0,0.0,0.0,0.0,0.0,0.0,0.0,0.0,0.0,0.0,0.0,0.0,0.0,0.0,0.0,0.0,0.0,0.0,0.0,0.0,0.0,0.0,0.0,0.0,0.0,0.0,0.0,0.0,0.0,0.0,0.0,0.0,0.0,0.0,0.0,0.0,0.0,0.0,0.0,0.0,0.0,0.0,0.0,0.0,0.0,0.0,0.0,0.0,0.0,0.0,0.0,0.0,0.0,0.0,0.0,0.0,0.0,0.0,0.0,0.0,0.0,-5.9715,-6.5948,-7.0667,-7.3231,-7.4231,-7.336,-6.9975,-6.5051,-5.9588,0.0,0.0,0.0,0.0,0.0,0.0,0.0,0.0,0.0,0.0,0.0,0.0,0.0,0.0,0.0,0.0,0.0,0.0,0.0,0.0,0.0,0.0,0.0,0.0,0.0,0.0,0.0,0.0,0.0,0.0,0.0,0.0,0.0,0.0,0.0,0.0,0.0,0.0,0.0,0.0,0.0,0.0,0.0,0.0,0.0,0.0,0.0,0.0,0.0,0.0,0.0,0.0,0.0,0.0,0.0,0.0,0.0,0.0,0.0,0.0,0.0,0.0,0.0,0.0,0.0,0.0,0.0,0.0,0.0,0.0,0.0,0.0,0.0,0.0,0.0,0.0,0.0,0.0,0.0,0.0,0.0,0.0,0.0,0.0,0.0,0.0,0.0,0.0,0.0,0.0,0.0,0.0,0.0,0.0,0.0,0.0,0.0,0.0,0.0,0.0,0.0,0.0,0.0,-5.9519,-6.6217,-7.1074,-7.3085,-7.3991,-7.3108,-6.9784,-6.5945,-6.1198,-5.5186,0.0,0.0,0.0,0.0,0.0,0.0,0.0,0.0,0.0,0.0,0.0,0.0,0.0,0.0,0.0,0.0,0.0,0.0,0.0,0.0,0.0,0.0,0.0,0.0,0.0,0.0,0.0,0.0,0.0,0.0,0.0,0.0,0.0,0.0,0.0,0.0,0.0,0.0,0.0,0.0,0.0,0.0,0.0,0.0,0.0,0.0,0.0,0.0,0.0,0.0,0.0,0.0,0.0,0.0,0.0,0.0,0.0,0.0,0.0,0.0,0.0,0.0,0.0,0.0,0.0,0.0,0.0,0.0,0.0,0.0,0.0,0.0,0.0,0.0,0.0,0.0,0.0,0.0,0.0,0.0,0.0,0.0,0.0,0.0,0.0,0.0,0.0,0.0,0.0,0.0,0.0,0.0,0.0,0.0,0.0,0.0,0.0,0.0,0.0,0.0,0.0,0.0,-5.8892,-6.5681,-7.0439,-7.187,-7.2751,-7.2237,-6.9903,-6.6628,-6.2303,-5.6741,0.0,0.0,0.0,0.0,0.0,0.0,0.0,0.0,0.0,0.0,0.0,0.0,0.0,0.0,0.0,0.0,0.0,0.0,0.0,0.0,0.0,0.0,0.0,0.0,0.0,0.0,0.0,0.0,0.0,0.0,0.0,0.0,0.0,0.0,0.0,0.0,0.0,0.0,0.0,0.0,0.0,0.0,0.0,0.0,0.0,0.0,0.0,0.0,0.0,0.0,0.0,0.0,0.0,0.0,0.0,0.0,0.0,0.0,0.0,0.0,0.0,0.0,0.0,0.0,0.0,0.0,0.0,0.0,0.0,0.0,0.0,0.0,0.0,0.0,0.0,0.0,0.0,0.0,0.0,0.0,0.0,0.0,0.0,0.0,0.0,0.0,0.0,0.0,0.0,0.0,0.0,0.0,0.0,0.0,0.0,0.0,0.0,0.0,0.0,0.0,0.0,0.0,-5.7977,-6.4514,-6.9053,-7.012,-7.0882,-7.1034,-7.0217,-6.7109,-6.307,-5.8178,0.0,0.0,0.0,0.0,0.0,0.0,0.0,0.0,0.0,0.0,0.0,0.0,0.0,0.0,0.0,0.0,0.0,0.0,0.0,0.0,0.0,0.0,0.0,0.0,0.0,0.0,0.0,0.0,0.0,0.0,0.0,0.0,0.0,0.0,0.0,0.0,0.0,0.0,0.0,0.0,0.0,0.0,0.0,0.0,0.0,0.0,0.0,0.0,0.0,0.0,0.0,0.0,0.0,0.0,0.0,0.0,0.0,0.0,0.0,0.0,-4.9994,-4.7425,0.0,0.0,0.0,0.0,0.0,0.0,0.0,0.0,0.0,0.0,0.0,0.0,0.0,0.0,0.0,0.0,0.0,0.0,0.0,0.0,0.0,0.0,0.0,0.0,0.0,0.0,0.0,0.0,0.0,0.0,0.0,0.0,0.0,0.0,0.0,0.0,0.0,0.0,0.0,0.0,-5.7414,-6.363,-6.8035,-6.9511,-7.0402,-7.0591,-6.9719,-6.7221,-6.383,-5.9396,-5.3414,0.0,0.0,0.0,0.0,0.0,0.0,0.0,0.0,0.0,0.0,0.0,0.0,0.0,0.0,0.0,0.0,0.0,0.0,0.0,0.0,0.0,0.0,0.0,0.0,0.0,0.0,0.0,0.0,0.0,0.0,0.0,0.0,0.0,0.0,0.0,0.0,0.0,0.0,0.0,0.0,0.0,0.0,0.0,0.0,0.0,0.0,0.0,0.0,0.0,0.0,0.0,0.0,0.0,0.0,0.0,0.0,0.0,0.0,0.0,-5.5611,-5.2491,0.0,0.0,0.0,0.0,0.0,0.0,0.0,0.0,0.0,0.0,0.0,0.0,0.0,0.0,0.0,0.0,0.0,0.0,0.0,0.0,0.0,0.0,0.0,0.0,0.0,0.0,0.0,0.0,0.0,0.0,0.0,0.0,0.0,0.0,0.0,0.0,0.0,0.0,0.0,0.0,-5.5956,-6.216,-6.6479,-6.7771,-6.8978,-6.9504,-6.91,-6.7176,-6.4379,-6.0603,-5.4815,0.0,0.0,0.0,0.0,0.0,0.0,0.0,0.0,0.0,0.0,0.0,0.0,0.0,0.0,0.0,0.0,0.0,0.0,0.0,0.0,0.0,0.0,0.0,0.0,0.0,0.0,0.0,0.0,0.0,0.0,0.0,0.0,0.0,0.0,0.0,0.0,0.0,0.0,0.0,0.0,0.0,0.0,0.0,0.0,0.0,0.0,0.0,0.0,0.0,0.0,0.0,0.0,0.0,-6.5815,-6.6329,-6.699,-6.7283,-6.7687,-6.7907,-6.3209,-5.9979,-5.7923,-5.5611,0.0,0.0,0.0,0.0,0.0,0.0,0.0,0.0,0.0,0.0,0.0,0.0,0.0,0.0,0.0,0.0,0.0,0.0,0.0,0.0,0.0,0.0,-5.3922,-5.3371,-5.4363,-5.3959,-4.86,0.0,0.0,0.0,0.0,0.0,0.0,0.0,0.0,0.0,0.0,0.0,-5.4689,-6.0566,-6.477,-6.5998,-6.7398,-6.8254,-6.8304,-6.6937,-6.4666,-6.1422,-5.6037,-5.1268,0.0,0.0,0.0,0.0,0.0,0.0,0.0,0.0,0.0,0.0,0.0,0.0,0.0,0.0,0.0,0.0,0.0,0.0,0.0,0.0,0.0,0.0,0.0,0.0,0.0,0.0,0.0,0.0,0.0,0.0,0.0,0.0,-5.1134,-5.2118,0.0,0.0,0.0,0.0,0.0,0.0,0.0,0.0,0.0,0.0,0.0,0.0,0.0,-6.6366,-6.8788,-7.044,-7.1284,-7.1394,-7.2789,-7.356,-7.3707,-7.5072,-7.5395,-7.4771,-7.4037,0.0,-6.2989,-6.1227,0.0,0.0,0.0,0.0,0.0,0.0,0.0,0.0,0.0,0.0,0.0,0.0,0.0,0.0,0.0,0.0,0.0,0.0,0.0,0.0,0.0,0.0,-5.7519,-5.8084,-5.8951,-5.9391,-5.851,-5.5574,-5.227,-4.9353,-4.7352,-4.5205,0.0,0.0,0.0,0.0,0.0,0.0,-5.5114,-5.9708,-6.3322,-6.5545,-6.6642,-6.716,-6.7136,-6.6345,-6.4443,-6.1069,-5.746,-5.3674,-4.9709,-4.5547,0.0,0.0,0.0,0.0,0.0,0.0,0.0,0.0,0.0,0.0,0.0,0.0,0.0,0.0,0.0,0.0,0.0,0.0,0.0,0.0,0.0,0.0,0.0,0.0,0.0,0.0,0.0,0.0,0.0,-5.0975,-5.4044,-5.4064,-5.4444,-5.4032,0.0,0.0,0.0,0.0,0.0,0.0,0.0,0.0,0.0,-6.8164,-7.0624,-7.3083,-7.5506,-7.7157,-7.8185,-7.8626,-7.936,-7.991,-8.0388,-8.1085,-8.0975,-8.0204,-8.0204,-7.7194,-7.1872,-6.7026,-6.3172,-6.0015,0.0,0.0,0.0,0.0,-5.4656,-5.6051,-5.6051,-5.6345,-5.6528,-5.5244,0.0,0.0,0.0,0.0,0.0,0.0,0.0,-5.1699,-5.4509,-5.796,-6.0786,-6.1129,-6.2218,-6.3025,-6.2585,-6.108,-5.8621,-5.4436,-5.1573,-4.882,-4.5553,-4.1956,0.0,0.0,0.0,-5.0394,-5.5101,-5.9711,-6.31,-6.4659,-6.5531,-6.6036,-6.5996,-6.5273,-6.3825,-6.1419,-5.862,-5.5475,-5.1942,-4.7923,-4.428,0.0,0.0,0.0,0.0,0.0,0.0,0.0,0.0,0.0,0.0,0.0,0.0,0.0,0.0,0.0,0.0,0.0,0.0,0.0,0.0,0.0,0.0,0.0,0.0,0.0,0.0,0.0,0.0,-5.3964,-5.7116,-5.7133,-5.8019,-5.796,0.0,0.0,0.0,0.0,0.0,0.0,-6.6035,-6.7981,-7.0624,-7.4258,-7.6497,-7.8662,-8.0681,-8.2113,-8.3104,-8.3728,-8.3911,-8.4352,-8.4903,-8.4903,-8.4462,-8.3728,-8.3508,-8.1709,-7.8405,-7.2129,-6.7981,-6.5264,-6.1594,-6.0162,-6.0089,-5.9501,-6.0162,-6.1374,-6.1374,-6.1777,-6.2034,-6.0639,-5.851,-5.5941,-5.2931,0.0,0.0,0.0,0.0,-5.473,-5.7373,-6.0566,-6.3246,-6.3649,-6.4861,-6.5705,-6.4897,-6.4714,-6.3319,-5.8621,-5.528,-5.2307,-4.9461,-4.5608,0.0,-4.6214,-4.8783,-5.183,-5.5721,-5.9905,-6.2915,-6.398,-6.464,-6.5007,-6.5007,-6.4237,-6.3062,-6.141,-5.9024,-5.6418,-5.3628,-4.9754,-4.6195,-4.2983,0.0,0.0,0.0,0.0,0.0,0.0,0.0,0.0,0.0,0.0,0.0,0.0,0.0,0.0,0.0,0.0,0.0,0.0,0.0,0.0,0.0,0.0,0.0,0.0,0.0,0.0,0.0,0.0,0.0,-6.2927,-6.3496,0.0,0.0,0.0,0.0,-6.4567,-6.6292,-6.8641,-7.1908,-7.4331,-7.679,-7.9323,-8.1012,-8.2333,-8.3214,-8.4058,-8.4499,-8.4535,-8.5306,-8.571,-8.5747,-8.5747,-8.5306,-8.4499,-8.3728,-8.2003,-7.947,-7.5983,-7.2679,-6.9559,-6.7063,-6.6072,-6.6072,-6.6035,-6.6549,-6.7247,-6.7247,-6.7283,-6.7173,-6.6329,-6.2879,-5.8584,-5.6088,-5.4179,0.0,0.0,-5.5941,-5.7373,-6.0529,-6.2695,-6.442,-6.5962,-6.6953,-6.7357,-6.6549,-6.6366,-6.5154,-6.1006,-5.8253,-5.6014,-5.4326,0.0,-4.8783,-5.1242,-5.2417,-5.4216,-5.7446,-6.0089,-6.2291,-6.3906,-6.4127,-6.4163,-6.4163,-6.3356,-6.2181,-6.0566,-5.8217,-5.6124,-5.4399,-5.1132,-4.7865,-4.4618,-4.0598,0.0,0.0,0.0,0.0,0.0,0.0,0.0,0.0,0.0,0.0,0.0,0.0,0.0,0.0,0.0,0.0,0.0,0.0,0.0,0.0,0.0,0.0,0.0,0.0,0.0,0.0,0.0,0.0,-6.7134,-6.9079,0.0,-6.8825,-6.7467,-6.7981,-7.1248,-7.2973,-7.5322,-7.8552,-8.0534,-8.2223,-8.3618,-8.4719,-8.5453,-8.571,-8.6004,-8.6151,-8.6151,-8.6444,-8.6297,-8.5783,-8.5783,-8.5086,-8.3838,-8.3544,-8.2333,-8.0424,-7.8736,-7.613,-7.2973,-7.055,-6.9926,-7.0293,-6.9779,-6.9779,-7.0036,-7.0036,-6.9669,-6.8935,-6.71,-6.4604,-6.1998,-6.0052,-5.8694,-5.807,-5.9134,-6.0052,-6.1043,-6.2768,-6.442,-6.5778,-6.6366,-6.71,-6.732,-6.5999,-6.5742,-6.4971,-6.2438,-6.0823,-5.9208,-5.7079,-5.4656,-5.3482,-5.4876,-5.5757,-5.7079,-5.9281,-6.119,-6.2401,-6.2475,-6.2475,-6.2291,-6.1777,-6.1447,-6.0566,-5.8951,-5.7556,-5.5868,-5.3739,-5.1499,-4.882,-4.5553,-4.2543,-3.9313,0.0,0.0,0.0,0.0,0.0,0.0,0.0,0.0,0.0,0.0,0.0,0.0,0.0,0.0,0.0,0.0,0.0,0.0,0.0,0.0,0.0,0.0,0.0,0.0,0.0,-6.3358,-6.85,-7.0665,-7.3429,-7.4768,-7.3765,-7.3237,-7.4074,-7.6754,-7.8222,-8.0021,-8.248,-8.3875,-8.4829,-8.538,-8.6187,-8.6591,-8.6591,-8.6885,-8.6995,-8.6995,-8.6995,-8.6591,-8.5783,-8.5527,-8.4682,-8.3398,-8.3104,-8.226,-8.0975,-8.0424,-7.8589,-7.5983,-7.4074,-7.3487,-7.367,-7.3421,-7.3127,-7.2863,-7.2312,-7.1578,-7.055,-6.8421,-6.6623,-6.5044,-6.3649,-6.2695,-6.2218,-6.3025,-6.3649,-6.4237,-6.5081,-6.6109,-6.688,-6.688,-6.7283,-6.732,-6.5999,-6.5485,-6.4824,-6.311,-6.2144,-6.108,-5.9501,-5.7886,-5.7079,-5.7886,-5.8474,-5.9281,-6.0639,-6.1961,-6.2622,-6.2071,-6.1998,-6.1667,-6.086,-6.0309,-5.9318,-5.7703,-5.6345,-5.4766,-5.2858,-5.1242,-4.9224,-4.6764,-4.3534,-4.0047,-3.6303,0.0,0.0,0.0,0.0,0.0,0.0,0.0,0.0,0.0,0.0,0.0,0.0,0.0,0.0,0.0,0.0,0.0,0.0,0.0,0.0,0.0,0.0,0.0,-6.0176,-6.5879,-7.0803,-7.3714,-7.6469,-7.8256,-7.8451,-7.8678,-7.9433,-8.1048,-8.1856,-8.2627,-8.3398,-8.4168,-8.4535,-8.4535,-8.5306,-8.5747,-8.5747,-8.6591,-8.6995,-8.6995,-8.6995,-8.6591,-8.5747,-8.4976,-8.4168,-8.3324,-8.2553,-8.1746,-8.1048,-8.1048,-8.0094,-7.8552,-7.7671,-7.6827,-7.624,-7.698,-7.679,-7.5873,-7.4258,-7.3156,-7.2239,-7.0624,-6.9009,-6.7577,-6.6769,-6.5999,-6.5521,-6.6292,-6.6476,-6.6623,-6.7393,-6.7614,-6.765,-6.765,-6.7677,-6.7467,-6.6623,-6.5852,-6.4824,-6.311,-6.2181,-6.163,-6.1594,-6.0346,-5.9588,-6.0382,-6.0493,0.0,-6.152,-6.2328,-6.278,-6.2743,-6.2768,-6.2438,-6.1594,-6.0089,-5.845,-5.6822,-5.4473,-5.2747,-5.194,-5.0381,-4.9114,-4.8233,-4.3553,-3.957,-3.6376,0.0,0.0,0.0,0.0,0.0,0.0,0.0,0.0,0.0,0.0,0.0,0.0,0.0,0.0,0.0,0.0,0.0,0.0,0.0,0.0,0.0,-5.5924,-5.9805,-6.2818,-6.8788,-7.3934,-7.6837,-7.9756,-8.1708,-8.2171,-8.2654,-8.3361,-8.4389,-8.4682,-8.4646,-8.4278,-8.3948,-8.3471,-8.2884,-8.3654,-8.4352,-8.4903,-8.6334,-8.6995,-8.6995,-8.6995,-8.6261,-8.4903,-8.4682,-8.3838,-8.2517,-8.2296,-8.2076,-8.1856,-8.1856,-8.0901,-7.9323,-7.7892,-7.7163,-7.6937,-7.657,-7.6276,-7.5873,-7.4258,-7.3156,-7.2239,-7.0624,-6.9412,-6.8421,-6.7614,-6.6806,-6.6219,-6.6439,-6.6072,-6.5705,-6.5888,-6.6402,-6.6843,-6.6843,-6.7283,-6.732,-6.5925,-6.5485,-6.4824,-6.311,-6.2622,-6.2291,-6.1704,-6.1741,-6.1863,-6.2108,-6.2144,-6.2218,-6.2438,-6.2658,-6.2585,-6.1998,-6.1924,-6.1374,-5.9979,-5.8914,-5.7409,-5.5207,-5.2784,-5.1096,-5.0308,-4.8673,-4.7388,-4.6581,-4.3534,-4.0671,0.0,0.0,0.0,0.0,0.0,0.0,0.0,0.0,0.0,0.0,0.0,0.0,0.0,0.0,0.0,0.0,0.0,0.0,0.0,0.0,0.0,0.0,-5.9979,-6.4008,-6.7515,-7.1773,-7.5642,-7.8642,-8.1655,-8.3697,-8.4282,-8.5105,-8.582,-8.6261,-8.6297,-8.5783,-8.4646,-8.3838,-8.303,-8.2223,-8.2994,-8.3801,-8.4609,-8.5857,-8.6518,-8.6481,-8.6151,-8.5343,-8.4095,-8.4095,-8.3398,-8.2186,-8.2186,-8.2003,-8.1709,-8.1709,-8.0755,-7.9176,0.0,0.0,0.0,0.0,-7.6313,-7.6387,-7.4771,-7.345,-7.2239,-7.0624,-6.9339,-6.8238,-6.743,-6.6623,-6.5999,-6.5999,-6.5411,-6.4861,-6.5228,-6.5888,-6.6512,-6.6512,-6.71,-6.7357,-6.6072,-6.5558,-6.4824,-6.311,-6.278,0.0,-6.1741,-6.2291,-6.278,-6.278,-6.278,-6.278,-6.278,-6.278,-6.2622,-6.2144,-6.2108,-6.1447,-5.9845,-5.8657,0.0,0.0,0.0,-5.0288,-4.9077,-4.8122,0.0,0.0,0.0,0.0,0.0,-4.0891,0.0,0.0,-3.7331,-3.7698,0.0,0.0,0.0,0.0,0.0,0.0,0.0,0.0,0.0,0.0,0.0,0.0,0.0,0.0,0.0,0.0,-6.4106,-6.837,-7.2644,-7.4559,-7.6715,-7.9704,-8.2661,-8.4639,-8.5263,-8.6311,-8.6995,-8.6995,-8.6995,-8.6297,-8.4682,-8.3838,0.0,0.0,0.0,-8.3765,-8.4462,-8.5343,-8.5747,-8.5637,-8.4939,-8.4168,-8.3398,-8.3398,-8.2957,-8.2186,-8.2186,-8.1746,-8.1012,-8.0901,-7.98,-7.8185,-7.8295,-7.7341,-7.5983,-7.6056,-7.6607,-7.7053,-7.5469,0.0,0.0,-7.077,-6.9155,-6.7687,-6.699,-6.6072,-6.5301,-6.5301,-6.464,-6.4127,-6.4824,-6.5705,-6.6366,-6.6366,-6.7026,-6.7467,-6.6659,-6.5925,-6.4934,-6.3282,-6.2952,-6.2695,-6.1887,-6.2328,-6.278,-6.278,-6.278,-6.278,-6.278,-6.278,-6.2743,-6.267,-6.2658,0.0,-6.0419,-5.8877,-5.6969,-5.4546,-5.205,-4.9921,-4.8233,-4.8269,-4.7957,-4.7259,-4.6544,-4.581,-4.5095,-4.4488,-4.4176,-4.4139,-4.1715,-4.1332,0.0,0.0,0.0,0.0,0.0,0.0,0.0,0.0,0.0,0.0,0.0,0.0,0.0,0.0,0.0,-6.2212,-6.5561,-6.9033,-7.2887,-7.6373,-7.9311,-8.1542,-8.3749,-8.5325,-8.5882,-8.657,-8.6995,-8.6995,-8.6995,-8.6297,-8.4682,-8.3838,-8.303,-8.2223,-8.2994,-8.3471,-8.3654,-8.5086,-8.5453,-8.4829,-8.4682,0.0,-8.3398,-8.3398,-8.2957,-8.2186,-8.2186,-8.1746,-8.0938,-8.0277,-7.8295,-7.5689,-7.635,-7.5983,-7.5212,-7.5873,-7.6607,-7.7053,-7.5469,-7.4258,-7.3193,-7.1615,-7.0,-6.8641,-6.8495,-6.699,0.0,-6.5301,-6.4237,-6.3099,-6.322,-6.442,-6.5521,-6.5521,-6.6623,-6.7467,-6.6659,-6.6366,-6.5778,-6.4163,-6.3833,-6.3576,-6.2732,-6.267,-6.278,-6.278,-6.278,-6.278,-6.278,-6.278,-6.2548,-6.1887,-6.1814,-6.119,-5.9551,-5.8547,-5.6969,-5.4546,-5.1536,-4.9077,-4.7406,-4.7957,-4.8233,-4.8086,-4.7939,-4.7755,-4.7609,-4.8159,-4.8399,-4.8269,-4.5847,-4.4892,0.0,0.0,0.0,0.0,0.0,0.0,0.0,0.0,0.0,0.0,0.0,-5.4262,-5.6934,0.0,-6.1806,-6.5155,-6.759,-7.0401,-7.4281,-7.7655,-8.0399,-8.2052,-8.3957,-8.5262,-8.5773,-8.5799,-8.582,-8.582,-8.6187,-8.571,-8.4095,-8.3618,-8.303,-8.2223,-8.259,-8.2994,-8.3398,-8.4205,-8.4389,-8.3985,-8.3581,-8.3177,-8.281,-8.281,-8.237,-8.1599,-8.1599,-8.0901,-7.969,-7.8442,-7.6497,-7.4331,-7.4735,-7.4661,-7.4404,-7.5212,-7.6019,-7.6533,-7.5322,-7.4368,-7.3413,-7.1835,-7.0477,-6.9449,-6.9009,-6.7504,-6.5888,-6.5888,-6.4714,-6.3539,-6.3943,-6.4971,-6.5888,-6.5888,-6.6806,-6.7577,-6.7173,-6.71,-6.6623,-6.5007,-6.4714,-6.431,-6.3,-6.278,-6.278,-6.278,-6.278,-6.2658,-6.2254,-6.2218,-6.1887,-6.108,-6.1006,-6.0529,-5.9294,-5.8107,-5.6381,-5.3959,-5.2307,-5.0655,-4.904,-4.9334,-4.9554,-4.9554,-4.9554,-4.9554,-4.9554,-4.9994,-5.0398,-5.0729,-4.9517,-4.893,0.0,0.0,0.0,0.0,0.0,0.0,0.0,-5.098,-5.2097,-5.4532,-5.7137,-5.9573,-6.1569,-6.3159,-6.4986,-6.7489,-6.9316,-7.1668,-7.5342,-7.8378,-8.0607,-8.1731,-8.3624,-8.497,-8.5288,-8.4874,-8.4609,-8.4609,-8.5343,-8.5159,-8.3728,-8.3801,-8.3508,-8.27,-8.2663,-8.292,-8.3398,-8.3398,-8.3324,-8.3177,-8.237,-8.1966,-8.1966,-8.1819,-8.1379,-8.0755,-8.0424,-7.936,-7.7745,-7.624,-7.4771,-7.345,-7.345,-7.345,-7.356,-7.4551,-7.5432,-7.5983,-7.5175,-7.4478,-7.367,-7.2055,-7.0881,-6.9963,-6.9339,-6.8017,-6.6733,-6.6733,-6.5778,-6.4897,-6.5411,-6.6145,-6.6696,-6.6549,-6.71,-6.7687,-6.7687,-6.7687,-6.721,-6.5632,-6.5301,-6.4787,-6.3099,-6.278,-6.278,-6.278,-6.278,-6.2511,-6.1704,-6.1594,-6.1227,-6.0272,-6.0162,-5.9832,-5.9038,-5.7666,-5.5904,-5.3812,-5.3518,-5.2784,-5.1353,-5.1279,-5.1353,-5.1499,-5.1353,-5.1353,-5.1499,-5.1353,-5.1683,-5.2454,-5.2454,-5.238,-4.2712,-4.6109,-5.0881,-5.3247,-5.4938,-5.6021,0.0,-5.5987,-5.69,-5.981,-6.1738,-6.3159,-6.4072,-6.5459,-6.6779,-6.7726,-6.9755,-7.2076,-7.4653,-7.7993,-8.0297,-8.0573,-8.2973,-8.4651,-8.4722,-8.4646,-8.4609,-8.4609,-8.5343,-8.5416,-8.4499,-8.5123,-8.5159,-8.4352,-8.4315,-8.4022,-8.3434,-8.3398,-8.303,-8.2333,-8.1525,-8.1122,-8.1122,-8.0388,-8.0021,-7.9837,-7.8369,-7.6827,-7.5249,-7.4331,-7.345,-7.2642,-7.2642,-7.2642,-7.2826,-7.4368,-7.5432,-7.5983,-7.5175,-7.4845,-7.4515,-7.2899,-7.1358,-7.0073,-7.0,-6.8825,-6.7577,-6.7577,-6.743,-6.7136,-6.6512,-6.6953,-6.7393,-6.6659,-6.71,-6.7687,-6.7687,-6.7687,-6.721,-6.5632,-6.5301,-6.4787,-6.3099,-6.278,-6.278,-6.278,-6.278,-6.2511,-6.1704,-6.1594,-6.1006,-5.9478,-5.9331,-5.9024,-5.8217,-5.7299,-5.6381,-5.539,-5.4656,-5.3849,-5.2968,-5.291,-5.3261,-5.3995,-5.3298,-5.3298,-5.3995,-5.3298,-5.3371,-5.4142,-5.4142,-5.3739,-4.7721,-5.0608,-5.4363,-5.6596,-5.9268,-6.1231,-6.0791,-6.1366,-6.2448,-6.4174,-6.6068,-6.7354,-6.7252,-6.7354,-6.7827,-6.9045,-7.0026,-7.1634,-7.4481,-7.7145,-7.8875,-7.8995,-7.9403,-8.0388,-8.2333,-8.2076,-8.2003,-8.248,-8.3691,-8.4058,-8.3251,-8.3985,-8.4022,-8.3214,-8.3214,-8.303,-8.27,-8.27,-8.2296,-8.1489,-8.1158,-8.0755,-8.0277,-7.9947,-7.925,-7.8295,-7.7121,-7.5689,-7.4184,-7.3817,-7.323,-7.2496,-7.2496,-7.2496,-7.2679,-7.4331,-7.5139,-7.5359,-7.5028,-7.4588,-7.3927,-7.2312,-7.1027,-7.011,-7.011,-6.9633,-6.9192,-6.9669,-6.9816,-6.9596,-6.8788,-6.8495,-6.8091,-6.6806,-6.6769,-6.699,-6.699,-6.7357,-6.721,-6.5632,-6.5301,-6.4787,-6.3099,-6.278,-6.2658,-6.2181,-6.2108,-6.1814,-6.1006,-6.0493,-5.9758,-5.8621,-5.851,-5.8364,-5.8033,-5.7703,-5.7152,-5.6345,-5.5978,-5.5427,-5.462,-5.4583,-5.473,-5.5097,-5.4766,-5.4766,-5.5097,-5.4766,-5.5023,-5.5794,-5.5317,-5.517,-5.2075,-5.4805,-5.7834,-6.001,-6.3242,-6.5765,-6.5215,-6.5725,-6.661,-6.7513,-6.8659,-6.932,-6.9015,-6.8472,-6.8617,-7.0231,-7.0852,-7.22,-7.518,-7.7146,-7.828,-7.8171,-7.6923,-7.7047,-7.9433,-7.9323,-7.9543,-8.0571,-8.237,-8.3067,-8.2223,-8.2957,-8.303,-8.2223,-8.2186,-8.2186,-8.2186,-8.1966,-8.1562,-8.1012,-8.0571,-8.0021,-7.9433,-7.8993,-7.7892,-7.6276,-7.5689,-7.4661,-7.3377,-7.3377,-7.3046,-7.2496,-7.2496,-7.2642,-7.301,-7.4404,-7.4918,-7.4918,-7.4918,-7.4368,-7.3413,-7.1835,-7.0624,-6.9779,-6.9779,-6.9779,-6.9926,-7.0734,-7.1138,-7.1138,-7.0293,-6.9669,-6.8825,-6.721,-6.6843,-6.6843,-6.6843,-6.7283,-6.721,-6.5632,-6.5301,-6.4787,-6.3099,-6.278,-6.2622,-6.2034,-6.1557,-6.097,-6.0162,-5.9391,-5.8584,-5.774,-5.7886,-5.7997,-5.7997,-5.7997,-5.774,-5.7189,-5.7152,-5.6859,-5.6271,-5.6235,-5.6235,-5.6235,-5.6051,-5.5941,-5.5941,-5.5684,-5.6014,-5.6785,-5.6198,-5.6345,-5.435,-5.8356,-6.1774,-6.4051,-6.6915,-6.9118,-6.9158,-6.8532,-6.8423,-6.9729,-6.8734,-6.7817,-6.85,-6.8603,-6.9165,-7.0881,-7.257,-7.4522,-7.6976,-7.8638,-7.9381,-7.8671,-7.7121,-7.613,-7.624,-7.6937,-7.8075,-7.969,-8.2039,-8.3067,-8.2223,-8.2957,-8.303,-8.2223,-8.2186,-8.2186,-8.2186,-8.1415,-8.1012,-8.0975,-7.9433,-7.8662,-7.8589,-7.6937,-7.5322,-7.3817,-7.378,-7.3303,-7.2532,-7.2532,-7.2532,-7.2496,-7.2496,-7.2973,-7.3744,-7.4588,-7.4918,-7.4918,-7.4918,-7.4368,-7.3413,-7.1835,-7.0257,-6.8935,-6.8935,-6.8935,-6.9119,-6.9926,-7.0697,-7.1138,-7.0293,-7.0073,-6.9669,-6.8054,-6.765,-6.765,-6.765,-6.7677,-6.721,-6.5632,-6.5301,-6.4787,-6.3099,-6.278,-6.278,-6.2743,-6.1447,-6.0162,-5.9331,-5.8547,-5.774,-5.6932,-5.7519,-5.7997,-5.7997,-5.7997,-5.7997,-5.796,-5.796,-5.796,-5.7923,-5.7923,-5.7923,-5.7923,-5.7152,-5.6748,-5.6748,-5.5978,-5.6014,-5.6822,-5.6785,-5.7189,-5.8496,-6.2617,-6.6001,-6.7729,-7.0435,-7.2401,-7.1344,-7.1236,-7.1017,-6.9652,-6.8258,-6.7148,-6.6863,-6.7251,-6.8374,-7.0734,-7.3233,-7.5609,-7.7791,-7.8948,-7.9144,-7.8118,-7.6418,-7.5102,-7.4551,-7.4735,-7.5799,-7.8002,-7.991,-8.1122,-8.1379,-8.2186,-8.248,-8.2186,-8.2186,-8.2186,-8.2186,-8.1929,-8.1269,-8.0167,-7.8552,-7.7451,-7.6937,-7.635,-7.5212,-7.3707,-7.3707,-7.323,-7.2496,-7.2496,-7.2496,-7.2569,-7.3083,-7.345,-7.3854,-7.5212,-7.5689,-7.5616,-7.5102,-7.4037,-7.2642,-7.1027,-6.9412,-6.8091,-6.8091,-6.8495,-6.9082,-6.9853,-7.0697,-7.1138,-7.0293,-6.9706,-6.8898,-6.7283,-6.688,-6.688,-6.688,-6.732,-6.721,-6.5632,-6.5301,-6.4787,-6.3099,-6.278,-6.2622,-6.2071,-6.108,-5.9722,-5.785,-5.785,-5.7703,-5.6895,-5.7519,-5.7997,-5.7997,-5.7997,-5.7997,-5.7997,-5.7997,-5.7997,-5.7997,-5.7997,-5.7997,-5.7997,-5.774,-5.7593,-5.7593,-5.7299,-5.7336,-5.7593,-5.7593,-5.774,-6.226,-6.6507,-6.9973,-7.0907,-7.3226,-7.4865,-7.3261,-7.2834,-7.1979,-6.9212,-6.6741,-6.5124,-6.5192,-6.5612,-6.7085,-7.0646,-7.3852,-7.6613,-7.8668,-7.9612,-7.9715,-7.8893,-7.6983,-7.5579,-7.5028,-7.3964,-7.4147,-7.6283,-7.8259,-7.9727,-8.0534,-8.1599,-8.2186,-8.2186,-8.2186,-8.2186,-8.2186,-8.1893,-8.0791,-7.8883,-7.7524,-7.6313,-7.5249,-7.5249,-7.4515,-7.3266,-7.3266,-7.2973,-7.2496,-7.2496,-7.2496,-7.2569,-7.3377,-7.3891,-7.4294,-7.5616,-7.6276,-7.6387,-7.5285,-7.3854,-7.2239,-7.0624,-6.9009,-6.7687,-6.7687,-6.8054,-6.8641,-6.9449,-7.0257,-7.0697,-6.9889,-6.9486,-6.8935,-6.732,-6.6916,-6.6916,-6.6916,-6.732,-6.721,-6.5632,-6.5301,-6.4787,-6.3099,-6.278,-6.2548,-6.1704,-6.0933,-5.9538,-5.7116,-5.7483,-5.7593,-5.6492,-5.7336,-5.7997,-5.7997,-5.7997,-5.7997,-5.7997,-5.7997,-5.7997,-5.7997,-5.7997,-5.7997,-5.7997,-5.7997,-5.7997,-5.7997,-5.7997,-5.7997,-5.7997,-5.7997,-5.7997,-6.5839,-7.0134,-7.3701,-7.3596,-7.529,-7.6551,-7.486,-7.3207,-7.1237,-6.8368,-6.4276,-6.1725,-6.3309,-6.3559,-6.5245,-7.0409,-7.433,-7.7414,-7.9462,-8.0615,-8.1148,-8.0755,-7.8793,-7.7457,-7.7347,-7.4588,-7.3377,-7.4918,-7.7194,-7.8883,-7.9727,-8.1305,-8.2186,-8.2186,-8.215,-8.215,-8.215,-8.1305,-7.969,-7.7273,-7.6497,-7.5285,-7.3744,-7.3744,-7.334,-7.2642,-7.2642,-7.2642,-7.2642,-7.2642,-7.2606,-7.2642,-7.3487,-7.4258,-7.5028,-7.5836,-7.6644,-7.7053,-7.5469,-7.3854,-7.2239,-7.0624,-6.9009,-6.7687,-6.7687,-6.7687,-6.7871,-6.8678,-6.9449,-6.9853,-6.9119,-6.9486,-6.9633,-6.8054,-6.7687,-6.7687,-6.7687,-6.7687,-6.721,-6.5632,-6.5228,-6.4677,-6.3074,-6.278,-6.2548,-6.1777,-6.0933,-5.9538,-5.7116,-5.7483,-5.7336,-5.578,-5.7005,-5.796,-5.7997,-5.7997,-5.7997,-5.7997,-5.7997,-5.7997,-5.7997,-5.7997,-5.7997,-5.7997,-5.7997,-5.7997,-5.7997,-5.7997,-5.7997,-5.7997,-5.7997,-5.7997,-7.0931,-7.4915,-7.7875,-7.6601,-7.7258,-7.7441,-7.4591,-7.2662,-7.0201,-6.5662,-6.1648,-5.9048,-5.9486,-6.0044,-6.2127,-6.7312,-7.2205,-7.6199,-7.856,-8.0162,-8.1033,-8.0915,-8.0429,-7.958,-7.8369,-7.6937,-7.6246,-7.665,-7.7273,-7.8259,-7.969,-8.1305,-8.2186,-8.2186,-8.1636,-8.1305,-8.1305,-7.991,-7.8589,-7.7273,-7.6497,-7.5579,-7.4588,-7.4588,-7.4478,-7.4294,-7.4294,-7.4294,-7.4294,-7.4294,-7.3927,-7.3523,-7.4955,-7.5249,-7.5065,-7.6497,-7.7127,-7.7053,-7.5469,-7.3854,-7.2239,-7.0624,-6.9009,-6.7687,-6.7687,-6.7687,-6.7871,-6.8678,-6.9045,-6.9155,-6.8972,-6.9045,-6.8935,-6.7944,-6.7687,-6.7687,-6.7687,-6.7687,-6.721,-6.5632,-6.4284,-6.3294,-6.2853,-6.278,-6.2732,-6.2548,-6.13,-5.9538,-5.7116,-5.6969,-5.6712,-5.5706,-5.6492,-5.7336,-5.796,-5.7997,-5.7997,-5.7997,-5.7997,-5.7997,-5.7997,-5.7997,-5.7997,-5.7997,-5.7997,-5.7997,-5.7997,-5.7997,-5.7997,-5.7997,-5.7997,-5.7997,-7.4184,-7.7488,-7.9837,-7.7787,-7.7671,-7.7011,-7.301,-7.0587,-6.7743,-6.2636,-5.843,-5.5957,-5.6681,-5.7467,-5.9782,-6.5287,-7.0783,-7.4992,-7.6717,-7.8699,-7.9947,-7.9947,-7.9947,-7.9727,-7.9176,-7.8369,-7.8038,-7.8369,-7.8075,-7.8442,-7.9727,-8.1305,-8.2039,-8.1672,-8.1232,-8.0681,-7.9947,-7.8662,-7.7451,-7.6209,-7.5799,-7.5139,-7.4404,-7.4735,-7.4918,-7.4918,-7.4918,-7.4918,-7.4918,-7.4918,-7.4441,-7.3854,-7.5469,-7.5616,-7.5102,-7.6686,-7.7273,-7.7053,-7.5469,-7.4074,-7.2716,-7.0734,-6.9009,-6.7687,-6.7687,-6.7687,-6.7871,-6.8678,-6.9155,-6.9339,-6.9009,-6.9155,-6.9119,-6.7981,-6.7687,-6.7687,-6.7687,-6.7687,-6.721,-6.5632,-6.4273,-6.3246,-6.2879,-6.278,-6.278,-6.278,-6.1447,-5.9795,-5.807,-5.7262,-5.6381,-5.5207,-5.6124,-5.6969,-5.7446,-5.7813,-5.7997,-5.7997,-5.7997,-5.7997,-5.7997,-5.7997,-5.7997,-5.7997,-5.7997,-5.7997,-5.7997,-5.7997,-5.7997,-5.7997,-5.7997,-5.7997,-7.635,-7.8736,-8.0424,-7.7897,-7.72,-7.5873,-7.0917,-6.7724,-6.4431,-5.9432,-5.5062,-5.2652,-5.4301,-5.5226,-5.7643,-6.3518,-6.9219,-7.3266,-7.4294,-7.646,-7.8038,-7.8222,-7.8369,-7.8772,-7.969,-7.936,-7.936,-8.0057,-7.947,-7.9323,-7.991,-8.1379,-8.1782,-8.0865,-8.0755,-7.9947,-7.8442,-7.7708,-7.654,-7.5065,-7.5065,-7.4698,-7.4037,-7.4735,-7.5139,-7.5249,-7.5249,-7.5249,-7.5249,-7.5249,-7.4698,-7.4001,-7.5616,-7.5726,-7.5102,-7.6576,-7.7127,-7.6907,-7.5322,-7.4221,-7.3156,-7.0844,-6.9082,-6.7834,-6.7724,-6.776,-6.7981,-6.8715,-6.9486,-6.9926,-6.9119,-6.9412,-6.9559,-6.8054,-6.7687,-6.7687,-6.7687,-6.7614,-6.7136,-6.5742,-6.4714,-6.387,-6.3099,-6.2879,-6.278,-6.278,-6.152,-6.0272,-5.9441,-5.7863,-5.6271,-5.4876,-5.5978,-5.6859,-5.6969,-5.7593,-5.7997,-5.7997,-5.7997,-5.7997,-5.7997,-5.7997,-5.7997,-5.7997,-5.7997,-5.7997,-5.7997,-5.7997,-5.7997,-5.7997,-5.7997,-5.807,-7.8736,-8.0057,-8.0424,-7.7897,-7.6827,-7.4882,-6.9376,-6.5154,-6.108,-5.6212,-5.1914,-4.9585,-5.1234,-5.2208,-5.4591,-6.0298,-6.5448,-6.9486,-7.1651,-7.345,-7.5028,-7.6387,-7.7121,-7.8112,-7.9653,-8.0865,-8.1636,-8.1746,-8.1636,-8.1342,-8.0828,-8.1672,-8.1525,-8.0021,-7.936,-7.8552,-7.7561,-7.7384,-7.6827,-7.5909,-7.5909,-7.5836,-7.5689,-7.5836,-7.6276,-7.687,-7.687,-7.687,-7.687,-7.687,-7.5989,-7.4845,-7.643,-7.6173,-7.5028,-7.5983,-7.6313,-7.6093,-7.4478,-7.3377,-7.2422,-7.066,-6.9449,-6.8568,-6.7907,-6.8164,-6.8715,-6.8862,-6.9486,-6.9926,-6.9119,-6.9009,-6.8862,-6.7907,-6.7687,-6.7687,-6.7687,-6.7173,-6.6623,-6.6366,-6.5118,-6.4053,-6.3906,-6.3282,-6.278,-6.278,-6.1998,-6.108,-6.0309,-5.8217,-5.6712,-5.6418,-5.6638,-5.7079,-5.774,-5.7923,-5.7997,-5.7997,-5.7997,-5.7997,-5.7997,-5.7997,-5.7997,-5.7997,-5.7997,-5.7997,-5.7997,-5.7997,-5.7997,-5.7997,-5.7997,-5.8364,-7.9976,-8.1028,-8.1082,-7.7677,-7.5529,-7.2532,-6.5999,-6.1374,-5.7226,-5.2784,-4.9297,-4.7425,-4.8654,-4.9884,-5.2328,-5.7116,-6.2365,-6.6512,-6.8531,-7.055,-7.2422,-7.4037,-7.5322,-7.6864,-7.8956,-8.1012,-8.2186,-8.2186,-8.2186,-8.2039,-8.1636,-8.1195,-8.0571,-7.98,-7.8589,-7.7524,-7.668,-7.668,-7.6276,-7.5469,-7.5909,-7.6093,-7.613,-7.6533,-7.6937,-7.7273,-7.7273,-7.7273,-7.7273,-7.7273,-7.6319,-7.5065,-7.665,-7.6319,-7.5028,-7.5799,-7.6093,-7.5873,-7.4258,-7.345,-7.2863,-7.1248,-7.0183,-6.9449,-6.9082,-6.9229,-6.9596,-7.0036,-7.044,-7.055,-6.9743,-6.9522,-6.9229,-6.7981,-6.7687,-6.7687,-6.7687,-6.7393,-6.699,-6.6586,-6.5888,-6.5081,-6.4237,-6.3759,-6.3319,-6.2879,-6.2108,-6.1447,-6.108,-5.9648,-5.818,-5.6932,-5.6822,-5.6969,-5.7336,-5.7776,-5.7997,-5.7997,-5.7997,-5.7997,-5.7997,-5.7997,-5.7997,-5.7997,-5.7997,-5.7997,-5.7997,-5.7997,-5.7997,-5.7997,-5.8437,-5.8817,-8.0934,-8.1845,-8.1783,-7.754,-7.4359,-7.033,-6.3025,-5.796,-5.3723,-4.9848,-4.7095,-4.5626,-4.6452,-4.7792,-5.0124,-5.4164,-5.9318,-6.3429,-6.5191,-6.754,-6.9743,-7.1505,-7.3303,-7.5432,-7.8075,-8.0534,-8.1929,-8.1929,-8.1782,-8.1819,-8.2186,-8.0645,-7.98,-7.98,-7.8185,-7.7011,-7.635,-7.635,-7.6056,-7.5402,-7.6056,-7.635,-7.6387,-7.698,-7.7273,-7.7273,-7.7273,-7.7273,-7.7273,-7.7273,-7.643,-7.5322,-7.6723,-7.6393,-7.5212,-7.5689,-7.5726,-7.5395,-7.3927,-7.334,-7.301,-7.1908,-7.1027,-7.033,-7.0146,-7.011,-7.0257,-7.1101,-7.1293,-7.1174,-7.0513,-7.0367,-6.9963,-6.8348,-6.7834,-6.7687,-6.7687,-6.7687,-6.7504,-6.688,-6.6623,-6.6109,-6.4824,-6.431,-6.387,-6.3172,-6.2365,-6.1851,-6.1851,-6.1153,-5.9942,-5.8033,-5.7519,-5.7336,-5.7336,-5.774,-5.7997,-5.7997,-5.8143,-5.8253,-5.8253,-5.8437,-5.851,-5.851,-5.851,-5.8437,-5.8253,-5.8253,-5.818,-5.8033,-5.8841,-5.9294,-8.2256,-8.277,-8.2144,-7.784,-7.4052,-6.9522,-6.2181,-5.6271,-5.1389,-4.7993,-4.5406,-4.3975,-4.4782,-4.5626,-4.7572,-5.1646,-5.5831,-5.9391,-6.1704,-6.42,-6.6623,-6.8972,-7.1321,-7.3964,-7.709,-7.9653,-8.1122,-8.1122,-8.0424,-8.0645,-8.2113,-8.0645,-7.98,-7.98,-7.8185,-7.7237,-7.7163,-7.7163,-7.7127,-7.7053,-7.7127,-7.7163,-7.7163,-7.7273,-7.7273,-7.7273,-7.7273,-7.7273,-7.7273,-7.7273,-7.679,-7.6093,-7.6943,-7.679,-7.5909,-7.5249,-7.4551,-7.378,-7.2936,-7.2129,-7.1651,-7.2202,-7.1872,-7.1064,-7.033,-7.011,-7.0257,-7.1101,-7.1293,-7.1256,-7.1211,-7.1211,-7.0807,-6.9192,-6.8238,-6.7687,-6.7687,-6.7687,-6.7677,-6.7577,-6.699,-6.6439,-6.6292,-6.5044,-6.4053,-6.398,-6.3246,-6.2695,-6.2695,-6.1998,-6.141,-6.119,-5.9869,-5.8964,-5.8964,-5.84,-5.7997,-5.7997,-5.8694,-5.9074,-5.9074,-5.9795,-6.0199,-6.0199,-6.0199,-5.9832,-5.9074,-5.9074,-5.8731,-5.8033,-5.8841,-5.9588,-7.9932,-8.1144,-8.12,-7.6786,-7.2547,-6.7583,-6.0635,-5.4648,-4.9701,-4.6948,-4.4819,-4.3625,-4.3901,-4.4635,-4.6177,-4.926,-5.2784,-5.6124,-5.9024,-6.152,-6.398,-6.6439,-6.8862,-7.1431,-7.4147,-7.7084,-7.9213,-8.0204,-7.9984,-8.0057,-8.0718,-7.969,-7.9066,-7.9066,-7.7928,-7.7273,-7.7273,-7.7273,-7.7273,-7.7273,-7.7273,-7.7273,-7.7273,-7.7273,-7.7273,-7.7273,-7.7273,-7.7273,-7.7273,-7.7273,-7.6827,-7.6166,-7.698,-7.6827,-7.6019,-7.5212,-7.4404,-7.3523,-7.2239,-7.1248,-7.0624,-7.0954,-7.0844,-7.0697,-7.1358,-7.1541,-7.1615,-7.1945,-7.2018,-7.1908,-7.1431,-7.0587,-6.9706,-6.9045,-6.8274,-6.7687,-6.7687,-6.7687,-6.7687,-6.7687,-6.743,-6.7063,-6.6586,-6.5558,-6.464,-6.4163,-6.3356,-6.278,-6.278,-6.2511,-6.2328,-6.2328,-6.0896,-5.9942,-5.9942,-5.9648,-5.9428,-5.9428,-5.9758,-5.9942,-5.9942,-6.0236,-6.0419,-6.0419,-6.0419,-6.0236,-5.9942,-5.9942,-5.9758,-5.9465,-6.0272,-6.0823,-7.8044,-8.0087,-8.0792,-7.6085,-7.1365,-6.6123,-5.9486,-5.3392,-4.8526,-4.6361,-4.4599,-4.3515,-4.3515,-4.3975,-4.5076,-4.7241,-4.9921,-5.2894,-5.6124,-5.8657,-6.119,-6.387,-6.6145,-6.8605,-7.1505,-7.4918,-7.7524,-7.8956,-7.9066,-7.9066,-7.9066,-7.8516,-7.8332,-7.8589,-7.7781,-7.7273,-7.7273,-7.7273,-7.7273,-7.7273,-7.7273,-7.7273,-7.7273,-7.7273,-7.7273,-7.7273,-7.7273,-7.7273,-7.7273,-7.7273,-7.6827,-7.6166,-7.6717,-7.646,-7.5652,-7.4845,-7.3891,-7.2826,-7.1688,-7.0624,-6.9779,-7.0,-7.011,-7.0367,-7.1725,-7.1982,-7.1908,-7.2386,-7.2496,-7.2386,-7.1798,-7.0477,-6.9265,-6.9265,-6.8458,-6.7687,-6.7687,-6.7687,-6.7687,-6.7687,-6.7687,-6.7504,-6.6953,-6.5999,-6.5118,-6.453,-6.3503,-6.278,-6.278,-6.278,-6.278,-6.278,-6.1814,-6.1006,-6.0786,-6.0529,-6.0419,-6.0419,-6.0639,-6.075,-6.075,-6.097,-6.1117,-6.1117,-6.1117,-6.1006,-6.075,-6.075,-6.0639,-6.0419,-6.1227,-6.1741,-7.7549,-8.0352,-8.1301,-7.5935,-7.0965,-6.5635,-5.8842,-5.2665,-4.7865,-4.6214,-4.4599,-4.3515,-4.3515,-4.3515,-4.4065,-4.5663,-4.7278,-4.9517,-5.2763,-5.5354,-5.8033,-6.1263,-6.3099,-6.5705,-6.9743,-7.3744,-7.646,-7.7237,-7.731,-7.731,-7.731,-7.731,-7.7708,-7.8552,-7.7781,-7.7273,-7.7273,-7.7273,-7.7273,-7.7273,-7.7273,-7.7273,-7.7273,-7.7273,-7.7273,-7.7273,-7.7273,-7.7273,-7.7273,-7.7273,-7.6827,-7.6093,-7.6093,-7.5616,-7.4808,-7.4001,-7.2716,-7.1293,-7.1293,-7.0257,-6.9045,-6.9853,-7.011,-7.0257,-7.1064,-7.077,-7.044,-7.2055,-7.2496,-7.2496,-7.2496,-7.1284,-7.0073,-7.0073,-6.8862,-6.7687,-6.7687,-6.7687,-6.7687,-6.7687,-6.7687,-6.7687,-6.7687,-6.6366,-6.5301,-6.5301,-6.387,-6.278,-6.278,-6.278,-6.278,-6.278,-6.2805,-6.2475,-6.1667,-6.086,-6.0419,-6.0419,-6.1153,-6.1594,-6.1594,-6.2365,-6.278,-6.278,-6.278,-6.2401,-6.1594,-6.1594,-6.119,-6.0419,-6.1227,-6.2034,-7.0758,-7.3259,-7.4285,-7.0611,-6.6539,-6.1926,-5.6214,-5.1043,-4.7003,-4.5406,-4.4232,-4.3515,-4.3515,-4.3515,-4.3828,-4.4929,-4.5957,-4.7829,-5.1096,-5.4583,-5.7813,-6.0456,-6.4677,-6.8531,-7.1468,-7.3891,-7.5836,-7.72,-7.7273,-7.7273,-7.7273,-7.7273,-7.742,-7.7708,-7.742,-7.7273,-7.7273,-7.7273,-7.7273,-7.7273,-7.7273,-7.7273,-7.7273,-7.7273,-7.7273,-7.7273,-7.7273,-7.7273,-7.7237,-7.6717,-7.635,-7.6056,-7.5506,-7.5139,-7.4808,-7.4001,-7.2679,-7.1219,-7.066,-6.9412,-6.8128,-6.8385,-6.8458,-6.8605,-6.9412,-7.0257,-7.1138,-7.2202,-7.2496,-7.2496,-7.2496,-7.1321,-7.011,-7.011,-6.8862,-6.7687,-6.7687,-6.7687,-6.7687,-6.7687,-6.7687,-6.7687,-6.7687,-6.6806,-6.5925,-6.5375,-6.4383,-6.3466,-6.2879,-6.278,-6.278,-6.278,-6.278,-6.267,-6.2438,-6.2181,-6.201,-6.201,-6.2291,-6.2438,-6.2438,-6.2658,-6.278,-6.278,-6.278,-6.267,-6.2438,-6.2438,-6.2291,-6.2071,-6.2291,-6.2585,-6.4373,-6.7198,-6.8395,-6.5868,-6.2525,-5.8669,-5.4073,-4.9695,-4.6269,-4.4948,-4.4048,-4.3515,-4.3515,-4.3515,-4.3644,-4.4158,-4.4672,-4.625,-4.9811,-5.3518,-5.7483,-6.1741,-6.6182,-6.9743,-7.1835,-7.378,-7.5579,-7.7163,-7.7273,-7.7273,-7.7273,-7.7273,-7.7273,-7.7273,-7.7273,-7.7273,-7.7273,-7.7273,-7.7273,-7.7273,-7.7273,-7.7273,-7.7273,-7.698,-7.6864,-7.6827,-7.6533,-7.6393,0.0,-7.5873,-7.5469,-7.5139,-7.4661,-7.4258,-7.3927,-7.3413,-7.2422,-7.1219,-7.0734,-6.9486,-6.8128,-6.8128,-6.8128,-6.8238,-6.8752,-7.0036,-7.1439,-7.2275,-7.2496,-7.2496,-7.2496,-7.1321,-7.011,-7.011,-6.8862,-6.7687,-6.7687,-6.7687,-6.7687,-6.7687,-6.7687,-6.7687,-6.7687,-6.7026,-6.6329,-6.5852,-6.4824,-6.3906,-6.3356,-6.3025,-6.278,-6.278,-6.278,-6.278,-6.278,-6.278,-6.278,-6.278,-6.278,-6.278,-6.278,-6.278,-6.278,-6.278,-6.278,-6.278,-6.278,-6.278,-6.278,-6.278,-6.278,-6.278,0.0,-6.1897,-6.3489,-6.1576,-5.8904,-5.581,-5.2165,-4.8486,0.0,-4.4782,-4.4011,-4.3515,-4.3515,-4.3515,-4.3515,-4.3588,-4.3625,-4.5076,-4.9114,-5.2858,-5.7813,-6.4897,-6.7834,-6.9853,-7.1403,-7.3634,-7.5652,-7.7163,-7.7273,-7.7273,-7.7273,-7.7273,-7.7273,-7.7273,-7.7273,-7.7273,-7.7273,-7.7273,-7.7273,-7.7273,-7.7273,-7.7273,-7.7273,-7.646,-7.6056,-7.5983,-7.5212,-7.4882,-7.4808,-7.4808,-7.4368,-7.367,-7.3634,-7.3156,-7.2496,-7.2496,-7.1982,-7.1293,-7.1293,-7.0257,-6.8898,-6.8825,-6.8825,-6.8825,-6.8898,-7.0036,-7.1468,-7.2202,-7.2459,-7.2496,-7.2422,-7.1248,-7.0073,-7.0036,-6.8825,-6.7687,-6.7687,-6.7687,-6.7687,-6.7687,-6.7687,-6.7687,-6.7687,-6.7063,-6.6549,-6.6512,-6.5228,-6.4237,-6.409,-6.3392,-6.2879,-6.278,-6.278,-6.278,-6.278,-6.278,-6.278,-6.278,-6.278,-6.278,-6.278,-6.278,-6.278,-6.278,-6.278,-6.278,-6.278,-6.278,-6.278,-6.278,-6.278,-6.278,-5.0317,0.0,-5.7505,-5.6268,-5.4686,-5.2489,0.0,-4.6557,-4.4938,-4.4042,-4.3659,-4.3515,-4.3515,-4.3515,-4.3681,-4.4305,-4.4929,-4.6764,-5.0839,-5.796,-6.453,-6.9339,-7.1468,-7.2973,-7.3964,-7.5139,-7.624,-7.7237,-7.7273,-7.7273,-7.7273,-7.7273,-7.7273,-7.7273,-7.7273,-7.7273,-7.7273,-7.7273,-7.7273,-7.7273,-7.7273,-7.7273,-7.7273,-7.646,-7.5763,-7.5175,-7.4992,-7.4551,-7.3964,-7.3964,-7.3854,-7.3634,-7.301,-7.2679,-7.2496,-7.2496,-7.1982,-7.1293,-7.1293,-7.0257,-6.8788,-6.8164,-6.7981,-6.8091,-6.8715,-7.0036,-7.1329,-7.1513,-7.2055,-7.2349,-7.1762,-7.0844,-6.9926,-6.9339,-6.8421,-6.7687,-6.7687,-6.7687,-6.7687,-6.7687,-6.7687,-6.7687,-6.7687,-6.754,-6.721,-6.6586,-6.6182,-6.5485,-6.4237,-6.3906,-6.3539,-6.2879,-6.278,-6.278,-6.278,-6.278,-6.278,-6.278,-6.278,-6.278,-6.278,-6.278,-6.278,-6.278,-6.278,-6.278,-6.278,-6.278,-6.278,-6.278,-6.278,-6.278,-4.7625,-5.0125,-5.2172,-5.1946,-5.1011,-4.9505,-4.7065,-4.5492,-4.4378,-4.3841,-4.3617,-4.3515,-4.3515,-4.3791,-4.4305,-4.5112,-4.625,-4.9187,-5.55,-6.2475,-6.8458,-7.2496,-7.4037,-7.5102,-7.5916,-7.6423,-7.6827,-7.7273,-7.6943,-7.6754,-7.6754,-7.6423,-7.6173,-7.6173,-7.6173,-7.654,-7.7273,-7.6907,-7.6754,-7.6754,-7.6356,-7.6173,-7.6173,-7.5359,-7.4551,-7.3817,-7.3817,-7.334,-7.2642,-7.301,-7.3156,-7.312,-7.2679,-7.2496,-7.2496,-7.2496,-7.2239,-7.1872,-7.1872,-7.0807,-6.9265,-6.8054,-6.7687,-6.776,-6.8201,-6.9486,-7.0844,-7.1183,-7.1615,-7.1872,-7.1403,-7.044,-6.9449,-6.9009,-6.8274,-6.7687,-6.7687,-6.7687,-6.7687,-6.7687,-6.7687,-6.7687,-6.7687,-6.7687,-6.754,-6.71,-6.6733,-6.6182,-6.5301,-6.4861,-6.4457,-6.4016,-6.3613,-6.3392,-6.3392,-6.3025,-6.278,-6.278,-6.278,-6.278,-6.278,-6.278,-6.278,-6.278,-6.278,-6.278,-6.278,-6.278,-6.278,-6.278,-6.278,-6.278,-4.7625,-4.8202,-4.8443,-4.9074,-4.8526,-4.7545,-4.6481,-4.5303,-4.4438,-4.4363,-4.4009,-4.3806,-4.4046,-4.4616,-4.5443,-4.6654,-4.871,-5.3004,-6.119,-6.6256,-7.055,-7.4441,-7.5616,-7.6423,-7.72,-7.7163,-7.709,-7.709,-7.6387,-7.5909,-7.5909,-7.5285,-7.4918,-7.4918,-7.4918,-7.5549,-7.6907,-7.6276,-7.5909,-7.5909,-7.5249,-7.4918,-7.4882,-7.3927,-7.3083,-7.2312,-7.2312,-7.1872,-7.1211,-7.2129,-7.2496,-7.2496,-7.2496,-7.2496,-7.2496,-7.2496,-7.2496,-7.2459,-7.2239,-7.1248,-6.9816,-6.8201,-6.7687,-6.7687,-6.7687,-6.8715,-7.0073,-7.0881,-7.1211,-7.1256,-7.1174,-7.0036,-6.8862,-6.8752,-6.8201,-6.7687,-6.7687,-6.7687,-6.7687,-6.7687,-6.7687,-6.7687,-6.7687,-6.7687,-6.7687,-6.7687,-6.71,-6.6623,-6.6512,-6.5888,-6.5448,-6.5301,-6.4567,-6.409,-6.409,-6.3319,-6.278,-6.278,-6.278,-6.278,-6.278,-6.278,-6.278,-6.278,-6.278,-6.278,-6.278,-6.278,-6.278,-6.278,-6.278,-6.278,-4.7625,-4.8625,-4.9231,-4.9288,-4.9071,-4.8597,-4.76,-4.6946,-4.65,-4.6299,-4.5477,-4.5173,-4.6487,-4.6709,-4.7663,-5.0582,-5.528,-6.0236,-6.5081,-6.8164,-7.1174,-7.4515,-7.5616,-7.6423,-7.72,-7.668,-7.6276,-7.6276,-7.5542,-7.5102,-7.5102,-7.4992,-7.4918,-7.4918,-7.4918,-7.5028,-7.5285,-7.5175,-7.5102,-7.5102,-7.4955,-7.4918,-7.4845,-7.3377,-7.2275,-7.1505,-7.1505,-7.1027,-7.0403,-7.1908,-7.2496,-7.2496,-7.2496,-7.2496,-7.2496,-7.2496,-7.2496,-7.2312,-7.0954,-7.0293,-6.9816,-6.8201,-6.7687,-6.7687,-6.7687,-6.8348,-6.9265,-7.0073,-7.077,-7.1138,-7.0477,-6.9596,-6.8752,-6.8054,-6.7797,-6.7687,-6.7687,-6.7687,-6.7687,-6.7687,-6.7687,-6.7687,-6.7687,-6.7687,-6.7687,-6.7687,-6.7577,-6.7247,-6.6586,-6.6402,-6.6035,-6.5375,-6.4567,-6.409,-6.409,-6.3319,-6.278,-6.278,-6.278,-6.278,-6.278,-6.278,-6.278,-6.278,-6.278,-6.278,-6.278,-6.278,-6.278,-6.278,-6.278,-6.278,-4.7124,-4.8048,-4.8808,-4.925,-4.9979,-5.0368,-4.9395,-4.8919,-4.8628,-4.8404,-4.7392,-4.6962,-4.8493,-4.9304,-5.1389,-5.6381,-6.0493,-6.4163,-6.7357,-6.9889,-7.2129,-7.4037,-7.4955,-7.5616,-7.5953,-7.5689,-7.5469,-7.5469,-7.4698,-7.4258,-7.4258,-7.3854,-7.3597,-7.3597,-7.3597,-7.3597,-7.3597,-7.3597,-7.3817,-7.4258,-7.3817,-7.3597,-7.3597,-7.2863,-7.2055,-7.1293,-7.1762,-7.1505,-7.0844,-7.2018,-7.2496,-7.2496,-7.2496,-7.2496,-7.2496,-7.2496,-7.2496,-7.2349,-7.1174,-7.0477,-6.9889,-6.8715,-6.8054,-6.7687,-6.7687,-6.8238,-6.8972,-6.9339,-6.9743,-7.0036,-7.0073,-6.9192,-6.8164,-6.7797,-6.7687,-6.7687,-6.7687,-6.7687,-6.7687,-6.7687,-6.7687,-6.7687,-6.7687,-6.7687,-6.7687,-6.7687,-6.7687,-6.7577,-6.7173,-6.7136,-6.699,-6.6623,-6.5888,-6.5411,-6.5411,-6.4237,-6.3319,-6.2817,-6.278,-6.278,-6.278,-6.278,-6.278,-6.278,-6.278,-6.278,-6.278,-6.278,-6.278,-6.278,-6.278,-6.278,-4.6663,-4.7509,-4.8317,-4.9163,-5.0664,-5.1749,-5.1244,-5.1228,-5.1356,-5.134,-5.0297,-4.9812,-5.1283,-5.2949,-5.5889,-6.136,-6.4313,-6.6722,-6.9119,-7.1064,-7.2606,-7.356,-7.4258,-7.4698,-7.4882,-7.4735,-7.4625,-7.4625,-7.3854,-7.3413,-7.3413,-7.2826,-7.2496,-7.2496,-7.2496,-7.2496,-7.2496,-7.2496,-7.2826,-7.3413,-7.2789,-7.2496,-7.2496,-7.2312,-7.1872,-7.1329,-7.1945,-7.1872,-7.1329,-7.2165,-7.2496,-7.2496,-7.2496,-7.2496,-7.2496,-7.2496,-7.2496,-7.2386,-7.1578,-7.0917,-7.0257,-6.9449,-6.8641,-6.7944,-6.7787,-6.7981,-6.8348,-6.8348,-6.8201,-6.8348,-6.9522,-6.8752,-6.7687,-6.7687,-6.7687,-6.7687,-6.7687,-6.7687,-6.7687,-6.7687,-6.7687,-6.7687,-6.7687,-6.7687,-6.7687,-6.7687,-6.7687,-6.7687,-6.7687,-6.7687,-6.7687,-6.7687,-6.699,-6.6329,-6.5962,-6.4787,-6.3723,-6.2853,-6.2622,-6.2622,-6.278,-6.278,-6.278,-6.278,-6.278,-6.278,-6.278,-6.278,-6.278,-6.278,-6.278,-6.2915,-4.6663,-4.7509,-4.8317,-4.9163,-5.0664,-5.2067,-5.2745,-5.4001,-5.5198,-5.5791,-5.489,-5.4468,-5.5953,-5.8486,-6.1203,-6.3774,-6.6183,-6.8509,-7.0807,-7.1256,-7.1982,-7.3523,-7.3744,-7.4074,-7.4845,-7.4221,-7.378,-7.378,-7.3046,-7.2606,-7.2606,-7.2532,-7.2496,-7.2496,-7.2496,-7.2496,-7.2496,-7.2496,-7.2532,-7.2606,-7.2532,-7.2496,-7.2459,-7.1725,-7.1329,-7.1293,-7.1329,-7.1329,-7.1329,-7.2165,-7.2496,-7.2496,-7.2496,-7.2496,-7.2496,-7.2496,-7.2496,-7.2386,-7.1578,-7.1284,-7.1101,-7.0293,-6.9486,-6.8678,-6.7907,-6.721,-6.6659,-6.6659,-6.6145,-6.6109,-6.8385,-6.8348,-6.7687,-6.7687,-6.7687,-6.7687,-6.7687,-6.7687,-6.7687,-6.7687,-6.7687,-6.7687,-6.7687,-6.7687,-6.7687,-6.7687,-6.7687,-6.7687,-6.7687,-6.7687,-6.7687,-6.7687,-6.699,-6.5888,-6.4383,-6.4163,-6.3723,-6.2853,-6.2108,-6.2034,-6.2743,-6.278,-6.278,-6.278,-6.278,-6.278,-6.278,-6.278,-6.278,-6.278,-6.278,-6.3246,-4.6009,-4.6701,-4.7548,-4.8394,-5.0664,-5.3077,-5.4413,-5.6379,-5.846,-6.02,-6.0056,-5.9504,-5.9259,-6.1241,-6.3643,-6.5737,-6.7642,-6.9579,-7.1717,-7.2055,-7.2275,-7.2899,-7.2936,-7.3083,-7.3377,-7.312,-7.2936,-7.2936,-7.2679,-7.2496,-7.2496,-7.2496,-7.2496,-7.2496,-7.2496,-7.2496,-7.2496,-7.2496,-7.2496,-7.2496,-7.2496,-7.2496,-7.2496,-7.2202,-7.2055,-7.2055,-7.2055,-7.2055,-7.2092,-7.2386,-7.2496,-7.2496,-7.2496,-7.2496,-7.2496,-7.2496,-7.2496,-7.2459,-7.2165,-7.1394,-7.0513,-7.0183,-6.9229,-6.7981,-6.721,-6.6733,-6.6402,-6.5888,-6.5521,-6.5632,-6.7026,-6.7173,-6.6953,-6.6953,-6.732,-6.7687,-6.7687,-6.7687,-6.7687,-6.7687,-6.7687,-6.7687,-6.7687,-6.7687,-6.7687,-6.7687,-6.7687,-6.7687,-6.7687,-6.7687,-6.7687,-6.7687,-6.743,-6.6806,-6.5668,-6.4677,-6.3943,-6.3613,-6.2805,-6.2475,-6.2805,-6.278,-6.278,-6.278,-6.278,-6.278,-6.278,-6.278,-6.278,-6.278,-6.3356,-6.3796,-4.5594,-4.6047,-4.674,-4.7817,-5.0664,-5.3857,-5.6319,-5.9088,-6.1796,-6.4231,-6.4283,-6.3444,-6.1919,-6.3201,-6.502,-6.6519,-6.8445,-7.0407,-7.2259,-7.2496,-7.2496,-7.2496,-7.2496,-7.2496,-7.2496,-7.2496,-7.2496,-7.2496,-7.2496,-7.2386,-7.2129,-7.2349,-7.2386,-7.2129,-7.2386,-7.2496,-7.2496,-7.2496,-7.2386,-7.2129,-7.2129,-7.2275,-7.2496,-7.2496,-7.2496,-7.2496,-7.2496,-7.2496,-7.2496,-7.2496,-7.2496,-7.2496,-7.2496,-7.2496,-7.2496,-7.2496,-7.2496,-7.2496,-7.2496,-7.1615,-7.044,-7.0183,-6.9009,-6.7504,-6.6439,-6.5925,-6.5558,-6.4751,-6.4505,-6.464,-6.5191,-6.5925,-6.6512,-6.6512,-6.71,-6.7687,-6.7687,-6.7687,-6.7687,-6.7687,-6.7687,-6.7687,-6.7687,-6.7687,-6.7687,-6.7687,-6.7687,-6.7687,-6.7687,-6.7687,-6.7687,-6.7687,-6.7687,-6.7357,-6.6549,-6.5485,-6.464,-6.4127,-6.3539,-6.3099,-6.278,-6.278,-6.278,-6.278,-6.278,-6.278,-6.278,-6.278,-6.2952,-6.3209,-6.3796,-6.4347,-4.5594,-4.5594,-4.6018,-4.7702,-5.0702,-5.4357,-5.8588,-6.2166,-6.5346,-6.7856,-6.7423,-6.5982,-6.4023,-6.4615,-6.5582,-6.6044,-6.8568,-7.0954,-7.2304,-7.2496,-7.2496,-7.2496,-7.2496,-7.2496,-7.2496,-7.2496,-7.2496,-7.2496,-7.2496,-7.2165,-7.1329,-7.2055,-7.2129,-7.1293,-7.2092,-7.2496,-7.2496,-7.2496,-7.2092,-7.1293,-7.1293,-7.1725,-7.2496,-7.2496,-7.2496,-7.2496,-7.2496,-7.2496,-7.2496,-7.2496,-7.2496,-7.2496,-7.2496,-7.2496,-7.2496,-7.2496,-7.2496,-7.2496,-7.2496,-7.1945,-7.1109,-7.033,-6.8972,-6.7393,-6.5778,-6.4714,-6.3906,-6.3062,-6.278,-6.278,-6.278,-6.464,-6.6476,-6.6476,-6.71,-6.7687,-6.7687,-6.7687,-6.7687,-6.7687,-6.7687,-6.7687,-6.7687,-6.7687,-6.7687,-6.7687,-6.7687,-6.7687,-6.7687,-6.7687,-6.7687,-6.7687,-6.7687,-6.7357,-6.6586,-6.6512,-6.5815,-6.42,-6.4127,-6.3723,-6.2842,-6.278,-6.278,-6.278,-6.278,-6.278,-6.278,-6.278,-6.3282,-6.409,-6.4127,-6.4971,-4.6355,-4.6509,-4.7201,-5.0038,-5.3346,-5.6962,-6.1204,-6.482,-6.8308,-7.2024,-7.1942,-7.0216,-6.7017,-6.6974,-6.728,-6.6863,-6.847,-7.037,-7.2259,-7.2496,-7.2496,-7.2496,-7.2496,-7.2496,-7.2496,-7.2496,-7.2496,-7.2496,-7.1982,-7.1578,-7.1293,-7.0991,-7.0954,-7.1293,-7.1513,-7.1945,-7.2496,-7.2496,-7.2092,-7.1293,-7.1293,-7.1403,-7.1688,-7.1688,-7.1982,-7.2496,-7.2496,-7.2496,-7.2459,-7.1908,-7.1688,-7.1615,-7.1027,-7.0807,-7.0807,-7.0807,-7.0807,-7.0807,-7.0807,-7.0293,-6.9486,-6.8678,-6.7687,-6.6549,-6.4934,-6.4273,-6.3906,-6.3062,-6.278,-6.278,-6.278,-6.3796,-6.4934,-6.5521,-6.6256,-6.699,-6.7577,-6.7687,-6.7687,-6.7687,-6.7687,-6.7687,-6.7687,-6.7687,-6.7687,-6.7687,-6.7687,-6.7687,-6.7687,-6.7687,-6.7687,-6.7687,-6.7687,-6.7577,-6.7357,-6.6843,-6.6292,-6.5815,-6.5264,-6.431,-6.2853,-6.278,-6.278,-6.278,-6.278,-6.278,-6.278,-6.3429,-6.3833,-6.4127,-6.5264,-6.6035,-4.6971,-4.7625,-4.8779,-5.251,-5.5972,-5.9973,-6.5551,-6.8706,-7.136,-7.4553,-7.3883,-7.1896,-6.9153,-6.8449,-6.8039,-6.7296,-6.8433,-6.989,-7.1341,-7.1541,-7.1541,-7.1541,-7.1541,-7.1541,-7.1541,-7.1541,-7.1541,-7.1541,-7.1101,-7.0697,-7.0367,-7.0183,-7.033,-7.0807,-7.1138,-7.1688,-7.2496,-7.2202,-7.1615,-7.0844,-7.0513,-7.0367,-7.0367,-7.0697,-7.1101,-7.1541,-7.1541,-7.1541,-7.1505,-7.1027,-7.0844,-7.077,-7.0293,-6.9889,-6.9633,-6.9633,-6.9412,-6.9155,-6.9155,-6.8605,-6.7797,-6.699,-6.6182,-6.5301,-6.398,-6.3576,-6.3466,-6.2952,-6.278,-6.278,-6.278,-6.3209,-6.3796,-6.464,-6.5668,-6.6623,-6.71,-6.7467,-6.7687,-6.7687,-6.7687,-6.7687,-6.7687,-6.7687,-6.7687,-6.7687,-6.7687,-6.7687,-6.7687,-6.7687,-6.7687,-6.7687,-6.7687,-6.7687,-6.7687,-6.7247,-6.6843,-6.6512,-6.6035,-6.5044,-6.3392,-6.3319,-6.3172,-6.278,-6.278,-6.278,-6.278,-6.3686,-6.4237,-6.4604,-6.5888,-6.6659,-4.7423,-4.8779,-5.0548,-5.4857,-5.8665,-6.3243,-7.0437,-7.2745,-7.386,-7.5553,-7.3859,-7.1758,-7.0599,-6.9303,-6.8224,-6.7626,-6.8519,-6.9479,-7.0055,-7.011,-7.011,-7.011,-7.011,-7.011,-7.011,-7.011,-7.011,-7.011,-7.0036,-6.9669,-6.8935,-6.9522,-6.9889,-7.0,-7.0697,-7.1468,-7.2275,-7.1578,-7.0807,-6.9963,-6.9265,-6.8862,-6.8825,-6.9633,-7.0036,-7.011,-7.011,-7.011,-7.0073,-7.0,-7.0,-6.9963,-6.9889,-6.9412,-6.8788,-6.8715,-6.8238,-6.7577,-6.7504,-6.699,-6.6256,-6.5448,-6.4714,-6.3943,-6.3062,-6.278,-6.278,-6.278,-6.278,-6.278,-6.278,-6.278,-6.3025,-6.3796,-6.5154,-6.6329,-6.6476,-6.7063,-6.7614,-6.7687,-6.7687,-6.7687,-6.7687,-6.7687,-6.7687,-6.7687,-6.7687,-6.7687,-6.7687,-6.7687,-6.7687,-6.7687,-6.7687,-6.7687,-6.7687,-6.7687,-6.7393,-6.6659,-6.6623,-6.5925,-6.4383,-6.4163,-6.3686,-6.2817,-6.278,-6.2842,-6.289,-6.3796,-6.4604,-6.5448,-6.6219,-6.699,-4.7376,-4.9221,-5.1587,-5.6511,-6.1781,-6.6705,-7.036,-7.186,-7.2976,-7.463,-7.3883,-7.2585,-7.1384,-7.0649,-7.0022,-6.9276,-6.9286,-6.9547,-7.0018,-7.011,-7.011,-7.011,-7.011,-7.011,-7.011,-7.011,-7.011,-7.011,-6.9522,-6.9082,-6.8898,-6.8458,-6.8495,-6.9155,-6.9339,-6.9816,-7.0624,-7.044,-6.9963,-6.9155,-6.8972,-6.8568,-6.7981,-6.8788,-6.9486,-7.011,-7.011,-7.011,-7.0036,-6.9412,-6.9155,-6.9119,-6.8458,-6.8091,-6.7871,-6.7247,-6.6916,-6.6659,-6.6035,-6.5705,-6.5448,-6.4604,-6.4237,-6.3943,-6.3062,-6.278,-6.278,-6.278,-6.278,-6.278,-6.278,-6.278,-6.2879,-6.3062,-6.387,-6.4934,-6.6219,-6.6623,-6.6953,-6.7577,-6.7687,-6.7687,-6.7687,-6.7687,-6.7687,-6.7687,-6.7687,-6.7687,-6.7687,-6.7687,-6.7687,-6.7687,-6.7687,-6.7687,-6.7687,-6.7687,-6.7614,-6.743,-6.743,-6.699,-6.5999,-6.4751,-6.3686,-6.2817,-6.278,-6.3135,-6.3796,-6.464,-6.5448,-6.6256,-6.7063,-6.7504,-4.7174,-4.9912,-5.3318,-5.9204,-6.3935,-6.7552,-6.9321,-7.0052,-7.086,-7.2552,-7.276,-7.2472,-7.1713,-7.0946,-7.0268,-6.9603,-6.9276,-6.9138,-6.9131,-6.9098,-6.9017,-6.8962,-6.8935,-6.8935,-6.8935,-6.8935,-6.8935,-6.8935,-6.8568,-6.8311,-6.8311,-6.7907,-6.8054,-6.8862,-6.8898,-6.9302,-7.0073,-6.9706,-6.9302,-6.8898,-6.8495,-6.8091,-6.7687,-6.8128,-6.8531,-6.8935,-6.8935,-6.8935,-6.8898,-6.8495,-6.8311,-6.8274,-6.7834,-6.7467,-6.7026,-6.6219,-6.5668,-6.5228,-6.4383,-6.4127,-6.4053,-6.3613,-6.3466,-6.3392,-6.2952,-6.278,-6.278,-6.278,-6.278,-6.278,-6.278,-6.278,-6.278,-6.278,-6.3466,-6.442,-6.5668,-6.6219,-6.6733,-6.754,-6.7687,-6.7687,-6.7687,-6.7687,-6.7687,-6.7687,-6.7687,-6.7687,-6.7687,-6.7687,-6.7687,-6.7687,-6.7687,-6.7687,-6.7687,-6.7687,-6.7687,-6.7687,-6.7687,-6.732,-6.6512,-6.5705,-6.4861,-6.3991,-6.4016,-6.4237,-6.4677,-6.5485,-6.6109,-6.6512,-6.732,-6.7687,-4.664,-5.0773,-5.5538,-6.1731,-6.5128,-6.7128,-6.7975,-6.8269,-6.8783,-7.0167,-7.1011,-7.1463,-7.1444,-7.0648,-6.9789,-6.928,-6.9058,-6.8749,-6.8235,-6.8044,-6.7889,-6.7714,-6.7687,-6.7687,-6.7687,-6.7687,-6.7687,-6.7687,-6.7687,-6.7687,-6.7687,-6.7687,-6.8017,-6.8678,-6.8678,-6.9009,-6.9669,-6.9045,-6.8678,-6.8678,-6.8017,-6.7687,-6.7687,-6.7687,-6.7687,-6.7687,-6.7687,-6.7687,-6.7687,-6.7687,-6.7687,-6.7687,-6.7687,-6.7283,-6.6623,-6.5815,-6.5007,-6.4163,-6.3319,-6.2952,-6.278,-6.278,-6.278,-6.278,-6.278,-6.278,-6.278,-6.278,-6.278,-6.278,-6.278,-6.278,-6.278,-6.278,-6.3356,-6.4127,-6.5081,-6.5925,-6.6733,-6.754,-6.7687,-6.7687,-6.7687,-6.7687,-6.7687,-6.7687,-6.7687,-6.7687,-6.7687,-6.7687,-6.7687,-6.7687,-6.7687,-6.7687,-6.7687,-6.7687,-6.7687,-6.7687,-6.7687,-6.7393,-6.6733,-6.6696,-6.6402,-6.5742,-6.5448,-6.5375,-6.5521,-6.6182,-6.6549,-6.6733,-6.7393,-6.7687,-4.5425,-5.194,-5.8454,-6.2346,-6.4705,-6.6282,-6.709,-6.7859,-6.8462,-6.8706,-6.8808,-6.9102,-6.9857,-6.9716,-6.9367,-6.896,-6.9209,-6.9261,-6.8535,-6.8259,-6.8058,-6.7741,-6.7687,-6.7687,-6.7687,-6.7687,-6.7687,-6.7687,-6.7687,-6.7687,-6.7687,-6.7687,-6.7724,-6.7834,-6.7834,-6.7907,-6.8017,-6.7907,-6.7834,-6.7834,-6.7724,-6.7687,-6.7687,-6.7687,-6.7687,-6.7687,-6.7687,-6.7687,-6.7687,-6.7687,-6.7687,-6.7687,-6.7687,-6.7614,-6.743,-6.6623,-6.5815,-6.5044,-6.42,-6.3429,-6.278,-6.278,-6.278,-6.278,-6.278,-6.278,-6.278,-6.278,-6.278,-6.278,-6.278,-6.278,-6.278,-6.278,-6.289,-6.3429,-6.4971,-6.5925,-6.6733,-6.754,-6.7687,-6.7687,-6.7687,-6.7687,-6.7687,-6.7687,-6.7687,-6.7687,-6.7687,-6.7687,-6.7687,-6.7687,-6.7687,-6.7687,-6.7687,-6.7687,-6.7687,-6.7687,-6.7687,-6.7677,-6.754,-6.754,-6.7467,-6.7357,-6.5999,-6.5632,-6.6329,-6.6439,-6.6843,-6.754,-6.7677,-6.7687,-4.6226,-5.2185,-5.7539,-6.1027,-6.3166,-6.4551,-6.4897,-6.5667,-6.6397,-6.6898,-6.7013,-6.7398,-6.8744,-6.9226,-6.9366,-6.9091,-6.9444,-6.9508,-6.881,-6.8477,-6.8185,-6.7767,-6.7687,-6.7687,-6.7687,-6.7687,-6.7687,-6.7687,-6.7687,-6.7687,-6.7687,-6.7687,-6.7687,-6.7687,-6.7687,-6.7687,-6.7687,-6.7247,-6.7026,-6.7026,-6.7026,-6.7247,-6.7687,-6.7687,-6.7687,-6.7687,-6.7687,-6.7687,-6.7687,-6.7687,-6.7687,-6.7687,-6.7687,-6.7687,-6.7577,-6.6806,-6.5999,-6.5191,-6.4383,-6.3539,-6.278,-6.278,-6.278,-6.278,-6.278,-6.278,-6.278,-6.278,-6.278,-6.278,-6.278,-6.278,-6.278,-6.278,-6.3172,-6.387,-6.5044,-6.5595,-6.6219,-6.7467,-6.7687,-6.7687,-6.7687,-6.7687,-6.7687,-6.7687,-6.7687,-6.7687,-6.7687,-6.7687,-6.7687,-6.7687,-6.7687,-6.7687,-6.7687,-6.7687,-6.7687,-6.7687,-6.7687,-6.7687,-6.7687,-6.7687,-6.7687,-6.7687,-6.699,-6.6806,-6.7173,-6.7173,-6.7357,-6.7687,-6.7687,-6.7687,-4.6244,-5.0994,-5.5004,-5.8596,-6.0757,-6.2103,-6.2538,-6.3358,-6.4282,-6.5359,-6.5551,-6.6013,-6.7475,-6.8537,-6.9236,-6.9313,-6.9742,-6.9796,-6.9117,-6.8711,-6.8272,-6.7767,-6.7687,-6.7687,-6.7687,-6.7687,-6.7687,-6.7687,-6.7504,-6.7393,-6.7393,-6.7173,-6.71,-6.71,-6.71,-6.71,-6.71,-6.6476,-6.6219,-6.6219,-6.6402,-6.6806,-6.7393,-6.7614,-6.7687,-6.7687,-6.7687,-6.7687,-6.7687,-6.7687,-6.7687,-6.7687,-6.7687,-6.7687,-6.7614,-6.7026,-6.6182,-6.5228,-6.4604,-6.3723,-6.278,-6.278,-6.278,-6.278,-6.278,-6.278,-6.278,-6.278,-6.278,-6.278,-6.278,-6.278,-6.278,-6.278,-6.3319,-6.4127,-6.5338,-6.5778,-6.6256,-6.7467,-6.7687,-6.7687,-6.7687,-6.7687,-6.7687,-6.7687,-6.7687,-6.7687,-6.7687,-6.7687,-6.7687,-6.7687,-6.7687,-6.7687,-6.7687,-6.7687,-6.7687,-6.7687,-6.7687,-6.7687,-6.7687,-6.7687,-6.7687,-6.7687,-6.7687,-6.7687,-6.7687,-6.7687,-6.7687,-6.7687,-6.7687,-6.7687,-4.4283,-4.7679,-5.1278,-5.4948,-5.7178,-5.8915,-6.0538,-6.1589,-6.2666,-6.432,-6.4666,-6.4936,-6.5859,-6.7359,-6.8731,-6.9538,-7.0072,-7.0123,-6.9373,-6.8988,-6.8528,-6.7794,-6.7687,-6.7687,-6.7687,-6.7687,-6.7687,-6.7687,-6.699,-6.6549,-6.6549,-6.5852,-6.5411,-6.5411,-6.5411,-6.5411,-6.5411,-6.5375,-6.5375,-6.5375,-6.6145,-6.6512,-6.6586,-6.7357,-6.7687,-6.7687,-6.7687,-6.7687,-6.7687,-6.7687,-6.7687,-6.7687,-6.7687,-6.7687,-6.7687,-6.7677,-6.6659,-6.5301,-6.5264,-6.4163,-6.278,-6.278,-6.278,-6.278,-6.278,-6.278,-6.278,-6.278,-6.278,-6.278,-6.278,-6.278,-6.278,-6.278,-6.2817,-6.3539,-6.5925,-6.7026,-6.7577,-6.7677,-6.7687,-6.7687,-6.7687,-6.7687,-6.7687,-6.7687,-6.7687,-6.7687,-6.7687,-6.7687,-6.7687,-6.7687,-6.7687,-6.7687,-6.7687,-6.7687,-6.7687,-6.7687,-6.7687,-6.7687,-6.7687,-6.7687,-6.7687,-6.7687,-6.7687,-6.7687,-6.7687,-6.7687,-6.7687,-6.7687,-6.7687,-6.7687,-4.0678,-4.3907,-4.7403,-5.0547,-5.3123,-5.5313,-5.7104,-5.9011,-6.0742,-6.1935,-6.3012,-6.4051,-6.4897,-6.6436,-6.7667,-6.7975,-6.8484,-6.8641,-6.8035,-6.7622,-6.712,-6.6432,-6.629,-6.625,-6.6145,-6.6145,-6.6145,-6.6145,-6.5888,-6.5742,-6.5742,-6.5485,-6.5301,-6.5301,-6.5301,-6.5044,-6.453,-6.453,-6.453,-6.453,-6.4824,-6.5228,-6.5742,-6.6035,-6.6439,-6.6916,-6.6916,-6.721,-6.7687,-6.7687,-6.7687,-6.7687,-6.7687,-6.7687,-6.7687,-6.7687,-6.6659,-6.5301,-6.5301,-6.42,-6.278,-6.278,-6.278,-6.278,-6.278,-6.278,-6.278,-6.278,-6.278,-6.278,-6.278,-6.278,-6.278,-6.278,-6.3624,-6.4677,-6.5558,-6.6769,-6.7687,-6.7687,-6.7687,-6.7687,-6.7687,-6.7687,-6.7687,-6.7687,-6.7687,-6.7687,-6.7687,-6.7687,-6.7687,-6.7687,-6.7687,-6.7687,-6.7687,-6.7687,-6.7687,-6.7687,-6.7687,-6.7687,-6.7687,-6.7687,-6.7687,-6.7687,-6.7687,-6.7687,-6.7687,-6.7687,-6.7687,-6.7687,-6.7687,-6.7687,-3.7975,-4.0815,-4.3869,-4.618,-4.8972,-5.1561,-5.3125,-5.5642,-5.8088,-5.9521,-6.1184,-6.2733,-6.3873,-6.5013,-6.6064,-6.6974,-6.739,-6.7584,-6.7341,-6.7013,-6.6507,-6.5824,-6.5657,-6.5494,-6.5301,-6.5301,-6.5301,-6.5301,-6.5044,-6.4897,-6.4897,-6.464,-6.4457,-6.4457,-6.4457,-6.42,-6.3686,-6.3649,-6.3649,-6.3686,-6.3943,-6.4383,-6.4897,-6.5191,-6.5595,-6.6109,-6.6366,-6.6953,-6.7687,-6.7687,-6.7687,-6.7687,-6.7687,-6.7687,-6.7687,-6.7687,-6.6843,-6.5668,-6.5411,-6.4383,-6.3209,-6.2915,-6.278,-6.278,-6.278,-6.278,-6.278,-6.278,-6.278,-6.278,-6.278,-6.278,-6.278,-6.278,-6.387,-6.4971,-6.5264,-6.6549,-6.7687,-6.7687,-6.7687,-6.7687,-6.7687,-6.7687,-6.7687,-6.7687,-6.7687,-6.7687,-6.7687,-6.7687,-6.7687,-6.7687,-6.7687,-6.7687,-6.7687,-6.7687,-6.7687,-6.7687,-6.7687,-6.7687,-6.7687,-6.7687,-6.7687,-6.7687,-6.7687,-6.7687,-6.7687,-6.7687,-6.7687,-6.7687,-6.7687,-6.7687,0.0,0.0,0.0,-4.1891,-4.4759,-4.755,-4.8678,-5.1529,-5.4613,-5.7187,-5.9113,-6.0851,-6.2604,-6.3015,-6.3937,-6.6513,-6.6842,-6.6963,-6.7442,-6.7235,-6.6741,-6.6045,-6.5798,-6.5583,-6.5254,-6.5228,-6.5228,-6.5228,-6.4494,-6.4053,-6.4053,-6.3282,-6.278,-6.278,-6.278,-6.278,-6.278,-6.278,-6.278,-6.278,-6.3649,-6.4053,-6.409,-6.4861,-6.5264,-6.5301,-6.6109,-6.688,-6.765,-6.7687,-6.7687,-6.7687,-6.7687,-6.7687,-6.7687,-6.7687,-6.7173,-6.6366,-6.5595,-6.4787,-6.3943,-6.3099,-6.278,-6.278,-6.278,-6.278,-6.278,-6.278,-6.278,-6.278,-6.278,-6.278,-6.278,-6.278,-6.3466,-6.431,-6.5154,-6.6549,-6.765,-6.7687,-6.7687,-6.7687,-6.7687,-6.7687,-6.7687,-6.7687,-6.7687,-6.7687,-6.7687,-6.7687,-6.7687,-6.7687,-6.7687,-6.7687,-6.7687,-6.7687,-6.7687,-6.7687,-6.7687,-6.7687,-6.7687,-6.7687,-6.7687,-6.7687,-6.7687,-6.7687,-6.7687,-6.7687,-6.7687,-6.7687,-6.7687,-6.7687,-3.5225,0.0,0.0,0.0,0.0,0.0,-4.4545,-4.7163,-4.9973,-5.3058,-5.5171,-5.701,-5.8776,-5.9791,-6.0802,-6.2296,-6.3975,-6.5063,-6.5016,-6.5096,-6.4988,-6.4405,-6.4119,-6.3824,-6.3528,-6.3477,-6.3477,-6.3477,-6.3282,-6.3172,-6.3172,-6.2952,-6.278,-6.278,-6.278,-6.278,-6.278,-6.278,-6.278,-6.278,-6.3062,-6.3172,-6.3172,-6.3392,-6.3833,-6.442,-6.4677,-6.5558,-6.688,-6.7467,-6.7687,-6.7687,-6.7687,-6.7687,-6.7687,-6.7687,-6.7173,-6.6366,-6.5595,-6.4787,-6.3943,-6.3099,-6.278,-6.278,-6.278,-6.278,-6.278,-6.278,-6.278,-6.278,-6.278,-6.278,-6.278,-6.278,-6.3466,-6.431,-6.5154,-6.6109,-6.699,-6.7577,-6.7687,-6.7687,-6.7687,-6.7687,-6.7687,-6.7687,-6.7687,-6.7687,-6.7687,-6.7687,-6.7687,-6.7687,-6.7687,-6.7687,-6.7687,-6.7687,-6.7687,-6.7687,-6.7687,-6.7687,-6.7687,-6.7687,-6.7687,-6.7687,-6.7687,-6.7687,-6.7687,-6.7687,-6.7687,-6.7687,-6.7687,-6.7687,-3.5422,-3.5873,-3.6431,-3.7214,0.0,0.0,-4.0967,-4.3466,-4.6218,-4.8828,-5.111,-5.32,-5.5057,-5.6238,-5.7175,-5.7887,-5.997,-6.2075,-6.3703,-6.4296,-6.433,-6.3733,-6.3414,-6.3147,-6.283,-6.278,-6.278,-6.278,-6.278,-6.278,-6.278,-6.278,-6.278,-6.278,-6.278,-6.278,-6.278,-6.278,-6.278,-6.278,-6.278,-6.278,-6.278,-6.278,-6.3099,-6.3576,-6.3943,-6.464,-6.5595,-6.6733,-6.7393,-6.7687,-6.7687,-6.7687,-6.7687,-6.7687,-6.7393,-6.688,-6.6072,-6.5485,-6.4971,-6.4127,-6.3844,-6.3844,-6.3844,-6.3613,-6.3356,-6.3356,-6.3356,-6.3282,-6.289,-6.3062,-6.3246,-6.289,-6.3209,-6.387,-6.5044,-6.5668,-6.6329,-6.7467,-6.7687,-6.7687,-6.7687,-6.7687,-6.7687,-6.7687,-6.7687,-6.7687,-6.7687,-6.7687,-6.7687,-6.7687,-6.7981,-6.8054,-6.7724,-6.8017,-6.8054,-6.7724,-6.7687,-6.7687,-6.7687,-6.7687,-6.7687,-6.7687,-6.7687,-6.7687,-6.7687,-6.7687,-6.7687,-6.7687,-6.7687,-6.7687,-3.667,-3.7132,-3.7477,-3.6939,-3.7738,0.0,-3.8027,-4.0208,-4.2838,-4.464,-4.7012,-4.9348,-5.129,-5.2485,-5.3259,-5.3455,-5.5483,-5.8464,-6.262,-6.3731,-6.3935,-6.3376,-6.32,-6.2973,-6.2683,-6.2695,-6.267,-6.278,-6.2707,-6.2732,-6.278,-6.2732,-6.2732,-6.278,-6.278,-6.278,-6.278,-6.278,-6.278,-6.278,-6.278,-6.278,-6.278,-6.278,-6.278,-6.2842,-6.3613,-6.4016,-6.42,-6.5742,-6.6843,-6.7577,-6.765,-6.7687,-6.7687,-6.7687,-6.7687,-6.7577,-6.6769,-6.6512,-6.6366,-6.5558,-6.5301,-6.5301,-6.5301,-6.4787,-6.4237,-6.4237,-6.4237,-6.4053,-6.3282,-6.3576,-6.3906,-6.3246,-6.3025,-6.3429,-6.5081,-6.5448,-6.5888,-6.7393,-6.7687,-6.7687,-6.7687,-6.7687,-6.7687,-6.7687,-6.7687,-6.7687,-6.7687,-6.7687,-6.7687,-6.7687,-6.8348,-6.8495,-6.776,-6.8348,-6.8458,-6.7724,-6.7687,-6.7687,-6.7687,-6.7687,-6.7687,-6.7687,-6.7687,-6.7687,-6.7687,-6.7687,-6.7687,-6.7687,-6.7687,-6.7687,-3.9019,-3.8374,-3.7632,-3.8162,-3.7036,0.0,-3.6519,-3.7173,-3.8464,-4.1362,-4.3013,-4.4718,-4.7236,-4.8536,-4.9306,-4.954,-5.2105,-5.5303,-5.8927,-6.0396,-6.1154,-6.1403,-6.1246,-6.1332,-6.1802,-6.1814,-6.2108,-6.2743,-6.2218,-6.2108,-6.2743,-6.2181,-6.2144,-6.278,-6.278,-6.278,-6.278,-6.278,-6.278,-6.278,-6.278,-6.278,-6.278,-6.278,-6.278,-6.278,-6.2989,-6.3466,-6.4163,-6.5154,-6.5999,-6.6806,-6.743,-6.7687,-6.7687,-6.7687,-6.7687,-6.7577,-6.6769,-6.6512,-6.6366,-6.5558,-6.5301,-6.5301,-6.5301,-6.5191,-6.5081,-6.5081,-6.5081,-6.5044,-6.4861,-6.4457,-6.42,-6.4714,-6.431,-6.4273,-6.5925,-6.6256,-6.6549,-6.7504,-6.7687,-6.7687,-6.7687,-6.7687,-6.7687,-6.7687,-6.7687,-6.7687,-6.7687,-6.7687,-6.7687,-6.7687,-6.7834,-6.7871,-6.7687,-6.7834,-6.7871,-6.7714,-6.7687,-6.7687,-6.7687,-6.7687,-6.7687,-6.7687,-6.7687,-6.7687,-6.7687,-6.7687,-6.7687,-6.7687,-6.7687,-6.7687,-4.0377,-3.9606,-3.8704,-3.8689,-3.7477,0.0,0.0,-3.6303,-3.7382,-3.8982,-4.0357,-4.1856,-4.3683,-4.4797,-4.5521,-4.5735,-4.8048,-5.0712,-5.3219,-5.6892,-5.9701,-6.0526,-6.0572,-6.0785,-6.1545,-6.1594,-6.1777,-6.2181,-6.1814,-6.1777,-6.2181,-6.1814,-6.1961,-6.2743,-6.278,-6.278,-6.278,-6.278,-6.278,-6.278,-6.278,-6.278,-6.278,-6.278,-6.278,-6.278,-6.278,-6.3062,-6.3539,-6.4787,-6.5558,-6.6035,-6.721,-6.7687,-6.7687,-6.7687,-6.7687,-6.7614,-6.7247,-6.71,-6.7026,-6.6623,-6.6512,-6.6512,-6.6512,-6.6219,-6.5815,-6.5411,-6.5595,-6.5815,-6.5411,-6.5301,-6.5301,-6.5301,-6.5007,-6.5044,-6.6256,-6.6512,-6.6733,-6.754,-6.7687,-6.7687,-6.7687,-6.7687,-6.7687,-6.7687,-6.7687,-6.7687,-6.7687,-6.7687,-6.7687,-6.7687,-6.8054,-6.8128,-6.7724,-6.8054,-6.8128,-6.7724,-6.7687,-6.7687,-6.7687,-6.7687,-6.7687,-6.7687,-6.7687,-6.7687,-6.7687,-6.7687,-6.7687,-6.7687,-6.7687,-6.7687,-4.1552,-4.0965,-4.0157,-3.935,-3.8432,-3.7331,0.0,0.0,0.0,-3.7456,-3.8581,-3.9813,-4.071,-4.1519,-4.2054,-4.2164,-4.4017,-4.5968,-4.7512,-5.2507,-5.6805,-5.8754,-5.9171,-5.9575,-6.0346,-6.0566,-6.075,-6.0896,-6.075,-6.0823,-6.1117,-6.1263,-6.1741,-6.2548,-6.2707,-6.278,-6.278,-6.278,-6.278,-6.278,-6.278,-6.278,-6.278,-6.278,-6.278,-6.278,-6.278,-6.278,-6.2927,-6.4604,-6.5301,-6.5485,-6.7063,-6.7687,-6.7687,-6.7687,-6.7687,-6.7687,-6.7687,-6.7687,-6.7687,-6.7687,-6.7687,-6.7687,-6.7687,-6.7247,-6.6586,-6.5925,-6.6219,-6.6586,-6.5925,-6.6145,-6.6366,-6.5888,-6.5632,-6.5742,-6.6549,-6.6733,-6.6916,-6.7577,-6.7687,-6.7687,-6.7687,-6.7687,-6.7687,-6.7687,-6.7687,-6.7687,-6.7687,-6.7687,-6.7687,-6.7687,-6.8274,-6.8421,-6.7787,-6.8311,-6.8385,-6.7724,-6.7687,-6.7687,-6.7687,-6.7687,-6.7687,-6.7687,-6.7687,-6.7687,-6.7687,-6.7687,-6.7687,-6.7687,-6.7687,-6.7687,-4.3204,-4.2653,-4.1846,-4.1022,-3.968,-3.8322,-3.7419,0.0,-3.6648,-3.7345,0.0,-3.8021,-3.8882,0.0,0.0,-3.9185,-4.0604,-4.2279,-4.388,-4.5956,-4.8969,-5.3482,-5.4656,-5.539,-5.622,-5.6932,-5.7629,-5.8364,-5.774,-5.7997,-5.9404,-6.0162,-6.0896,-6.1704,-6.2438,-6.278,-6.278,-6.278,-6.278,-6.278,-6.278,-6.278,-6.278,-6.278,-6.278,-6.278,-6.278,-6.278,-6.2927,-6.4604,-6.5301,-6.5485,-6.7063,-6.7687,-6.7687,-6.7687,-6.7687,-6.7687,-6.7687,-6.7687,-6.7687,-6.7687,-6.7687,-6.7687,-6.7687,-6.7614,-6.754,-6.743,-6.7467,-6.754,-6.743,-6.6953,-6.6659,-6.7283,-6.688,-6.6586,-6.7393,-6.754,-6.7577,-6.7677,-6.7687,-6.7687,-6.7687,-6.7687,-6.7687,-6.7687,-6.7687,-6.7687,-6.7687,-6.7687,-6.7687,-6.7687,-6.776,-6.7797,-6.7714,-6.776,-6.7797,-6.7714,-6.7687,-6.7687,-6.7687,-6.7687,-6.7687,-6.7687,-6.7687,-6.7687,-6.7687,-6.7687,-6.7687,-6.7687,-6.7687,-6.7687,-4.4305,-4.3608,-4.269,-4.1425,-4.023,-3.9056,-3.7786,-3.7603,-3.7661,-3.7529,0.0,0.0,0.0,0.0,0.0,0.0,-3.9643,-4.0634,-4.1311,-4.28,-4.5443,-4.9848,-5.1096,-5.2087,-5.3371,-5.4252,-5.4876,-5.5207,-5.5317,-5.6124,-5.7717,-5.9001,-6.0309,-6.1557,-6.1924,-6.2328,-6.278,-6.278,-6.278,-6.278,-6.278,-6.278,-6.278,-6.278,-6.278,-6.278,-6.278,-6.278,-6.289,-6.4127,-6.4604,-6.4751,-6.6366,-6.7283,-6.7687,-6.7687,-6.7687,-6.7687,-6.7687,-6.7687,-6.7687,-6.7687,-6.7687,-6.7687,-6.7687,-6.7687,-6.7687,-6.7687,-6.7687,-6.7687,-6.7687,-6.743,-6.7283,-6.7614,-6.743,-6.7283,-6.7614,-6.7687,-6.7687,-6.7687,-6.7687,-6.7687,-6.7687,-6.7687,-6.7687,-6.7687,-6.7687,-6.7687,-6.7687,-6.7687,-6.7687,-6.7687,-6.7687,-6.7687,-6.7687,-6.7687,-6.7687,-6.7687,-6.7687,-6.7687,-6.7687,-6.7687,-6.7687,-6.7687,-6.7687,-6.7687,-6.7687,-6.7687,-6.7687,-6.7687,-6.7687,-6.7687,-4.5498,-4.4599,-4.3424,-4.1846,-4.0818,-3.979,-3.819,-3.8285,-3.8615,-3.8227,-3.9108,0.0,0.0,0.0,-3.9643,-3.8836,0.0,-3.9255,-3.9255,-4.0047,-4.2139,-4.6177,-4.7609,-4.8893,-5.0508,-5.0986,-5.1389,-5.183,-5.2601,-5.3775,-5.539,-5.7666,-5.9428,-6.0566,-6.1263,-6.1887,-6.2475,-6.2695,-6.278,-6.278,-6.278,-6.278,-6.278,-6.278,-6.278,-6.278,-6.278,-6.278,-6.2879,-6.3723,-6.409,-6.4237,-6.5852,-6.6843,-6.7393,-6.7614,-6.7687,-6.7687,-6.7687,-6.7687,-6.7687,-6.7687,-6.7687,-6.7687,-6.7687,-6.7687,-6.7687,-6.7687,-6.7687,-6.7687,-6.7687,-6.7687,-6.7687,-6.7687,-6.7687,-6.7687,-6.7687,-6.7687,-6.7687,-6.7687,-6.7687,-6.7687,-6.7687,-6.7687,-6.7687,-6.7687,-6.7687,-6.7687,-6.7687,-6.7687,-6.7687,-6.7687,-6.7687,-6.7687,-6.7687,-6.7687,-6.7687,-6.7687,-6.7687,-6.7687,-6.7687,-6.7687,-6.7687,-6.7687,-6.7687,-6.7687,-6.7687,-6.7687,-6.7687,-6.7687,-6.7687,-6.7687,-4.7039,-4.5865,-4.4305,-4.2653,-4.1662,-4.0618,-3.9019,-3.8689,-3.8909,-3.968,-3.9863,-4.012,-4.0912,-4.0414,-3.9643,-3.8836,-3.808,0.0,0.0,-3.6942,-3.7991,-4.2029,-4.3901,-4.5498,-4.7113,-4.6581,-4.6764,-4.8343,-4.9187,-5.0398,-5.205,-5.5904,-5.807,-5.8107,-6.0382,-6.1594,-6.163,-6.2401,-6.278,-6.278,-6.278,-6.278,-6.278,-6.278,-6.278,-6.278,-6.278,-6.278,-6.2879,-6.3723,-6.409,-6.4237,-6.5852,-6.6512,-6.6623,-6.7393,-6.7687,-6.7687,-6.7687,-6.7687,-6.7687,-6.7687,-6.7687,-6.7687,-6.7687,-6.7687,-6.7687,-6.7687,-6.7687,-6.7687,-6.7687,-6.7687,-6.7687,-6.7687,-6.7687,-6.7687,-6.7687,-6.7687,-6.7687,-6.7687,-6.7687,-6.7687,-6.7687,-6.7687,-6.7687,-6.7687,-6.7687,-6.7687,-6.7687,-6.7687,-6.7687,-6.7687,-6.7687,-6.7687,-6.7687,-6.7687,-6.7687,-6.7687,-6.7687,-6.7687,-6.7687,-6.7687,-6.7687,-6.7687,-6.7687,-6.7687,-6.7687,-6.7687,-6.7687,-6.7687,-6.7687,-6.7687,-4.7223,-4.6709,-4.5755,-4.3644,-4.2873,-4.2286,-4.0671,-4.0288,-4.0524,-4.1332,-4.1919,-4.2506,-4.3333,-4.2837,-4.1679,-3.979,-3.8799,-3.7734,0.0,-3.5591,-3.6376,-3.8836,-4.1001,-4.2746,-4.3828,-4.4158,-4.4745,-4.5847,-4.6654,-4.8306,-5.1059,-5.3995,-5.6345,-5.796,-5.9832,-6.1043,-6.1594,-6.2401,-6.278,-6.278,-6.278,-6.278,-6.278,-6.278,-6.278,-6.278,-6.278,-6.278,-6.2817,-6.3135,-6.3246,-6.3392,-6.5081,-6.5705,-6.5888,-6.721,-6.7687,-6.7687,-6.7687,-6.7687,-6.7687,-6.7687,-6.7687,-6.7687,-6.7687,-6.7687,-6.7687,-6.7687,-6.7687,-6.7687,-6.7687,-6.7687,-6.7687,-6.7687,-6.7687,-6.7687,-6.7687,-6.7687,-6.7687,-6.7687,-6.7687,-6.7687,-6.7687,-6.7687,-6.7687,-6.7687,-6.7687,-6.7687,-6.7687,-6.7687,-6.7687,-6.7687,-6.7687,-6.7687,-6.7687,-6.7687,-6.7687,-6.7687,-6.7687,-6.7687,-6.7687,-6.7687,-6.7687,-6.7687,-6.7687,-6.7687,-6.7687,-6.7687,-6.7687,-6.7687,-6.7687,-6.7687,-4.8122,-4.7553,-4.6709,-4.5186,-4.4342,-4.3571,-4.2249,-4.1956,-4.2103,-4.2616,-4.3351,-4.4158,-4.4966,-4.4232,-4.2817,-4.0671,-3.9166,-3.7404,0.0,-3.5078,-3.5738,-3.6523,-3.8505,-4.0267,-4.1332,-4.2176,-4.2873,-4.337,-4.4415,-4.6214,-4.893,-5.1903,-5.4509,-5.6638,-5.9098,-6.0639,-6.1153,-6.2254,-6.278,-6.278,-6.278,-6.278,-6.278,-6.278,-6.278,-6.278,-6.278,-6.278,-6.278,-6.278,-6.2989,-6.3392,-6.4787,-6.5485,-6.5888,-6.721,-6.7687,-6.7687,-6.7687,-6.7687,-6.7687,-6.7687,-6.7687,-6.7687,-6.7687,-6.7687,-6.7687,-6.7687,-6.7687,-6.7687,-6.7687,-6.7687,-6.7687,-6.7687,-6.7687,-6.7687,-6.7687,-6.7687,-6.7687,-6.7687,-6.7687,-6.7687,-6.7687,-6.7687,-6.7687,-6.7687,-6.7687,-6.7687,-6.7687,-6.7687,-6.7687,-6.7687,-6.7687,-6.7687,-6.7687,-6.7687,-6.7687,-6.7687,-6.7687,-6.7687,-6.7687,-6.7687,-6.7687,-6.7687,-6.7687,-6.7687,-6.7687,-6.7687,-6.7687,-6.7687,-6.7687,-6.7687]},{"header":{"parameterUnit":"m.s-1","parameterCategory":1,"la1":30.6,"la2":29.2853,"lo1":-89.7004,"lo2":-87.6739,"dy":0.0162,"dx":0.0183,"nx":112,"ny":82,"refTime":"2026-04-19T00:00:00:Z","depth":0,"parameterNumber":3,"parameterNumberName":"V-component_of_WINDS"},"data":[0.0,0.0,0.0,0.0,0.0,0.0,0.0,0.0,0.0,0.0,0.0,0.0,0.0,0.0,0.0,0.0,0.0,0.0,0.0,0.0,0.0,0.0,0.0,0.0,0.0,0.0,0.0,0.0,0.0,0.0,0.0,0.0,0.0,0.0,0.0,0.0,0.0,0.0,0.0,0.0,0.0,0.0,0.0,0.0,0.0,0.0,0.0,0.0,0.0,0.0,0.0,0.0,0.0,0.0,0.0,0.0,0.0,0.0,0.0,0.0,0.0,0.0,0.0,0.0,0.0,0.0,0.0,0.0,0.0,0.0,0.0,0.0,0.0,0.0,0.0,0.0,0.0,0.0,0.0,0.0,0.0,0.0,0.0,0.0,0.0,0.0,0.0,0.0,0.0,0.0,1.012,1.128,1.2847,1.3634,1.3207,1.2779,1.1925,1.0473,0.0,0.0,0.0,0.0,0.0,0.0,0.0,0.0,0.0,0.0,0.0,0.0,0.0,0.0,0.0,0.0,0.0,0.0,0.0,0.0,0.0,0.0,0.0,0.0,0.0,0.0,0.0,0.0,0.0,0.0,0.0,0.0,0.0,0.0,0.0,0.0,0.0,0.0,0.0,0.0,0.0,0.0,0.0,0.0,0.0,0.0,0.0,0.0,0.0,0.0,0.0,0.0,0.0,0.0,0.0,0.0,0.0,0.0,0.0,0.0,0.0,0.0,0.0,0.0,0.0,0.0,0.0,0.0,0.0,0.0,0.0,0.0,0.0,0.0,0.0,0.0,0.0,0.0,0.0,0.0,0.0,0.0,0.0,0.0,0.0,0.0,0.0,0.0,0.0,0.0,0.0,0.0,0.0,0.0,0.0,0.0,0.0,0.0,0.0,0.0,0.0,0.0,0.0,0.0,1.0563,1.2311,1.3193,1.3532,1.32,1.2881,1.2169,1.086,0.0,0.0,0.0,0.0,0.0,0.0,0.0,0.0,0.0,0.0,0.0,0.0,0.0,0.0,0.0,0.0,0.0,0.0,0.0,0.0,0.0,0.0,0.0,0.0,0.0,0.0,0.0,0.0,0.0,0.0,0.0,0.0,0.0,0.0,0.0,0.0,0.0,0.0,0.0,0.0,0.0,0.0,0.0,0.0,0.0,0.0,0.0,0.0,0.0,0.0,0.0,0.0,0.0,0.0,0.0,0.0,0.0,0.0,0.0,0.0,0.0,0.0,0.0,0.0,0.0,0.0,0.0,0.0,0.0,0.0,0.0,0.0,0.0,0.0,0.0,0.0,0.0,0.0,0.0,0.0,0.0,0.0,0.0,0.0,0.0,0.0,0.0,0.0,0.0,0.0,0.0,0.0,0.0,0.0,0.0,0.0,0.0,0.0,0.0,0.0,0.0,0.0,0.0,1.0331,1.1484,1.2725,1.3322,1.3471,1.3091,1.2712,1.1945,1.067,0.9551,0.0,0.0,0.0,0.0,0.0,0.0,0.0,0.0,0.0,0.0,0.0,0.0,0.0,0.0,0.0,0.0,0.0,0.0,0.0,0.0,0.0,0.0,0.0,0.0,0.0,0.0,0.0,0.0,0.0,0.0,0.0,0.0,0.0,0.0,0.0,0.0,0.0,0.0,0.0,0.0,0.0,0.0,0.0,0.0,0.0,0.0,0.0,0.0,0.0,0.0,0.0,0.0,0.0,0.0,0.0,0.0,0.0,0.0,0.0,0.0,0.0,0.0,0.0,0.0,0.0,0.0,0.0,0.0,0.0,0.0,0.0,0.0,0.0,0.0,0.0,0.0,0.0,0.0,0.0,0.0,0.0,0.0,0.0,0.0,0.0,0.0,0.0,0.0,0.0,0.0,0.0,0.0,0.0,0.0,0.0,0.0,0.0,0.0,0.0,0.0,0.0,0.0,1.126,1.2162,1.2881,1.3329,1.3376,1.2895,1.244,1.1619,1.031,0.9381,0.0,0.0,0.0,0.0,0.0,0.0,0.0,0.0,0.0,0.0,0.0,0.0,0.0,0.0,0.0,0.0,0.0,0.0,0.0,0.0,0.0,0.0,0.0,0.0,0.0,0.0,0.0,0.0,0.0,0.0,0.0,0.0,0.0,0.0,0.0,0.0,0.0,0.0,0.0,0.0,0.0,0.0,0.0,0.0,0.0,0.0,0.0,0.0,0.0,0.0,0.0,0.0,0.0,0.0,0.0,0.0,0.0,0.0,0.0,0.0,0.0,0.0,0.0,0.0,0.0,0.0,0.0,0.0,0.0,0.0,0.0,0.0,0.0,0.0,0.0,0.0,0.0,0.0,0.0,0.0,0.0,0.0,0.0,0.0,0.0,0.0,0.0,0.0,0.0,0.0,0.0,0.0,0.0,0.0,0.0,0.0,0.0,0.0,0.0,0.0,0.0,0.0,1.1484,1.2353,1.2895,1.3234,1.318,1.2583,1.2121,1.1348,1.0078,0.9225,0.0,0.0,0.0,0.0,0.0,0.0,0.0,0.0,0.0,0.0,0.0,0.0,0.0,0.0,0.0,0.0,0.0,0.0,0.0,0.0,0.0,0.0,0.0,0.0,0.0,0.0,0.0,0.0,0.0,0.0,0.0,0.0,0.0,0.0,0.0,0.0,0.0,0.0,0.0,0.0,0.0,0.0,0.0,0.0,0.0,0.0,0.0,0.0,0.0,0.0,0.0,0.0,0.0,0.0,0.0,0.0,0.0,0.0,0.0,0.0,0.0,0.0,0.0,0.0,0.0,0.0,0.0,0.0,0.0,0.0,0.0,0.0,0.0,0.0,0.0,0.0,0.0,0.0,0.0,0.0,0.0,0.0,0.0,0.0,0.0,0.0,0.0,0.0,0.0,0.0,0.0,0.0,0.0,0.0,0.0,0.0,0.0,0.0,0.0,0.0,0.0,0.0,1.1729,1.24,1.2908,1.3227,1.3119,1.2427,1.187,1.105,0.9849,0.0,0.0,0.0,0.0,0.0,0.0,0.0,0.0,0.0,0.0,0.0,0.0,0.0,0.0,0.0,0.0,0.0,0.0,0.0,0.0,0.0,0.0,0.0,0.0,0.0,0.0,0.0,0.0,0.0,0.0,0.0,0.0,0.0,0.0,0.0,0.0,0.0,0.0,0.0,0.0,0.0,0.0,0.0,0.0,0.0,0.0,0.0,0.0,0.0,0.0,0.0,0.0,0.0,0.0,0.0,0.0,0.0,0.0,0.0,0.0,0.0,0.0,0.0,0.0,0.0,0.0,0.0,0.0,0.0,0.0,0.0,0.0,0.0,0.0,0.0,0.0,0.0,0.0,0.0,0.0,0.0,0.0,0.0,0.0,0.0,0.0,0.0,0.0,0.0,0.0,0.0,0.0,0.0,0.0,0.0,0.0,0.0,0.0,0.0,0.0,0.0,0.0,1.1214,1.1928,1.2461,1.2915,1.318,1.3044,1.2352,1.1653,1.0758,0.9612,0.0,0.0,0.0,0.0,0.0,0.0,0.0,0.0,0.0,0.0,0.0,0.0,0.0,0.0,0.0,0.0,0.0,0.0,0.0,0.0,0.0,0.0,0.0,0.0,0.0,0.0,0.0,0.0,0.0,0.0,0.0,0.0,0.0,0.0,0.0,0.0,0.0,0.0,0.0,0.0,0.0,0.0,0.0,0.0,0.0,0.0,0.0,0.0,0.0,0.0,0.0,0.0,0.0,0.0,0.0,0.0,0.0,0.0,0.0,0.0,0.0,0.0,0.0,0.0,0.0,0.0,0.0,0.0,0.0,0.0,0.0,0.0,0.0,0.0,0.0,0.0,0.0,0.0,0.0,0.0,0.0,0.0,0.0,0.0,0.0,0.0,0.0,0.0,0.0,0.0,0.0,0.0,0.0,0.0,0.0,0.0,0.0,0.0,0.0,0.0,0.0,0.0,1.154,1.2,1.2461,1.2995,1.3172,1.2935,1.2338,1.147,1.0507,0.0,0.0,0.0,0.0,0.0,0.0,0.0,0.0,0.0,0.0,0.0,0.0,0.0,0.0,0.0,0.0,0.0,0.0,0.0,0.0,0.0,0.0,0.0,0.0,0.0,0.0,0.0,0.0,0.0,0.0,0.0,0.0,0.0,0.0,0.0,0.0,0.0,0.0,0.0,0.0,0.0,0.0,0.0,0.0,0.0,0.0,0.0,0.0,0.0,0.0,0.0,0.0,0.0,0.0,0.0,0.0,0.0,0.0,0.0,0.0,0.0,0.0,0.0,0.0,0.0,0.0,0.0,0.0,0.0,0.0,0.0,0.0,0.0,0.0,0.0,0.0,0.0,0.0,0.0,0.0,0.0,0.0,0.0,0.0,0.0,0.0,0.0,0.0,0.0,0.0,0.0,0.0,0.0,0.0,0.0,0.0,0.0,0.0,0.0,0.0,0.0,0.0,0.0,1.2515,1.3096,1.3494,1.3793,1.4048,1.388,1.317,1.2446,1.1481,1.0477,0.0,0.0,0.0,0.0,0.0,0.0,0.0,0.0,0.0,0.0,0.0,0.0,0.0,0.0,0.0,0.0,0.0,0.0,0.0,0.0,0.0,0.0,0.0,0.0,0.0,0.0,0.0,0.0,0.0,0.0,0.0,0.0,0.0,0.0,0.0,0.0,0.0,0.0,0.0,0.0,0.0,0.0,0.0,0.0,0.0,0.0,0.0,0.0,0.0,0.0,0.0,0.0,0.0,0.0,0.0,0.0,0.0,0.0,0.0,0.0,0.0,0.0,0.0,0.0,0.0,0.0,0.0,0.0,0.0,0.0,0.0,0.0,0.0,0.0,0.0,0.0,0.0,0.0,0.0,0.0,0.0,0.0,0.0,0.0,0.0,0.0,0.0,0.0,0.0,0.0,0.0,0.0,0.0,0.0,0.0,0.0,0.0,0.0,0.0,0.0,0.0,0.0,1.3191,1.3961,1.4491,1.4704,1.4884,1.4861,1.4381,1.3631,1.2746,1.1673,0.0,0.0,0.0,0.0,0.0,0.0,0.0,0.0,0.0,0.0,0.0,0.0,0.0,0.0,0.0,0.0,0.0,0.0,0.0,0.0,0.0,0.0,0.0,0.0,0.0,0.0,0.0,0.0,0.0,0.0,0.0,0.0,0.0,0.0,0.0,0.0,0.0,0.0,0.0,0.0,0.0,0.0,0.0,0.0,0.0,0.0,0.0,0.0,0.0,0.0,0.0,0.0,0.0,0.0,0.0,0.0,0.0,0.0,0.0,0.0,0.0,0.0,0.0,0.0,0.0,0.0,0.0,0.0,0.0,0.0,0.0,0.0,0.0,0.0,0.0,0.0,0.0,0.0,0.0,0.0,0.0,0.0,0.0,0.0,0.0,0.0,0.0,0.0,0.0,0.0,0.0,0.0,0.0,0.0,0.0,0.0,0.0,0.0,0.0,0.0,0.0,0.0,1.3852,1.4894,1.5546,1.5786,1.5958,1.5992,1.5888,1.5108,1.4199,1.3164,0.0,0.0,0.0,0.0,0.0,0.0,0.0,0.0,0.0,0.0,0.0,0.0,0.0,0.0,0.0,0.0,0.0,0.0,0.0,0.0,0.0,0.0,0.0,0.0,0.0,0.0,0.0,0.0,0.0,0.0,0.0,0.0,0.0,0.0,0.0,0.0,0.0,0.0,0.0,0.0,0.0,0.0,0.0,0.0,0.0,0.0,0.0,0.0,0.0,0.0,0.0,0.0,0.0,0.0,0.0,0.0,0.0,0.0,0.0,0.0,1.8196,1.7261,0.0,0.0,0.0,0.0,0.0,0.0,0.0,0.0,0.0,0.0,0.0,0.0,0.0,0.0,0.0,0.0,0.0,0.0,0.0,0.0,0.0,0.0,0.0,0.0,0.0,0.0,0.0,0.0,0.0,0.0,0.0,0.0,0.0,0.0,0.0,0.0,0.0,0.0,0.0,0.0,1.5586,1.653,1.7279,1.7815,1.7798,1.7846,1.7949,1.6994,1.6063,1.543,1.4063,0.0,0.0,0.0,0.0,0.0,0.0,0.0,0.0,0.0,0.0,0.0,0.0,0.0,0.0,0.0,0.0,0.0,0.0,0.0,0.0,0.0,0.0,0.0,0.0,0.0,0.0,0.0,0.0,0.0,0.0,0.0,0.0,0.0,0.0,0.0,0.0,0.0,0.0,0.0,0.0,0.0,0.0,0.0,0.0,0.0,0.0,0.0,0.0,0.0,0.0,0.0,0.0,0.0,0.0,0.0,0.0,0.0,0.0,0.0,2.0241,1.9105,0.0,0.0,0.0,0.0,0.0,0.0,0.0,0.0,0.0,0.0,0.0,0.0,0.0,0.0,0.0,0.0,0.0,0.0,0.0,0.0,0.0,0.0,0.0,0.0,0.0,0.0,0.0,0.0,0.0,0.0,0.0,0.0,0.0,0.0,0.0,0.0,0.0,0.0,0.0,0.0,1.6575,1.8045,1.9141,1.9593,1.9779,1.993,2.0059,1.9262,1.8385,1.7664,1.6302,0.0,0.0,0.0,0.0,0.0,0.0,0.0,0.0,0.0,0.0,0.0,0.0,0.0,0.0,0.0,0.0,0.0,0.0,0.0,0.0,0.0,0.0,0.0,0.0,0.0,0.0,0.0,0.0,0.0,0.0,0.0,0.0,0.0,0.0,0.0,0.0,0.0,0.0,0.0,0.0,0.0,0.0,0.0,0.0,0.0,0.0,0.0,0.0,0.0,0.0,0.0,0.0,0.0,2.3955,2.4142,2.4382,2.4489,2.4636,2.4716,2.3006,2.183,2.1082,2.0241,0.0,0.0,0.0,0.0,0.0,0.0,0.0,0.0,0.0,0.0,0.0,0.0,0.0,0.0,0.0,0.0,0.0,0.0,0.0,0.0,0.0,0.0,1.9626,1.9426,1.9786,1.9639,1.7689,0.0,0.0,0.0,0.0,0.0,0.0,0.0,0.0,0.0,0.0,0.0,1.7375,1.9387,2.0733,2.1126,2.1493,2.1766,2.1864,2.1266,2.0544,1.9661,1.8411,1.6782,0.0,0.0,0.0,0.0,0.0,0.0,0.0,0.0,0.0,0.0,0.0,0.0,0.0,0.0,0.0,0.0,0.0,0.0,0.0,0.0,0.0,0.0,0.0,0.0,0.0,0.0,0.0,0.0,0.0,0.0,0.0,0.0,1.9501,1.9551,0.0,0.0,0.0,0.0,0.0,0.0,0.0,0.0,0.0,0.0,0.0,0.0,0.0,2.4155,2.5037,2.5638,2.5945,2.5985,2.6493,2.6774,2.6827,2.7417,2.7442,2.7215,2.6947,0.0,2.2926,2.2285,0.0,0.0,0.0,0.0,0.0,0.0,0.0,0.0,0.0,0.0,0.0,0.0,0.0,0.0,0.0,0.0,0.0,0.0,0.0,0.0,0.0,0.0,2.0935,2.1212,2.1456,2.1617,2.1296,2.0227,1.9025,1.7902,1.7235,1.6509,0.0,0.0,0.0,0.0,0.0,0.0,1.8709,2.0123,2.1264,2.225,2.2298,2.2472,2.279,2.2199,2.1484,2.073,1.9575,1.8089,1.6271,1.4415,0.0,0.0,0.0,0.0,0.0,0.0,0.0,0.0,0.0,0.0,0.0,0.0,0.0,0.0,0.0,0.0,0.0,0.0,0.0,0.0,0.0,0.0,0.0,0.0,0.0,0.0,0.0,0.0,0.0,2.1572,2.1289,2.1024,2.0356,1.9666,0.0,0.0,0.0,0.0,0.0,0.0,0.0,0.0,0.0,2.481,2.5705,2.66,2.7482,2.8083,2.8457,2.8617,2.8885,2.9085,2.9259,2.9513,2.9472,2.9192,2.9192,2.8096,2.6159,2.4396,2.2993,2.1844,0.0,0.0,0.0,0.0,1.9893,2.0401,2.0401,2.0508,2.0575,2.0107,0.0,0.0,0.0,0.0,0.0,0.0,0.0,1.8881,1.984,2.1096,2.2124,2.2325,2.2645,2.2939,2.2779,2.2231,2.1336,1.9813,1.8771,1.7769,1.658,1.5271,0.0,0.0,0.0,1.766,1.958,2.1072,2.2268,2.2897,2.3125,2.3222,2.3451,2.3034,2.2445,2.175,2.0759,1.9577,1.8202,1.656,1.5139,0.0,0.0,0.0,0.0,0.0,0.0,0.0,0.0,0.0,0.0,0.0,0.0,0.0,0.0,0.0,0.0,0.0,0.0,0.0,0.0,0.0,0.0,0.0,0.0,0.0,0.0,0.0,0.0,2.3324,2.3076,2.2505,2.1837,2.1096,0.0,0.0,0.0,0.0,0.0,0.0,2.4035,2.4743,2.5705,2.7028,2.7843,2.8631,2.9366,2.9887,3.0247,3.0474,3.0541,3.0702,3.0902,3.0902,3.0742,3.0474,3.0394,2.974,2.8537,2.6253,2.4743,2.3754,2.2418,2.1897,2.1871,2.1657,2.1897,2.2338,2.2338,2.2485,2.2579,2.2071,2.1296,2.0361,1.9265,0.0,0.0,0.0,0.0,1.992,2.0882,2.2044,2.302,2.3166,2.3607,2.3915,2.3621,2.3554,2.3046,2.1336,2.012,1.9038,1.8063,1.6656,0.0,1.682,1.7756,1.8865,2.0281,2.1804,2.2899,2.3287,2.3527,2.3661,2.3661,2.338,2.2953,2.2352,2.1483,2.0535,1.9519,1.8171,1.6871,1.5645,0.0,0.0,0.0,0.0,0.0,0.0,0.0,0.0,0.0,0.0,0.0,0.0,0.0,0.0,0.0,0.0,0.0,0.0,0.0,0.0,0.0,0.0,0.0,0.0,0.0,0.0,0.0,0.0,0.0,2.4313,2.3583,0.0,0.0,0.0,0.0,2.35,2.4128,2.4983,2.6172,2.7054,2.7949,2.8871,2.9486,2.9967,3.0287,3.0595,3.0755,3.0768,3.1049,3.1196,3.1209,3.1209,3.1049,3.0755,3.0474,2.9847,2.8925,2.7655,2.6453,2.5317,2.4409,2.4048,2.4048,2.4035,2.4222,2.4476,2.4476,2.4489,2.4449,2.4142,2.2886,2.1323,2.0414,1.972,0.0,0.0,2.0361,2.0882,2.2031,2.2819,2.3447,2.4008,2.4369,2.4516,2.4222,2.4155,2.3714,2.2205,2.1203,2.0388,1.9773,0.0,1.7756,1.8651,1.9078,1.9733,2.0909,2.1871,2.2672,2.326,2.334,2.3354,2.3354,2.306,2.2632,2.2044,2.1189,2.0428,1.98,1.8611,1.7422,1.6295,1.4776,0.0,0.0,0.0,0.0,0.0,0.0,0.0,0.0,0.0,0.0,0.0,0.0,0.0,0.0,0.0,0.0,0.0,0.0,0.0,0.0,0.0,0.0,0.0,0.0,0.0,0.0,0.0,0.0,2.6107,2.5828,0.0,2.505,2.4556,2.4743,2.5932,2.656,2.7415,2.8591,2.9312,2.9927,3.0434,3.0835,3.1102,3.1196,3.1303,3.1356,3.1356,3.1463,3.141,3.1223,3.1223,3.0969,3.0515,3.0408,2.9967,2.9272,2.8657,2.7709,2.656,2.5678,2.5451,2.5585,2.5398,2.5398,2.5491,2.5491,2.5358,2.509,2.4422,2.3514,2.2565,2.1857,2.1363,2.1136,2.1523,2.1857,2.2218,2.2846,2.3447,2.3941,2.4155,2.4422,2.4502,2.4022,2.3928,2.3647,2.2726,2.2138,2.155,2.0775,1.9893,1.9466,1.9973,2.0294,2.0775,2.1577,2.2271,2.2712,2.2739,2.2739,2.2672,2.2485,2.2365,2.2044,2.1456,2.0949,2.0334,1.9559,1.8744,1.7769,1.658,1.5484,1.4309,0.0,0.0,0.0,0.0,0.0,0.0,0.0,0.0,0.0,0.0,0.0,0.0,0.0,0.0,0.0,0.0,0.0,0.0,0.0,0.0,0.0,0.0,0.0,0.0,0.0,2.7385,2.785,2.8014,2.7911,2.7676,2.7122,2.6747,2.6961,2.7936,2.847,2.9125,3.002,3.0528,3.0875,3.1076,3.137,3.1517,3.1517,3.1623,3.1664,3.1664,3.1664,3.1517,3.1223,3.1129,3.0822,3.0354,3.0247,2.994,2.9472,2.9272,2.8604,2.7655,2.6961,2.6747,2.6814,2.6814,2.6707,2.652,2.6319,2.6052,2.5678,2.4903,2.4249,2.3674,2.3166,2.2819,2.2645,2.2939,2.3166,2.338,2.3688,2.4062,2.4342,2.4342,2.4489,2.4502,2.4022,2.3834,2.3594,2.3048,2.2619,2.2231,2.1657,2.1069,2.0775,2.1069,2.1283,2.1577,2.2071,2.2552,2.2792,2.2592,2.2565,2.2445,2.2151,2.1951,2.159,2.1002,2.0508,1.9933,1.9239,1.8651,1.7916,1.7021,1.5845,1.4576,1.3213,0.0,0.0,0.0,0.0,0.0,0.0,0.0,0.0,0.0,0.0,0.0,0.0,0.0,0.0,0.0,0.0,0.0,0.0,0.0,0.0,0.0,0.0,0.0,2.8541,2.9417,3.0145,3.0064,3.0122,2.9942,2.9429,2.8928,2.8911,2.9499,2.9793,3.0074,3.0354,3.0635,3.0768,3.0768,3.1049,3.1209,3.1209,3.1517,3.1664,3.1664,3.1664,3.1517,3.1209,3.0929,3.0635,3.0327,3.0047,2.9753,2.9499,2.9499,2.9152,2.8591,2.827,2.7963,2.7749,2.8114,2.7949,2.7615,2.7028,2.6627,2.6293,2.5705,2.5117,2.4596,2.4302,2.4022,2.3848,2.4128,2.4195,2.4249,2.4529,2.4609,2.4623,2.4623,2.4549,2.4556,2.4249,2.3968,2.3594,2.3048,2.2632,2.2432,2.2418,2.1964,2.1762,2.1977,2.2017,0.0,2.2392,2.2686,2.2928,2.2914,2.2846,2.2726,2.2418,2.1871,2.1346,2.0681,1.9826,1.9199,1.8905,1.8275,1.7876,1.7555,1.5906,1.4402,1.324,0.0,0.0,0.0,0.0,0.0,0.0,0.0,0.0,0.0,0.0,0.0,0.0,0.0,0.0,0.0,0.0,0.0,0.0,0.0,0.0,0.0,3.0522,3.1382,3.1149,3.2626,3.3694,3.3709,3.3444,3.2908,3.2058,3.0903,3.0341,3.0715,3.0822,3.0808,3.0675,3.0555,3.0381,3.0167,3.0448,3.0702,3.0902,3.1423,3.1664,3.1664,3.1664,3.1396,3.0902,3.0822,3.0515,3.0034,2.9953,2.9873,2.9793,2.9793,2.9446,2.8871,2.835,2.8181,2.8003,2.7869,2.7762,2.7615,2.7028,2.6627,2.6293,2.5705,2.5264,2.4903,2.4609,2.4315,2.4102,2.4182,2.4048,2.3915,2.3981,2.4168,2.4329,2.4329,2.4489,2.4502,2.3995,2.3834,2.3594,2.3048,2.2792,2.2672,2.2458,2.2472,2.2593,2.2605,2.2619,2.2645,2.2726,2.2806,2.2779,2.2565,2.2539,2.2338,2.183,2.1443,2.0895,2.0094,1.9212,1.8597,1.8249,1.7716,1.7248,1.6954,1.5845,1.4803,0.0,0.0,0.0,0.0,0.0,0.0,0.0,0.0,0.0,0.0,0.0,0.0,0.0,0.0,0.0,0.0,0.0,0.0,0.0,0.0,0.0,0.0,3.3762,3.5116,3.5521,3.5687,3.5675,3.5323,3.4871,3.4135,3.2987,3.182,3.1236,3.1396,3.141,3.1223,3.0808,3.0515,3.0221,2.9927,3.0207,3.0501,3.0795,3.1249,3.149,3.1476,3.1356,3.1062,3.0608,3.0608,3.0354,2.9913,2.9913,2.9847,2.974,2.974,2.9392,2.8818,0.0,0.0,0.0,0.0,2.7776,2.7802,2.7215,2.6734,2.6293,2.5705,2.5237,2.4836,2.4543,2.4249,2.4022,2.4022,2.3808,2.3607,2.3741,2.3981,2.4209,2.4209,2.4422,2.4516,2.4048,2.3861,2.3594,2.3048,2.2928,0.0,2.2472,2.2672,2.2928,2.2928,2.2928,2.2928,2.2928,2.2928,2.2792,2.2619,2.2605,2.2365,2.1856,2.1349,0.0,0.0,0.0,1.8303,1.7862,1.7515,0.0,0.0,0.0,0.0,0.0,1.4883,0.0,0.0,1.3587,1.3721,0.0,0.0,0.0,0.0,0.0,0.0,0.0,0.0,0.0,0.0,0.0,0.0,0.0,0.0,0.0,0.0,3.7012,3.9077,4.0164,3.8401,3.6694,3.6009,3.53,3.4411,3.2943,3.2163,3.1664,3.1664,3.1664,3.141,3.0822,3.0515,0.0,0.0,0.0,3.0488,3.0742,3.1062,3.1209,3.1169,3.0915,3.0635,3.0354,3.0354,3.0194,2.9913,2.9913,2.9753,2.9486,2.9446,2.9045,2.8457,2.8497,2.815,2.7655,2.7682,2.7883,2.814,2.7468,0.0,0.0,2.5758,2.517,2.4636,2.4382,2.4048,2.3768,2.3768,2.3527,2.334,2.3594,2.3915,2.4155,2.4155,2.4396,2.4556,2.4262,2.3995,2.3634,2.3033,2.2913,2.2819,2.2525,2.2686,2.2928,2.2928,2.2928,2.2928,2.2928,2.2928,2.2914,2.2887,2.2806,0.0,2.1991,2.143,2.0735,1.9853,1.8945,1.817,1.7555,1.7569,1.7514,1.7259,1.6941,1.6673,1.6469,1.6192,1.6024,1.6011,1.5132,1.5044,0.0,0.0,0.0,0.0,0.0,0.0,0.0,0.0,0.0,0.0,0.0,0.0,0.0,0.0,0.0,3.5918,3.7851,3.9256,3.9884,3.9229,3.8683,3.8458,3.6524,3.4799,3.3722,3.2475,3.1664,3.1664,3.1664,3.141,3.0822,3.0515,3.0221,2.9927,3.0207,3.0381,3.0448,3.0969,3.1102,3.0875,3.0822,0.0,3.0354,3.0354,3.0194,2.9913,2.9913,2.9753,2.9459,2.9219,2.8497,2.7549,2.7789,2.7655,2.7375,2.7615,2.7883,2.814,2.7468,2.7028,2.664,2.6066,2.5478,2.4983,2.493,2.4382,0.0,2.3768,2.338,2.2966,2.3088,2.3447,2.3848,2.3848,2.4249,2.4556,2.4262,2.4155,2.3941,2.3354,2.3233,2.314,2.2832,2.2887,2.2928,2.2928,2.2928,2.2928,2.2928,2.2928,2.2766,2.2525,2.2498,2.2271,2.1748,2.1309,2.0735,1.9853,1.8758,1.7862,1.7313,1.7514,1.7555,1.7502,1.7448,1.7382,1.7328,1.7528,1.7556,1.7569,1.6687,1.6339,0.0,0.0,0.0,0.0,0.0,0.0,0.0,0.0,0.0,0.0,0.0,3.1328,3.2871,0.0,3.5684,3.7617,3.9023,3.9932,4.0017,3.9035,3.8133,3.7826,3.5746,3.4016,3.3033,3.1972,3.1236,3.1236,3.137,3.1196,3.0608,3.0434,3.0221,2.9927,3.006,3.0207,3.0354,3.0648,3.0715,3.0568,3.0421,3.0274,3.014,3.014,2.998,2.97,2.97,2.9446,2.9005,2.8551,2.7843,2.7054,2.7201,2.7175,2.7081,2.7375,2.7669,2.7856,2.7415,2.7068,2.672,2.6146,2.5651,2.5277,2.5117,2.4569,2.3981,2.3981,2.3554,2.3126,2.3273,2.3647,2.3981,2.3981,2.4315,2.4596,2.4449,2.4422,2.4249,2.3661,2.3554,2.3407,2.3008,2.2928,2.2928,2.2928,2.2928,2.2806,2.2659,2.2645,2.2525,2.2231,2.2205,2.2031,2.1655,2.1149,2.0521,1.9639,1.9038,1.8437,1.7849,1.7956,1.8036,1.8036,1.8036,1.8036,1.8036,1.8196,1.8343,1.8464,1.8023,1.7809,0.0,0.0,0.0,0.0,0.0,0.0,0.0,2.9434,3.0078,3.1484,3.2988,3.4394,3.5547,3.6465,3.7519,3.8965,4.0019,4.0548,4.0271,3.8546,3.6947,3.6069,3.4211,3.2617,3.1888,3.1207,3.0795,3.0795,3.1062,3.0996,3.0474,3.0501,3.0394,3.01,3.0087,3.0181,3.0354,3.0354,3.0327,3.0274,2.998,2.9833,2.9833,2.978,2.9619,2.9392,2.9272,2.8885,2.8297,2.7749,2.7215,2.6734,2.6734,2.6734,2.6774,2.7134,2.7455,2.7655,2.7362,2.7108,2.6814,2.6226,2.5798,2.5464,2.5237,2.4756,2.4289,2.4289,2.3941,2.3621,2.3808,2.4075,2.4275,2.4222,2.4422,2.4636,2.4636,2.4636,2.4462,2.3888,2.3768,2.3581,2.2966,2.2928,2.2928,2.2928,2.2928,2.2752,2.2458,2.2418,2.2285,2.1937,2.1897,2.1777,2.1561,2.0989,2.0347,1.9586,1.9479,1.9212,1.8691,1.8664,1.8691,1.8744,1.8691,1.8691,1.8744,1.8691,1.8811,1.9092,1.9092,1.9065,2.4536,2.6621,2.945,3.0742,3.1719,3.2344,0.0,3.2324,3.2851,3.4531,3.5644,3.6465,3.6992,3.7793,3.8555,3.9101,4.0273,4.0779,3.9903,3.8356,3.6593,3.4617,3.2475,3.102,3.0941,3.0808,3.0795,3.0795,3.1062,3.1089,3.0755,3.0982,3.0996,3.0702,3.0688,3.0581,3.0368,3.0354,3.0221,2.9967,2.9673,2.9526,2.9526,2.9259,2.9125,2.9058,2.8524,2.7963,2.7388,2.7054,2.6734,2.644,2.644,2.644,2.6507,2.7068,2.7455,2.7655,2.7362,2.7241,2.7121,2.6533,2.5972,2.5504,2.5478,2.505,2.4596,2.4596,2.4543,2.4436,2.4209,2.4369,2.4529,2.4262,2.4422,2.4636,2.4636,2.4636,2.4462,2.3888,2.3768,2.3581,2.2966,2.2928,2.2928,2.2928,2.2928,2.2752,2.2458,2.2418,2.2205,2.1722,2.1668,2.1483,2.1189,2.0855,2.0521,2.016,1.9893,1.9599,1.9279,1.9323,1.9386,1.9653,1.9399,1.9399,1.9653,1.9399,1.9426,1.9706,1.9706,1.9559,2.7344,2.9219,3.1387,3.2676,3.4219,3.5351,3.5098,3.543,3.6055,3.7051,3.8144,3.8887,3.8828,3.8887,3.916,3.9863,4.043,4.0529,3.9811,3.8044,3.5945,3.3837,3.0878,2.9259,2.9967,2.9873,2.9847,3.002,3.0461,3.0595,3.0301,3.0568,3.0581,3.0287,3.0287,3.0221,3.01,3.01,2.9953,2.9659,2.9539,2.9392,2.9219,2.9098,2.8845,2.8497,2.807,2.7549,2.7001,2.6867,2.6653,2.6386,2.6386,2.6386,2.6453,2.7054,2.7348,2.7428,2.7308,2.7148,2.6907,2.6319,2.5852,2.5518,2.5518,2.5344,2.5184,2.5358,2.5411,2.5331,2.5037,2.493,2.4783,2.4315,2.4302,2.4382,2.4382,2.4516,2.4462,2.3888,2.3768,2.3581,2.2966,2.2928,2.2806,2.2632,2.2605,2.2498,2.2205,2.2017,2.175,2.1336,2.1296,2.1243,2.1122,2.1002,2.0802,2.0508,2.0374,2.0174,1.988,1.9867,1.992,2.0054,1.9933,1.9933,2.0054,1.9933,2.0027,2.0307,2.0134,2.008,2.9089,3.0849,3.2555,3.3866,3.5689,3.7019,3.6803,3.7091,3.759,3.8294,3.9044,3.962,3.9445,3.9135,3.9118,3.9836,4.0086,3.9918,3.924,3.7419,3.5365,3.3081,2.9817,2.8043,2.8911,2.8871,2.8951,2.9325,2.998,3.0234,2.9927,3.0194,3.0221,2.9927,2.9913,2.9913,2.9913,2.9833,2.9686,2.9486,2.9325,2.9125,2.8911,2.8751,2.835,2.7762,2.7549,2.7175,2.6707,2.6707,2.6587,2.6386,2.6386,2.644,2.6573,2.7081,2.7268,2.7268,2.7268,2.7068,2.672,2.6146,2.5705,2.5398,2.5398,2.5398,2.5451,2.5745,2.5892,2.5892,2.5585,2.5358,2.505,2.4462,2.4329,2.4329,2.4329,2.4489,2.4462,2.3888,2.3768,2.3581,2.2966,2.2928,2.2792,2.2579,2.2405,2.2191,2.1897,2.1617,2.1323,2.1015,2.1069,2.1109,2.1109,2.1109,2.1015,2.0815,2.0802,2.0695,2.0481,2.0468,2.0468,2.0468,2.0401,2.0361,2.0361,2.0267,2.0388,2.0668,2.0454,2.0508,2.8747,3.0865,3.2673,3.3967,3.5486,3.6751,3.6675,3.6439,3.6477,3.7761,3.7709,3.7592,3.797,3.8027,3.8141,3.8585,3.8993,3.8897,3.7856,3.6461,3.4619,3.2185,2.9411,2.7709,2.7749,2.8003,2.8417,2.9005,2.986,3.0234,2.9927,3.0194,3.0221,2.9927,2.9913,2.9913,2.9913,2.9633,2.9486,2.9472,2.8911,2.8631,2.8604,2.8003,2.7415,2.6867,2.6854,2.668,2.64,2.64,2.64,2.6386,2.6386,2.656,2.6841,2.7148,2.7268,2.7268,2.7268,2.7068,2.672,2.6146,2.5571,2.509,2.509,2.509,2.5157,2.5451,2.5732,2.5892,2.5585,2.5504,2.5358,2.477,2.4623,2.4623,2.4623,2.4549,2.4462,2.3888,2.3768,2.3581,2.2966,2.2928,2.2928,2.2914,2.2365,2.1897,2.1668,2.1309,2.1015,2.0722,2.0935,2.1109,2.1109,2.1109,2.1109,2.1096,2.1096,2.1096,2.1082,2.1082,2.1082,2.1082,2.0802,2.0655,2.0655,2.0374,2.0388,2.0681,2.0668,2.0815,2.798,2.9867,3.1481,3.2577,3.4069,3.5117,3.4701,3.4744,3.4925,3.5298,3.5533,3.5797,3.5833,3.5852,3.6069,3.6528,3.6612,3.647,3.5965,3.4635,3.3086,3.1364,2.8952,2.7335,2.7134,2.7201,2.7589,2.839,2.9085,2.9526,2.9619,2.9913,3.002,2.9913,2.9913,2.9913,2.9913,2.982,2.9579,2.9179,2.8591,2.819,2.8003,2.7789,2.7375,2.6827,2.6827,2.6653,2.6386,2.6386,2.6386,2.6413,2.66,2.6734,2.6881,2.7375,2.7549,2.7522,2.7335,2.6947,2.644,2.5852,2.5264,2.4783,2.4783,2.493,2.5144,2.5424,2.5732,2.5892,2.5585,2.5371,2.5077,2.4489,2.4342,2.4342,2.4342,2.4502,2.4462,2.3888,2.3768,2.3581,2.2966,2.2928,2.2792,2.2592,2.2231,2.1737,2.1056,2.1056,2.1002,2.0708,2.0935,2.1109,2.1109,2.1109,2.1109,2.1109,2.1109,2.1109,2.1109,2.1109,2.1109,2.1109,2.1015,2.0962,2.0962,2.0855,2.0869,2.0962,2.0962,2.1015,2.7557,2.935,3.088,3.157,3.2794,3.3626,3.3098,3.2905,3.2898,3.2735,3.2822,3.2914,3.3038,3.3161,3.3447,3.4171,3.434,3.4311,3.4104,3.318,3.2106,3.068,2.8783,2.7509,2.7308,2.6921,2.6987,2.7859,2.8484,2.9018,2.9312,2.97,2.9913,2.9913,2.9913,2.9913,2.9913,2.9806,2.9406,2.8711,2.8217,2.7776,2.7388,2.7388,2.7121,2.6667,2.6667,2.656,2.6386,2.6386,2.6386,2.6413,2.6707,2.6894,2.7041,2.7522,2.7762,2.7802,2.7402,2.6881,2.6293,2.5705,2.5117,2.4636,2.4636,2.477,2.4983,2.5277,2.5571,2.5732,2.5438,2.5291,2.509,2.4502,2.4356,2.4356,2.4356,2.4502,2.4462,2.3888,2.3768,2.3581,2.2966,2.2928,2.2766,2.2458,2.2178,2.167,2.0788,2.0922,2.0962,2.0561,2.0869,2.1109,2.1109,2.1109,2.1109,2.1109,2.1109,2.1109,2.1109,2.1109,2.1109,2.1109,2.1109,2.1109,2.1109,2.1109,2.1109,2.1109,2.1109,2.1109,2.744,2.932,3.0811,3.0861,3.1669,3.2199,3.1584,3.098,3.0422,3.0261,2.9547,2.9194,2.9774,2.9976,3.0337,3.144,3.2031,3.2363,3.2105,3.1958,3.1455,3.0293,2.9068,2.8288,2.8248,2.7148,2.6707,2.7268,2.8096,2.8711,2.9018,2.9593,2.9913,2.9913,2.99,2.99,2.99,2.9593,2.9005,2.8221,2.7843,2.7402,2.6841,2.6841,2.6694,2.644,2.644,2.644,2.644,2.644,2.6426,2.644,2.6747,2.7028,2.7308,2.7602,2.7896,2.814,2.7468,2.6881,2.6293,2.5705,2.5117,2.4636,2.4636,2.4636,2.4703,2.4997,2.5277,2.5424,2.5157,2.5291,2.5344,2.477,2.4636,2.4636,2.4636,2.4636,2.4462,2.3888,2.3741,2.3541,2.3035,2.2928,2.2766,2.2485,2.2178,2.167,2.0788,2.0922,2.0869,2.0233,2.0748,2.1096,2.1109,2.1109,2.1109,2.1109,2.1109,2.1109,2.1109,2.1109,2.1109,2.1109,2.1109,2.1109,2.1109,2.1109,2.1109,2.1109,2.1109,2.1109,2.6785,2.8289,2.9407,2.9021,2.927,2.934,2.826,2.762,2.6948,2.6113,2.5614,2.5445,2.5711,2.5797,2.6291,2.7453,2.8261,2.8869,2.947,2.9872,2.9995,2.9751,2.9373,2.8965,2.8524,2.8003,2.7846,2.7993,2.8221,2.8484,2.9005,2.9593,2.9913,2.9913,2.9713,2.9593,2.9593,2.9085,2.8604,2.8221,2.7843,2.7509,2.7148,2.7148,2.7108,2.7041,2.7041,2.7041,2.7041,2.7041,2.6907,2.676,2.7281,2.7388,2.7321,2.7843,2.8167,2.814,2.7468,2.6881,2.6293,2.5705,2.5117,2.4636,2.4636,2.4636,2.4703,2.4997,2.513,2.517,2.5104,2.513,2.509,2.473,2.4636,2.4636,2.4636,2.4636,2.4462,2.3888,2.3477,2.3115,2.2954,2.2928,2.2832,2.2766,2.2311,2.167,2.0788,2.0735,2.0641,2.0207,2.0561,2.0869,2.1096,2.1109,2.1109,2.1109,2.1109,2.1109,2.1109,2.1109,2.1109,2.1109,2.1109,2.1109,2.1109,2.1109,2.1109,2.1109,2.1109,2.1109,2.7001,2.8203,2.9058,2.8408,2.827,2.803,2.6573,2.5692,2.4824,2.3653,2.2943,2.2608,2.2901,2.3145,2.3775,2.5143,2.6289,2.7295,2.7923,2.8644,2.9098,2.9098,2.9098,2.9018,2.8818,2.8524,2.8404,2.8524,2.8417,2.8551,2.9018,2.9593,2.986,2.9726,2.9566,2.9366,2.9098,2.8631,2.819,2.7832,2.7589,2.7348,2.7081,2.7201,2.7268,2.7268,2.7268,2.7268,2.7268,2.7268,2.7094,2.6881,2.7468,2.7522,2.7335,2.8006,2.8221,2.814,2.7468,2.6961,2.6466,2.5745,2.5117,2.4636,2.4636,2.4636,2.4703,2.4997,2.517,2.5237,2.5117,2.517,2.5157,2.4743,2.4636,2.4636,2.4636,2.4636,2.4462,2.3888,2.3394,2.302,2.2886,2.2928,2.2928,2.2928,2.2365,2.1764,2.1136,2.0842,2.0521,2.0094,2.0428,2.0735,2.0909,2.1042,2.1109,2.1109,2.1109,2.1109,2.1109,2.1109,2.1109,2.1109,2.1109,2.1109,2.1109,2.1109,2.1109,2.1109,2.1109,2.1109,2.7789,2.8657,2.9272,2.8449,2.8194,2.7615,2.5812,2.4649,2.3531,2.2073,2.093,2.0343,2.0844,2.1268,2.2055,2.3748,2.5451,2.6667,2.7041,2.7829,2.8404,2.847,2.8524,2.8671,2.9005,2.8885,2.8885,2.9138,2.8925,2.8871,2.9085,2.9619,2.9766,2.9432,2.9392,2.9098,2.8551,2.8283,2.7953,2.7321,2.7321,2.7188,2.6947,2.7201,2.7348,2.7388,2.7388,2.7388,2.7388,2.7388,2.7188,2.6934,2.7522,2.7562,2.7335,2.7966,2.8167,2.8087,2.7415,2.7014,2.6627,2.5785,2.5144,2.469,2.4649,2.4663,2.4743,2.501,2.5291,2.5451,2.5157,2.5264,2.5317,2.477,2.4636,2.4636,2.4636,2.4609,2.4436,2.3928,2.3554,2.3247,2.2966,2.2886,2.2928,2.2928,2.2392,2.1937,2.1708,2.1132,2.0481,1.9973,2.0374,2.0695,2.0735,2.0962,2.1109,2.1109,2.1109,2.1109,2.1109,2.1109,2.1109,2.1109,2.1109,2.1109,2.1109,2.1109,2.1109,2.1109,2.1109,2.1136,2.8657,2.9138,2.9272,2.8449,2.7963,2.7255,2.5251,2.3714,2.2231,2.0529,1.9088,1.8293,1.8901,1.9196,2.0072,2.2096,2.3821,2.5291,2.6079,2.6734,2.7308,2.7802,2.807,2.843,2.8991,2.9432,2.9713,2.9753,2.9713,2.9606,2.9419,2.9726,2.9673,2.9125,2.8885,2.8591,2.823,2.8261,2.7963,2.7629,2.7629,2.7602,2.7549,2.7602,2.7762,2.8073,2.8073,2.8073,2.8073,2.8073,2.7752,2.7241,2.7913,2.7819,2.7308,2.7655,2.7776,2.7696,2.7108,2.6707,2.636,2.5718,2.5277,2.4957,2.4716,2.481,2.501,2.5064,2.5291,2.5451,2.5157,2.5117,2.5064,2.4716,2.4636,2.4636,2.4636,2.4449,2.4249,2.4155,2.3701,2.3313,2.326,2.3033,2.2928,2.2928,2.2565,2.2231,2.1951,2.1189,2.0641,2.0535,2.0615,2.0775,2.1015,2.1082,2.1109,2.1109,2.1109,2.1109,2.1109,2.1109,2.1109,2.1109,2.1109,2.1109,2.1109,2.1109,2.1109,2.1109,2.1109,2.1243,2.7733,2.8395,2.8713,2.7793,2.7304,2.64,2.4022,2.2338,2.0828,1.9212,1.7943,1.7261,1.7769,1.8156,1.8981,2.0788,2.2699,2.4209,2.4943,2.5678,2.636,2.6947,2.7415,2.7976,2.8738,2.9486,2.9913,2.9913,2.9913,2.986,2.9713,2.9553,2.9325,2.9045,2.8604,2.8217,2.7909,2.7909,2.7762,2.7468,2.7629,2.7696,2.7709,2.7856,2.8003,2.8221,2.8221,2.8221,2.8221,2.8221,2.7872,2.7321,2.7993,2.7872,2.7308,2.7589,2.7696,2.7615,2.7028,2.6734,2.652,2.5932,2.5545,2.5277,2.5144,2.5197,2.5331,2.5491,2.5638,2.5678,2.5384,2.5304,2.5197,2.4743,2.4636,2.4636,2.4636,2.4529,2.4382,2.4235,2.3981,2.3688,2.338,2.3207,2.3046,2.2886,2.2605,2.2365,2.2231,2.171,2.1176,2.0722,2.0681,2.0735,2.0869,2.1029,2.1109,2.1109,2.1109,2.1109,2.1109,2.1109,2.1109,2.1109,2.1109,2.1109,2.1109,2.1109,2.1109,2.1109,2.1269,2.148,2.6102,2.7087,2.7762,2.6889,2.6515,2.5598,2.2939,2.1096,1.9487,1.8143,1.7141,1.6607,1.6965,1.7395,1.8182,1.9647,2.159,2.3086,2.3728,2.4583,2.5384,2.6026,2.668,2.7455,2.8417,2.9312,2.982,2.982,2.9766,2.978,2.9913,2.9352,2.9045,2.9045,2.8457,2.803,2.7789,2.7789,2.7682,2.7537,2.7682,2.7789,2.7802,2.8114,2.8221,2.8221,2.8221,2.8221,2.8221,2.8221,2.7913,2.7415,2.802,2.7899,2.7375,2.7549,2.7562,2.7442,2.6907,2.6694,2.6573,2.6172,2.5852,2.5598,2.5531,2.5518,2.5571,2.5879,2.6037,2.5905,2.5665,2.5611,2.5464,2.4877,2.469,2.4636,2.4636,2.4636,2.4569,2.4342,2.4249,2.4062,2.3594,2.3407,2.3247,2.2993,2.2699,2.2512,2.2512,2.2258,2.1817,2.1122,2.0935,2.0869,2.0869,2.1015,2.1109,2.1109,2.1162,2.1203,2.1203,2.1269,2.1296,2.1296,2.1296,2.1269,2.1203,2.1203,2.1176,2.1122,2.1416,2.1655,2.3781,2.5207,2.6294,2.5762,2.586,2.5304,2.2632,2.0481,1.8704,1.7527,1.6526,1.6005,1.6299,1.6607,1.7315,1.8798,2.0321,2.1617,2.2458,2.3367,2.4249,2.5104,2.5959,2.6921,2.8154,2.8991,2.9526,2.9526,2.9272,2.9352,2.9887,2.9352,2.9045,2.9045,2.8457,2.8207,2.8181,2.8181,2.8167,2.814,2.8167,2.8181,2.8181,2.8221,2.8221,2.8221,2.8221,2.8221,2.8221,2.8221,2.7949,2.7696,2.81,2.7949,2.7629,2.7388,2.7134,2.6854,2.6547,2.6253,2.6079,2.6279,2.6159,2.5865,2.5598,2.5518,2.5571,2.5879,2.6037,2.6023,2.5919,2.5919,2.5772,2.5184,2.4836,2.4636,2.4636,2.4636,2.4549,2.4596,2.4382,2.4182,2.4128,2.3674,2.3313,2.3287,2.302,2.2819,2.2819,2.2565,2.2352,2.2271,2.179,2.1534,2.1534,2.1256,2.1109,2.1109,2.1363,2.1574,2.1574,2.1764,2.1911,2.1911,2.1911,2.1777,2.1574,2.1574,2.1376,2.1122,2.1416,2.1762,2.1044,2.2694,2.4052,2.3934,2.4098,2.3767,2.1621,1.9688,1.809,1.7088,1.6313,1.5824,1.5979,1.6246,1.6807,1.7929,1.9212,2.0428,2.1483,2.2392,2.3287,2.4182,2.5064,2.5999,2.6987,2.8056,2.8831,2.9192,2.9112,2.9138,2.9379,2.9005,2.8778,2.8778,2.8364,2.8221,2.8221,2.8221,2.8221,2.8221,2.8221,2.8221,2.8221,2.8221,2.8221,2.8221,2.8221,2.8221,2.8221,2.8221,2.7963,2.7722,2.8114,2.7963,2.7669,2.7375,2.7081,2.676,2.6293,2.5932,2.5705,2.5825,2.5785,2.5732,2.5972,2.6039,2.6066,2.6186,2.6213,2.6172,2.5999,2.5692,2.5371,2.513,2.485,2.4636,2.4636,2.4636,2.4636,2.4636,2.4543,2.4409,2.4235,2.3861,2.3527,2.3354,2.306,2.2928,2.2928,2.2752,2.2686,2.2686,2.2164,2.1817,2.1817,2.171,2.163,2.163,2.175,2.1817,2.1817,2.1924,2.1991,2.1991,2.1991,2.1924,2.1817,2.1817,2.175,2.1643,2.1937,2.2138,1.8108,1.9968,2.1459,2.1637,2.2159,2.2125,2.041,1.8907,1.7662,1.6874,1.6233,1.5784,1.5784,1.6005,1.6406,1.7194,1.817,1.9252,2.0428,2.1349,2.2271,2.3247,2.4075,2.497,2.6026,2.7268,2.8217,2.8738,2.8778,2.8778,2.8778,2.8577,2.8511,2.8604,2.831,2.8221,2.8221,2.8221,2.8221,2.8221,2.8221,2.8221,2.8221,2.8221,2.8221,2.8221,2.8221,2.8221,2.8221,2.8221,2.7963,2.7722,2.7923,2.7829,2.7535,2.7241,2.6894,2.6507,2.6092,2.5705,2.5398,2.5478,2.5518,2.5611,2.6106,2.6199,2.6172,2.6346,2.6386,2.6346,2.6132,2.5651,2.5211,2.5211,2.4917,2.4636,2.4636,2.4636,2.4636,2.4636,2.4636,2.4569,2.4369,2.4022,2.3701,2.3487,2.3113,2.2928,2.2928,2.2928,2.2928,2.2928,2.2498,2.2205,2.2124,2.2031,2.1991,2.1991,2.2071,2.2111,2.2111,2.2191,2.2245,2.2245,2.2245,2.2205,2.2111,2.2111,2.2071,2.1991,2.2285,2.2472,1.4986,1.6896,1.8583,1.9021,1.9931,2.0459,1.9261,1.8263,1.7422,1.682,1.6233,1.5784,1.5784,1.5784,1.5984,1.662,1.7208,1.8023,1.9269,2.0147,2.1122,2.2298,2.2966,2.3915,2.5384,2.6841,2.7829,2.8207,2.8234,2.8234,2.8234,2.8234,2.8283,2.8591,2.831,2.8221,2.8221,2.8221,2.8221,2.8221,2.8221,2.8221,2.8221,2.8221,2.8221,2.8221,2.8221,2.8221,2.8221,2.8221,2.7963,2.7696,2.7696,2.7522,2.7228,2.6934,2.6466,2.6037,2.6037,2.5571,2.513,2.5424,2.5518,2.5571,2.5865,2.5758,2.5638,2.6226,2.6386,2.6386,2.6386,2.5945,2.5504,2.5504,2.5064,2.4636,2.4636,2.4636,2.4636,2.4636,2.4636,2.4636,2.4636,2.4155,2.3768,2.3768,2.3247,2.2928,2.2928,2.2928,2.2928,2.2928,2.2859,2.2739,2.2445,2.2151,2.1991,2.1991,2.2258,2.2418,2.2418,2.2699,2.2928,2.2928,2.2928,2.2712,2.2418,2.2418,2.2271,2.1991,2.2285,2.2579,1.3274,1.4738,1.6129,1.6952,1.7907,1.8564,1.7994,1.7576,1.7166,1.6526,1.6099,1.5784,1.5784,1.5784,1.5952,1.6353,1.6727,1.7408,1.8597,1.9867,2.1042,2.2004,2.3541,2.4943,2.6012,2.6894,2.7602,2.8194,2.8221,2.8221,2.8221,2.8221,2.8274,2.8283,2.8274,2.8221,2.8221,2.8221,2.8221,2.8221,2.8221,2.8221,2.8221,2.8221,2.8221,2.8221,2.8221,2.8221,2.8207,2.7923,2.7789,2.7682,2.7482,2.7348,2.7228,2.6934,2.6453,2.601,2.5718,2.5264,2.4796,2.489,2.4917,2.497,2.5264,2.5571,2.5892,2.6279,2.6386,2.6386,2.6386,2.5959,2.5518,2.5518,2.5064,2.4636,2.4636,2.4636,2.4636,2.4636,2.4636,2.4636,2.4636,2.4315,2.3995,2.3794,2.3434,2.31,2.2886,2.2928,2.2928,2.2928,2.2928,2.2887,2.2726,2.2632,2.2646,2.2646,2.2672,2.2726,2.2726,2.2806,2.2928,2.2928,2.2928,2.2887,2.2726,2.2726,2.2672,2.2592,2.2672,2.2779,1.1713,1.2758,1.376,1.4753,1.5807,1.6615,1.6596,1.6809,1.6898,1.6415,1.6032,1.5784,1.5784,1.5784,1.5885,1.6072,1.6259,1.6834,1.813,1.9479,2.0922,2.2472,2.4088,2.5384,2.6146,2.6854,2.7509,2.8181,2.8221,2.8221,2.8221,2.8221,2.8221,2.8221,2.8221,2.8221,2.8221,2.8221,2.8221,2.8221,2.8221,2.8221,2.8221,2.8114,2.7976,2.7963,2.7856,2.7899,0.0,2.7615,2.7468,2.7348,2.7175,2.7028,2.6907,2.672,2.636,2.601,2.5745,2.5291,2.4796,2.4796,2.4796,2.4836,2.5024,2.5491,2.609,2.6306,2.6386,2.6386,2.6386,2.5959,2.5518,2.5518,2.5064,2.4636,2.4636,2.4636,2.4636,2.4636,2.4636,2.4636,2.4636,2.4396,2.4142,2.3968,2.3594,2.326,2.306,2.2939,2.2928,2.2928,2.2928,2.2928,2.2928,2.2928,2.2928,2.2928,2.2928,2.2928,2.2928,2.2928,2.2928,2.2928,2.2928,2.2928,2.2928,2.2928,2.2928,2.2928,2.2928,2.2928,0.0,1.0914,1.1552,1.2598,1.3667,1.4628,1.5205,1.5988,0.0,1.6299,1.6019,1.5784,1.5784,1.5784,1.5784,1.5811,1.5824,1.6406,1.7876,1.9239,2.1042,2.3621,2.469,2.5424,2.6077,2.68,2.7535,2.8181,2.8221,2.8221,2.8221,2.8221,2.8221,2.8221,2.8221,2.8221,2.8221,2.8221,2.8221,2.8221,2.8221,2.8221,2.8221,2.7829,2.7682,2.7655,2.7375,2.7255,2.7228,2.7228,2.7068,2.6814,2.68,2.6627,2.6386,2.6386,2.6199,2.6037,2.6037,2.5571,2.5077,2.505,2.505,2.505,2.5077,2.5491,2.6012,2.6279,2.6373,2.6386,2.636,2.5932,2.5504,2.5491,2.505,2.4636,2.4636,2.4636,2.4636,2.4636,2.4636,2.4636,2.4636,2.4409,2.4222,2.4209,2.3741,2.338,2.3327,2.3073,2.2886,2.2928,2.2928,2.2928,2.2928,2.2928,2.2928,2.2928,2.2928,2.2928,2.2928,2.2928,2.2928,2.2928,2.2928,2.2928,2.2928,2.2928,2.2928,2.2928,2.2928,2.2928,0.8872,0.0,1.0399,1.1256,1.2311,1.327,0.0,1.4847,1.5748,1.5704,1.5729,1.5784,1.5784,1.5784,1.5899,1.6126,1.6353,1.7021,1.8504,2.1096,2.3487,2.5237,2.6012,2.656,2.6921,2.7348,2.7749,2.8207,2.8221,2.8221,2.8221,2.8221,2.8221,2.8221,2.8221,2.8221,2.8221,2.8221,2.8221,2.8221,2.8221,2.8221,2.8221,2.7829,2.7575,2.7362,2.7295,2.7134,2.6921,2.6921,2.6881,2.68,2.6573,2.6453,2.6386,2.6386,2.6199,2.6037,2.6037,2.5571,2.5037,2.481,2.4743,2.4783,2.501,2.5491,2.605,2.6117,2.6226,2.6333,2.6119,2.5785,2.5451,2.5237,2.4903,2.4636,2.4636,2.4636,2.4636,2.4636,2.4636,2.4636,2.4636,2.4583,2.4462,2.4235,2.4088,2.3834,2.338,2.326,2.3126,2.2886,2.2928,2.2928,2.2928,2.2928,2.2928,2.2928,2.2928,2.2928,2.2928,2.2928,2.2928,2.2928,2.2928,2.2928,2.2928,2.2928,2.2928,2.2928,2.2928,2.2928,0.8397,0.8838,0.9375,1.0156,1.1017,1.1828,1.2556,1.38,1.4849,1.5096,1.5499,1.5784,1.5784,1.5939,1.6126,1.642,1.6834,1.7903,2.0201,2.2739,2.4917,2.6386,2.6947,2.7335,2.7725,2.7816,2.7963,2.8221,2.81,2.7936,2.7936,2.7816,2.7819,2.7819,2.7819,2.7953,2.8221,2.8087,2.7936,2.7936,2.7886,2.7819,2.7819,2.7428,2.7134,2.6867,2.6867,2.6694,2.644,2.6573,2.6627,2.6613,2.6453,2.6386,2.6386,2.6386,2.6293,2.6159,2.6159,2.5772,2.5211,2.477,2.4636,2.4663,2.4823,2.5291,2.5785,2.5996,2.6066,2.6159,2.6077,2.5638,2.5277,2.5117,2.485,2.4636,2.4636,2.4636,2.4636,2.4636,2.4636,2.4636,2.4636,2.4636,2.4583,2.4422,2.4289,2.4088,2.3768,2.3607,2.346,2.33,2.3153,2.3073,2.3073,2.2939,2.2928,2.2928,2.2928,2.2928,2.2928,2.2928,2.2928,2.2928,2.2928,2.2928,2.2928,2.2928,2.2928,2.2928,2.2928,2.2928,0.8397,0.8499,0.8705,0.9372,0.9928,1.0595,1.1535,1.2777,1.3905,1.4522,1.5207,1.5782,1.5923,1.6184,1.654,1.6981,1.7729,1.9292,2.2271,2.4115,2.5678,2.7094,2.7522,2.7816,2.8194,2.8181,2.8154,2.8154,2.7802,2.7629,2.7629,2.7402,2.7268,2.7268,2.7268,2.7591,2.8087,2.7762,2.7629,2.7629,2.7388,2.7268,2.7255,2.6907,2.66,2.6319,2.6319,2.6159,2.5919,2.6253,2.6386,2.6386,2.6386,2.6386,2.6386,2.6386,2.6386,2.6373,2.6293,2.5932,2.5411,2.4823,2.4636,2.4636,2.4636,2.501,2.5504,2.5798,2.5919,2.6023,2.5905,2.5491,2.5064,2.5024,2.4823,2.4636,2.4636,2.4636,2.4636,2.4636,2.4636,2.4636,2.4636,2.4636,2.4636,2.4636,2.4422,2.4249,2.4209,2.3981,2.3821,2.3768,2.35,2.3327,2.3327,2.3046,2.2928,2.2928,2.2928,2.2928,2.2928,2.2928,2.2928,2.2928,2.2928,2.2928,2.2928,2.2928,2.2928,2.2928,2.2928,2.2928,0.8397,0.8574,0.8736,0.9079,0.9594,1.0163,1.088,1.2086,1.3279,1.41,1.4886,1.5665,1.6405,1.6828,1.7407,1.841,2.012,2.1924,2.3688,2.481,2.5905,2.7121,2.7522,2.7816,2.8194,2.7909,2.7762,2.7762,2.7495,2.7335,2.7335,2.7295,2.7268,2.7268,2.7268,2.7308,2.7402,2.7362,2.7335,2.7335,2.7281,2.7268,2.7241,2.6707,2.6306,2.6026,2.6026,2.5852,2.5625,2.6172,2.6386,2.6386,2.6386,2.6386,2.6386,2.6386,2.6386,2.6319,2.5825,2.5585,2.5411,2.4823,2.4636,2.4636,2.4636,2.4877,2.5211,2.5504,2.5758,2.5892,2.5651,2.5331,2.5024,2.477,2.4676,2.4636,2.4636,2.4636,2.4636,2.4636,2.4636,2.4636,2.4636,2.4636,2.4636,2.4636,2.4596,2.4476,2.4235,2.4168,2.4035,2.3794,2.35,2.3327,2.3327,2.3046,2.2928,2.2928,2.2928,2.2928,2.2928,2.2928,2.2928,2.2928,2.2928,2.2928,2.2928,2.2928,2.2928,2.2928,2.2928,2.2928,0.8309,0.8472,0.8661,0.885,0.9207,0.9677,1.0162,1.1069,1.2124,1.314,1.4263,1.5372,1.6461,1.746,1.8704,2.0521,2.2017,2.3354,2.4516,2.5438,2.6253,2.6947,2.7281,2.7522,2.7738,2.7549,2.7468,2.7468,2.7188,2.7028,2.7028,2.6881,2.6787,2.6787,2.6787,2.6787,2.6787,2.6787,2.6867,2.7028,2.6867,2.6787,2.6787,2.652,2.6226,2.6037,2.6119,2.6026,2.5785,2.6213,2.6386,2.6386,2.6386,2.6386,2.6386,2.6386,2.6386,2.6333,2.5905,2.5651,2.5438,2.501,2.477,2.4636,2.4636,2.4836,2.5104,2.5237,2.5384,2.5491,2.5504,2.5184,2.481,2.4676,2.4636,2.4636,2.4636,2.4636,2.4636,2.4636,2.4636,2.4636,2.4636,2.4636,2.4636,2.4636,2.4636,2.4596,2.4449,2.4436,2.4382,2.4249,2.3981,2.3808,2.3808,2.338,2.3046,2.2941,2.2928,2.2928,2.2928,2.2928,2.2928,2.2928,2.2928,2.2928,2.2928,2.2928,2.2928,2.2928,2.2928,2.2928,0.8228,0.8377,0.852,0.8669,0.8933,0.9299,0.9671,1.0364,1.1268,1.2385,1.3772,1.517,1.6354,1.8038,1.9929,2.2031,2.317,2.4203,2.5157,2.5865,2.6426,2.6774,2.7028,2.7188,2.7255,2.7201,2.7161,2.7161,2.6881,2.672,2.672,2.6507,2.6386,2.6386,2.6386,2.6386,2.6386,2.6386,2.6507,2.672,2.6493,2.6386,2.6386,2.6319,2.6159,2.605,2.6186,2.6159,2.605,2.6266,2.6386,2.6386,2.6386,2.6386,2.6386,2.6386,2.6386,2.6346,2.6052,2.5812,2.5571,2.5277,2.4983,2.473,2.4589,2.4743,2.4877,2.4877,2.4823,2.4877,2.5304,2.5024,2.4636,2.4636,2.4636,2.4636,2.4636,2.4636,2.4636,2.4636,2.4636,2.4636,2.4636,2.4636,2.4636,2.4636,2.4636,2.4636,2.4636,2.4636,2.4636,2.4636,2.4382,2.4142,2.4008,2.3581,2.3193,2.2954,2.2792,2.2792,2.2928,2.2928,2.2928,2.2928,2.2928,2.2928,2.2928,2.2928,2.2928,2.2928,2.2928,2.2899,0.8228,0.8377,0.852,0.8669,0.8933,0.9298,0.9716,1.0436,1.1418,1.256,1.3813,1.5105,1.6309,1.8581,2.0701,2.2115,2.3274,2.4429,2.5772,2.6023,2.6199,2.676,2.6841,2.6961,2.7241,2.7014,2.6854,2.6854,2.6587,2.6426,2.6426,2.64,2.6386,2.6386,2.6386,2.6386,2.6386,2.6386,2.64,2.6426,2.64,2.6386,2.6373,2.6106,2.605,2.6037,2.605,2.605,2.605,2.6266,2.6386,2.6386,2.6386,2.6386,2.6386,2.6386,2.6386,2.6346,2.6052,2.5945,2.5879,2.5585,2.5291,2.4997,2.4716,2.4462,2.4262,2.4262,2.4075,2.4062,2.489,2.4877,2.4636,2.4636,2.4636,2.4636,2.4636,2.4636,2.4636,2.4636,2.4636,2.4636,2.4636,2.4636,2.4636,2.4636,2.4636,2.4636,2.4636,2.4636,2.4636,2.4636,2.4382,2.3981,2.3434,2.3354,2.3193,2.2954,2.2605,2.2579,2.2914,2.2928,2.2928,2.2928,2.2928,2.2928,2.2928,2.2928,2.2928,2.2928,2.2928,2.302,0.8113,0.8235,0.8384,0.8533,0.8933,0.9419,0.9717,1.0258,1.1033,1.2111,1.3177,1.4354,1.5948,1.785,1.9762,2.1677,2.2879,2.4213,2.6014,2.6226,2.6306,2.6533,2.6547,2.66,2.6707,2.6613,2.6547,2.6547,2.6453,2.6386,2.6386,2.6386,2.6386,2.6386,2.6386,2.6386,2.6386,2.6386,2.6386,2.6386,2.6386,2.6386,2.6386,2.6279,2.6226,2.6226,2.6226,2.6226,2.6239,2.6346,2.6386,2.6386,2.6386,2.6386,2.6386,2.6386,2.6386,2.6373,2.6266,2.5985,2.5665,2.5545,2.5197,2.4743,2.4462,2.4289,2.4168,2.3981,2.3848,2.3888,2.4396,2.4449,2.4369,2.4369,2.4502,2.4636,2.4636,2.4636,2.4636,2.4636,2.4636,2.4636,2.4636,2.4636,2.4636,2.4636,2.4636,2.4636,2.4636,2.4636,2.4636,2.4636,2.4543,2.4315,2.3901,2.3541,2.3273,2.3153,2.2859,2.2739,2.2859,2.2928,2.2928,2.2928,2.2928,2.2928,2.2928,2.2928,2.2928,2.2928,2.306,2.322,0.7988,0.8119,0.8241,0.8431,0.8933,0.9496,0.993,1.0419,1.1035,1.205,1.3006,1.4138,1.5654,1.7379,1.926,2.1293,2.2818,2.4329,2.6122,2.6386,2.6386,2.6386,2.6386,2.6386,2.6386,2.6386,2.6386,2.6386,2.6386,2.6346,2.6253,2.6333,2.6346,2.6253,2.6346,2.6386,2.6386,2.6386,2.6346,2.6253,2.6253,2.6306,2.6386,2.6386,2.6386,2.6386,2.6386,2.6386,2.6386,2.6386,2.6386,2.6386,2.6386,2.6386,2.6386,2.6386,2.6386,2.6386,2.6386,2.6066,2.5638,2.5545,2.5117,2.4569,2.4182,2.3995,2.3861,2.3567,2.3557,2.3527,2.3728,2.3995,2.4209,2.4209,2.4422,2.4636,2.4636,2.4636,2.4636,2.4636,2.4636,2.4636,2.4636,2.4636,2.4636,2.4636,2.4636,2.4636,2.4636,2.4636,2.4636,2.4636,2.4636,2.4516,2.4222,2.3834,2.3527,2.334,2.3126,2.2966,2.2928,2.2928,2.2928,2.2928,2.2928,2.2928,2.2928,2.2928,2.2913,2.3006,2.322,2.342,0.7988,0.7988,0.8062,0.8411,0.894,0.9585,1.0331,1.0962,1.1596,1.2423,1.3641,1.4779,1.5444,1.7389,1.9426,2.0982,2.2943,2.4778,2.6227,2.6386,2.6386,2.6386,2.6386,2.6386,2.6386,2.6386,2.6386,2.6386,2.6386,2.6266,2.605,2.6226,2.6253,2.6037,2.6239,2.6386,2.6386,2.6386,2.6239,2.6037,2.6037,2.6106,2.6386,2.6386,2.6386,2.6386,2.6386,2.6386,2.6386,2.6386,2.6386,2.6386,2.6386,2.6386,2.6386,2.6386,2.6386,2.6386,2.6386,2.6186,2.597,2.5598,2.5104,2.4529,2.3941,2.3554,2.326,2.2953,2.2928,2.2928,2.2928,2.3527,2.4195,2.4195,2.4422,2.4636,2.4636,2.4636,2.4636,2.4636,2.4636,2.4636,2.4636,2.4636,2.4636,2.4636,2.4636,2.4636,2.4636,2.4636,2.4636,2.4636,2.4636,2.4516,2.4235,2.4209,2.3955,2.3367,2.334,2.3193,2.2873,2.2928,2.2928,2.2928,2.2928,2.2928,2.2928,2.2928,2.3033,2.3327,2.334,2.3647,0.8174,0.8201,0.8323,0.8879,0.9466,1.0108,1.0792,1.143,1.2121,1.2862,1.374,1.4605,1.5164,1.6854,1.8896,2.1242,2.2744,2.4316,2.6122,2.6386,2.6386,2.6386,2.6386,2.6386,2.6386,2.6386,2.6386,2.6386,2.6199,2.6052,2.6037,2.5838,2.5825,2.6037,2.6117,2.6186,2.6386,2.6386,2.6239,2.6037,2.6037,2.6077,2.6092,2.6092,2.6199,2.6386,2.6386,2.6386,2.6373,2.6172,2.6092,2.6066,2.5852,2.5772,2.5772,2.5772,2.5772,2.5772,2.5772,2.5585,2.5291,2.4997,2.4636,2.4222,2.3634,2.3394,2.326,2.2953,2.2928,2.2928,2.2928,2.322,2.3634,2.3848,2.4115,2.4382,2.4596,2.4636,2.4636,2.4636,2.4636,2.4636,2.4636,2.4636,2.4636,2.4636,2.4636,2.4636,2.4636,2.4636,2.4636,2.4636,2.4636,2.4596,2.4516,2.4329,2.4128,2.3955,2.3754,2.3407,2.2954,2.2928,2.2928,2.2928,2.2928,2.2928,2.2928,2.3086,2.3233,2.334,2.3754,2.4035,0.8282,0.8397,0.8601,0.9259,0.9869,1.0575,1.1558,1.2115,1.2583,1.3146,1.3777,1.4382,1.5094,1.6749,1.8789,2.1299,2.2731,2.415,2.579,2.6039,2.6039,2.6039,2.6039,2.6039,2.6039,2.6039,2.6039,2.6039,2.5879,2.5732,2.5611,2.5545,2.5598,2.5772,2.5892,2.6092,2.6386,2.6279,2.6066,2.5785,2.5665,2.5611,2.5611,2.5732,2.5879,2.6039,2.6039,2.6039,2.6026,2.5852,2.5785,2.5758,2.5585,2.5438,2.5344,2.5344,2.5264,2.517,2.517,2.497,2.4676,2.4382,2.4088,2.3768,2.3287,2.314,2.31,2.2913,2.2928,2.2928,2.2928,2.3006,2.322,2.3527,2.3901,2.4249,2.4422,2.4556,2.4636,2.4636,2.4636,2.4636,2.4636,2.4636,2.4636,2.4636,2.4636,2.4636,2.4636,2.4636,2.4636,2.4636,2.4636,2.4636,2.4636,2.4476,2.4329,2.4209,2.4035,2.3674,2.3073,2.3046,2.2993,2.2928,2.2928,2.2928,2.2928,2.318,2.338,2.3514,2.3981,2.4262,0.8415,0.8601,0.8913,0.9673,1.0344,1.1151,1.242,1.2827,1.3024,1.3322,1.3689,1.4274,1.5248,1.7039,1.9,2.116,2.2843,2.4263,2.5325,2.5518,2.5518,2.5518,2.5518,2.5518,2.5518,2.5518,2.5518,2.5518,2.5491,2.5358,2.509,2.5304,2.5438,2.5478,2.5732,2.6012,2.6306,2.6052,2.5772,2.5464,2.5211,2.5064,2.505,2.5344,2.5491,2.5518,2.5518,2.5518,2.5504,2.5478,2.5478,2.5464,2.5438,2.5264,2.5037,2.501,2.4836,2.4596,2.4569,2.4382,2.4115,2.3821,2.3554,2.3273,2.2953,2.2928,2.2928,2.2928,2.2928,2.2928,2.2928,2.2928,2.2939,2.322,2.3714,2.4142,2.4195,2.4409,2.4609,2.4636,2.4636,2.4636,2.4636,2.4636,2.4636,2.4636,2.4636,2.4636,2.4636,2.4636,2.4636,2.4636,2.4636,2.4636,2.4636,2.4636,2.4529,2.4262,2.4249,2.3995,2.3434,2.3354,2.318,2.2941,2.2928,2.2873,2.2968,2.322,2.3514,2.3821,2.4102,2.4382,0.8674,0.879,0.9096,0.9964,1.0894,1.1762,1.2406,1.2671,1.2868,1.3159,1.3777,1.452,1.5499,1.7125,1.909,2.1511,2.2763,2.3947,2.5312,2.5518,2.5518,2.5518,2.5518,2.5518,2.5518,2.5518,2.5518,2.5518,2.5304,2.5144,2.5077,2.4917,2.493,2.517,2.5237,2.5411,2.5705,2.5638,2.5464,2.517,2.5104,2.4957,2.4743,2.5037,2.5291,2.5518,2.5518,2.5518,2.5491,2.5264,2.517,2.5157,2.4917,2.4783,2.4703,2.4476,2.4356,2.4262,2.4035,2.3915,2.3821,2.3514,2.338,2.3273,2.2953,2.2928,2.2928,2.2928,2.2928,2.2928,2.2928,2.2928,2.2886,2.2953,2.3247,2.3634,2.4102,2.4249,2.4369,2.4596,2.4636,2.4636,2.4636,2.4636,2.4636,2.4636,2.4636,2.4636,2.4636,2.4636,2.4636,2.4636,2.4636,2.4636,2.4636,2.4636,2.4609,2.4543,2.4543,2.4382,2.4022,2.3567,2.318,2.2941,2.2928,2.2979,2.322,2.3527,2.3821,2.4115,2.4409,2.4569,0.9116,0.9138,0.9401,1.0439,1.1274,1.1911,1.2223,1.2352,1.2494,1.2793,1.3403,1.4087,1.508,1.6379,1.8009,2.0288,2.1511,2.2715,2.4311,2.4639,2.4865,2.5015,2.509,2.509,2.509,2.509,2.509,2.509,2.4957,2.4863,2.4863,2.4716,2.477,2.5064,2.5077,2.5224,2.5504,2.5371,2.5224,2.5077,2.493,2.4783,2.4636,2.4796,2.4943,2.509,2.509,2.509,2.5077,2.493,2.4863,2.485,2.469,2.4556,2.4396,2.4102,2.3901,2.3741,2.3434,2.334,2.3313,2.3153,2.31,2.3073,2.2913,2.2928,2.2928,2.2928,2.2928,2.2928,2.2928,2.2928,2.2928,2.2928,2.31,2.3447,2.3901,2.4102,2.4289,2.4583,2.4636,2.4636,2.4636,2.4636,2.4636,2.4636,2.4636,2.4636,2.4636,2.4636,2.4636,2.4636,2.4636,2.4636,2.4636,2.4636,2.4636,2.4636,2.4636,2.4502,2.4209,2.3915,2.3607,2.337,2.33,2.338,2.3541,2.3834,2.4062,2.4209,2.4502,2.4636,0.9595,0.9639,0.9855,1.0954,1.1484,1.1837,1.1986,1.2115,1.2128,1.2372,1.2761,1.3326,1.4049,1.5017,1.6353,1.824,1.9639,2.1101,2.2831,2.3513,2.3957,2.4562,2.4636,2.4636,2.4636,2.4636,2.4636,2.4636,2.4636,2.4636,2.4636,2.4636,2.4756,2.4997,2.4997,2.5117,2.5358,2.513,2.4997,2.4997,2.4756,2.4636,2.4636,2.4636,2.4636,2.4636,2.4636,2.4636,2.4636,2.4636,2.4636,2.4636,2.4636,2.4489,2.4249,2.3955,2.3661,2.3354,2.3046,2.2913,2.2928,2.2928,2.2928,2.2928,2.2928,2.2928,2.2928,2.2928,2.2928,2.2928,2.2928,2.2928,2.2928,2.2928,2.306,2.334,2.3688,2.3995,2.4289,2.4583,2.4636,2.4636,2.4636,2.4636,2.4636,2.4636,2.4636,2.4636,2.4636,2.4636,2.4636,2.4636,2.4636,2.4636,2.4636,2.4636,2.4636,2.4636,2.4636,2.4529,2.4289,2.4275,2.4168,2.3928,2.3821,2.3794,2.3848,2.4088,2.4222,2.4289,2.4529,2.4636,1.0227,1.039,1.0636,1.1063,1.1409,1.1687,1.183,1.1965,1.2149,1.2115,1.221,1.234,1.2554,1.3315,1.4271,1.5604,1.7256,1.9208,2.1527,2.2509,2.3351,2.4488,2.4636,2.4636,2.4636,2.4636,2.4636,2.4636,2.4636,2.4636,2.4636,2.4636,2.4649,2.469,2.469,2.4716,2.4756,2.4716,2.469,2.469,2.4649,2.4636,2.4636,2.4636,2.4636,2.4636,2.4636,2.4636,2.4636,2.4636,2.4636,2.4636,2.4636,2.4609,2.4543,2.4249,2.3955,2.3674,2.3367,2.3086,2.2928,2.2928,2.2928,2.2928,2.2928,2.2928,2.2928,2.2928,2.2928,2.2928,2.2928,2.2928,2.2928,2.2928,2.2968,2.3086,2.3647,2.3995,2.4289,2.4583,2.4636,2.4636,2.4636,2.4636,2.4636,2.4636,2.4636,2.4636,2.4636,2.4636,2.4636,2.4636,2.4636,2.4636,2.4636,2.4636,2.4636,2.4636,2.4636,2.4549,2.4583,2.4583,2.4556,2.4516,2.4022,2.3888,2.4142,2.4182,2.4329,2.4583,2.4549,2.4636,1.0407,1.0558,1.0859,1.0898,1.1138,1.1382,1.1443,1.1579,1.1708,1.1796,1.1816,1.1884,1.2121,1.2752,1.3483,1.445,1.6112,1.8138,2.0628,2.1837,2.298,2.4414,2.4636,2.4636,2.4636,2.4636,2.4636,2.4636,2.4636,2.4636,2.4636,2.4636,2.4636,2.4636,2.4636,2.4636,2.4636,2.4476,2.4396,2.4396,2.4396,2.4476,2.4636,2.4636,2.4636,2.4636,2.4636,2.4636,2.4636,2.4636,2.4636,2.4636,2.4636,2.4636,2.4596,2.4315,2.4022,2.3728,2.3434,2.3126,2.2928,2.2928,2.2928,2.2928,2.2928,2.2928,2.2928,2.2928,2.2928,2.2928,2.2928,2.2928,2.2928,2.2928,2.2993,2.3247,2.3674,2.3875,2.4102,2.4556,2.4636,2.4636,2.4636,2.4636,2.4636,2.4636,2.4636,2.4636,2.4636,2.4636,2.4636,2.4636,2.4636,2.4636,2.4636,2.4636,2.4636,2.4636,2.4636,2.4636,2.4636,2.4636,2.4636,2.4636,2.4382,2.4315,2.4449,2.4449,2.4516,2.4636,2.4636,2.4636,1.0676,1.0723,1.1003,1.0728,1.085,1.109,1.1098,1.1172,1.1335,1.1525,1.1558,1.164,1.1898,1.2393,1.291,1.3551,1.5142,1.716,1.9575,2.1089,2.2595,2.4414,2.4636,2.4636,2.4636,2.4636,2.4636,2.4636,2.4569,2.4529,2.4529,2.4449,2.4422,2.4422,2.4422,2.4422,2.4422,2.4195,2.4102,2.4102,2.4168,2.4315,2.4529,2.4609,2.4636,2.4636,2.4636,2.4636,2.4636,2.4636,2.4636,2.4636,2.4636,2.4636,2.4609,2.4396,2.4088,2.3741,2.3514,2.3193,2.2928,2.2928,2.2928,2.2928,2.2928,2.2928,2.2928,2.2928,2.2928,2.2928,2.2928,2.2928,2.2928,2.2928,2.3046,2.334,2.3781,2.3941,2.4115,2.4556,2.4636,2.4636,2.4636,2.4636,2.4636,2.4636,2.4636,2.4636,2.4636,2.4636,2.4636,2.4636,2.4636,2.4636,2.4636,2.4636,2.4636,2.4636,2.4636,2.4636,2.4636,2.4636,2.4636,2.4636,2.4636,2.4636,2.4636,2.4636,2.4636,2.4636,2.4636,2.4636,1.1144,1.1062,1.1075,1.0681,1.0662,1.072,1.0743,1.086,1.105,1.1341,1.1402,1.145,1.1613,1.1877,1.2196,1.234,1.3938,1.5948,1.8345,2.0026,2.1936,2.4341,2.4636,2.4636,2.4636,2.4636,2.4636,2.4636,2.4382,2.4222,2.4222,2.3968,2.3808,2.3808,2.3808,2.3808,2.3808,2.3794,2.3794,2.3794,2.4075,2.4209,2.4235,2.4516,2.4636,2.4636,2.4636,2.4636,2.4636,2.4636,2.4636,2.4636,2.4636,2.4636,2.4636,2.4549,2.4262,2.3768,2.3754,2.3354,2.2928,2.2928,2.2928,2.2928,2.2928,2.2928,2.2928,2.2928,2.2928,2.2928,2.2928,2.2928,2.2928,2.2928,2.2941,2.3126,2.3995,2.4396,2.4596,2.4549,2.4636,2.4636,2.4636,2.4636,2.4636,2.4636,2.4636,2.4636,2.4636,2.4636,2.4636,2.4636,2.4636,2.4636,2.4636,2.4636,2.4636,2.4636,2.4636,2.4636,2.4636,2.4636,2.4636,2.4636,2.4636,2.4636,2.4636,2.4636,2.4636,2.4636,2.4636,2.4636,1.1616,1.1509,1.138,1.0571,1.0446,1.0439,1.0198,1.0405,1.0711,1.0921,1.1111,1.1294,1.1443,1.1714,1.1932,1.1986,1.3312,1.506,1.7121,1.8833,2.0681,2.3036,2.3556,2.3786,2.4075,2.4075,2.4075,2.4075,2.3981,2.3928,2.3928,2.3834,2.3768,2.3768,2.3768,2.3674,2.3487,2.3487,2.3487,2.3487,2.3594,2.3741,2.3928,2.4035,2.4182,2.4356,2.4356,2.4462,2.4636,2.4636,2.4636,2.4636,2.4636,2.4636,2.4636,2.4636,2.4262,2.3768,2.3768,2.3367,2.2928,2.2928,2.2928,2.2928,2.2928,2.2928,2.2928,2.2928,2.2928,2.2928,2.2928,2.2928,2.2928,2.2928,2.3236,2.3541,2.3861,2.4302,2.4636,2.4636,2.4636,2.4636,2.4636,2.4636,2.4636,2.4636,2.4636,2.4636,2.4636,2.4636,2.4636,2.4636,2.4636,2.4636,2.4636,2.4636,2.4636,2.4636,2.4636,2.4636,2.4636,2.4636,2.4636,2.4636,2.4636,2.4636,2.4636,2.4636,2.4636,2.4636,2.4636,2.4636,1.1928,1.1848,1.1652,1.0608,1.0465,1.049,1.0026,1.0375,1.0897,1.1099,1.134,1.1556,1.1622,1.1683,1.1798,1.1809,1.2794,1.4211,1.6012,1.7643,1.9464,2.1785,2.2527,2.3112,2.3768,2.3768,2.3768,2.3768,2.3674,2.3621,2.3621,2.3527,2.346,2.346,2.346,2.3367,2.318,2.3166,2.3166,2.318,2.3273,2.3434,2.3621,2.3728,2.3875,2.4062,2.4155,2.4369,2.4636,2.4636,2.4636,2.4636,2.4636,2.4636,2.4636,2.4636,2.4329,2.3901,2.3808,2.3434,2.3006,2.2899,2.2928,2.2928,2.2928,2.2928,2.2928,2.2928,2.2928,2.2928,2.2928,2.2928,2.2928,2.2928,2.3247,2.3647,2.3754,2.4222,2.4636,2.4636,2.4636,2.4636,2.4636,2.4636,2.4636,2.4636,2.4636,2.4636,2.4636,2.4636,2.4636,2.4636,2.4636,2.4636,2.4636,2.4636,2.4636,2.4636,2.4636,2.4636,2.4636,2.4636,2.4636,2.4636,2.4636,2.4636,2.4636,2.4636,2.4636,2.4636,2.4636,2.4636,0.0,0.0,0.0,1.0882,1.0849,1.0923,1.0347,1.0835,1.1546,1.2025,1.2161,1.2242,1.224,1.1964,1.1706,1.1728,1.2539,1.3548,1.4874,1.6452,1.8352,2.0587,2.1617,2.2502,2.367,2.3741,2.3741,2.3741,2.3474,2.3313,2.3313,2.3033,2.2928,2.2928,2.2928,2.2928,2.2928,2.2928,2.2928,2.2928,2.3166,2.3313,2.3327,2.3607,2.3754,2.3768,2.4062,2.4342,2.4623,2.4636,2.4636,2.4636,2.4636,2.4636,2.4636,2.4636,2.4449,2.4155,2.3875,2.3581,2.3273,2.2966,2.2928,2.2928,2.2928,2.2928,2.2928,2.2928,2.2928,2.2928,2.2928,2.2928,2.2928,2.2928,2.31,2.3407,2.3714,2.4222,2.4623,2.4636,2.4636,2.4636,2.4636,2.4636,2.4636,2.4636,2.4636,2.4636,2.4636,2.4636,2.4636,2.4636,2.4636,2.4636,2.4636,2.4636,2.4636,2.4636,2.4636,2.4636,2.4636,2.4636,2.4636,2.4636,2.4636,2.4636,2.4636,2.4636,2.4636,2.4636,2.4636,2.4636,1.2517,0.0,0.0,0.0,0.0,0.0,1.09,1.1377,1.2055,1.2922,1.2991,1.2835,1.2627,1.2165,1.1681,1.1125,1.1929,1.309,1.4265,1.6155,1.8099,2.0075,2.1221,2.221,2.3044,2.3182,2.3182,2.3182,2.3033,2.2993,2.2993,2.2913,2.2928,2.2928,2.2928,2.2928,2.2928,2.2928,2.2928,2.2928,2.2953,2.2993,2.2993,2.3073,2.3233,2.3447,2.3541,2.3861,2.4342,2.4556,2.4636,2.4636,2.4636,2.4636,2.4636,2.4636,2.4449,2.4155,2.3875,2.3581,2.3273,2.2966,2.2928,2.2928,2.2928,2.2928,2.2928,2.2928,2.2928,2.2928,2.2928,2.2928,2.2928,2.2928,2.31,2.3407,2.3714,2.4062,2.4382,2.4596,2.4636,2.4636,2.4636,2.4636,2.4636,2.4636,2.4636,2.4636,2.4636,2.4636,2.4636,2.4636,2.4636,2.4636,2.4636,2.4636,2.4636,2.4636,2.4636,2.4636,2.4636,2.4636,2.4636,2.4636,2.4636,2.4636,2.4636,2.4636,2.4636,2.4636,2.4636,2.4636,1.2893,1.2792,1.25,1.2002,0.0,0.0,1.1313,1.1799,1.2546,1.3369,1.3456,1.3326,1.2964,1.2532,1.1892,1.1121,1.2065,1.3265,1.405,1.5808,1.784,1.9866,2.0988,2.1897,2.2791,2.2928,2.2928,2.2928,2.2928,2.2928,2.2928,2.2928,2.2928,2.2928,2.2928,2.2928,2.2928,2.2928,2.2928,2.2928,2.2928,2.2928,2.2928,2.2928,2.2966,2.314,2.3273,2.3527,2.3875,2.4289,2.4529,2.4636,2.4636,2.4636,2.4636,2.4636,2.4529,2.4342,2.4048,2.3834,2.3647,2.334,2.3316,2.3316,2.3316,2.3153,2.306,2.306,2.306,2.3033,2.2968,2.2953,2.302,2.2968,2.3006,2.3247,2.3674,2.3901,2.4142,2.4556,2.4636,2.4636,2.4636,2.4636,2.4636,2.4636,2.4636,2.4636,2.4636,2.4636,2.4636,2.4636,2.4743,2.477,2.4649,2.4756,2.477,2.4649,2.4636,2.4636,2.4636,2.4636,2.4636,2.4636,2.4636,2.4636,2.4636,2.4636,2.4636,2.4636,2.4636,2.4636,1.3347,1.3332,1.3179,1.2584,1.2535,0.0,1.1762,1.2245,1.2995,1.3648,1.3759,1.3685,1.3384,1.2964,1.2418,1.1545,1.2682,1.3834,1.4241,1.5816,1.7656,1.983,2.0764,2.1683,2.2737,2.2819,2.2887,2.2928,2.2901,2.2832,2.2928,2.2832,2.2832,2.2928,2.2928,2.2928,2.2928,2.2928,2.2928,2.2928,2.2928,2.2928,2.2928,2.2928,2.2928,2.2873,2.3153,2.33,2.3367,2.3928,2.4329,2.4596,2.4623,2.4636,2.4636,2.4636,2.4636,2.4596,2.4302,2.4209,2.4155,2.3861,2.3768,2.3768,2.3768,2.3581,2.338,2.338,2.338,2.3313,2.3033,2.314,2.326,2.302,2.2939,2.3086,2.3688,2.3821,2.3981,2.4529,2.4636,2.4636,2.4636,2.4636,2.4636,2.4636,2.4636,2.4636,2.4636,2.4636,2.4636,2.4636,2.4877,2.493,2.4663,2.4877,2.4917,2.4649,2.4636,2.4636,2.4636,2.4636,2.4636,2.4636,2.4636,2.4636,2.4636,2.4636,2.4636,2.4636,2.4636,2.4636,1.4202,1.3919,1.3558,1.3701,1.3252,0.0,1.2842,1.2982,1.3432,1.4495,1.4497,1.4314,1.4104,1.3689,1.3096,1.218,1.3354,1.456,1.4897,1.6678,1.8551,2.0099,2.0939,2.1644,2.2418,2.2498,2.2605,2.2914,2.2645,2.2605,2.2914,2.2632,2.2619,2.2928,2.2928,2.2928,2.2928,2.2928,2.2928,2.2928,2.2928,2.2928,2.2928,2.2928,2.2928,2.2928,2.2926,2.31,2.3354,2.3714,2.4022,2.4315,2.4543,2.4636,2.4636,2.4636,2.4636,2.4596,2.4302,2.4209,2.4155,2.3861,2.3768,2.3768,2.3768,2.3728,2.3688,2.3688,2.3688,2.3674,2.3607,2.346,2.3367,2.3554,2.3407,2.3394,2.3995,2.4115,2.4222,2.4569,2.4636,2.4636,2.4636,2.4636,2.4636,2.4636,2.4636,2.4636,2.4636,2.4636,2.4636,2.4636,2.469,2.4703,2.4636,2.469,2.4703,2.4562,2.4636,2.4636,2.4636,2.4636,2.4636,2.4636,2.4636,2.4636,2.4636,2.4636,2.4636,2.4636,2.4636,2.4636,1.4696,1.4416,1.4039,1.4082,1.3641,0.0,0.0,1.3213,1.356,1.4188,1.4291,1.4259,1.4088,1.3803,1.343,1.2683,1.3834,1.5022,1.5638,1.7529,1.9398,2.0989,2.145,2.1899,2.2324,2.2418,2.2485,2.2632,2.2498,2.2485,2.2632,2.2498,2.2552,2.2914,2.2928,2.2928,2.2928,2.2928,2.2928,2.2928,2.2928,2.2928,2.2928,2.2928,2.2928,2.2928,2.2928,2.2953,2.3126,2.3581,2.3861,2.4035,2.4462,2.4636,2.4636,2.4636,2.4636,2.4609,2.4476,2.4422,2.4396,2.4249,2.4209,2.4209,2.4209,2.4102,2.3955,2.3808,2.3875,2.3955,2.3808,2.3768,2.3768,2.3768,2.3661,2.3674,2.4115,2.4209,2.4289,2.4583,2.4636,2.4636,2.4636,2.4636,2.4636,2.4636,2.4636,2.4636,2.4636,2.4636,2.4636,2.4636,2.477,2.4796,2.4649,2.477,2.4796,2.4649,2.4636,2.4636,2.4636,2.4636,2.4636,2.4636,2.4636,2.4636,2.4636,2.4636,2.4636,2.4636,2.4636,2.4636,1.5124,1.491,1.4616,1.4322,1.3988,1.3587,0.0,0.0,0.0,1.3586,1.3805,1.3952,1.3869,1.3791,1.3664,1.3193,1.4196,1.5269,1.607,1.776,1.9559,2.1312,2.1537,2.1683,2.1964,2.2044,2.2111,2.2164,2.2111,2.2138,2.2245,2.2298,2.2472,2.2766,2.2901,2.2928,2.2928,2.2928,2.2928,2.2928,2.2928,2.2928,2.2928,2.2928,2.2928,2.2928,2.2928,2.2928,2.2981,2.3514,2.3768,2.3834,2.4409,2.4636,2.4636,2.4636,2.4636,2.4636,2.4636,2.4636,2.4636,2.4636,2.4636,2.4636,2.4636,2.4476,2.4235,2.3995,2.4102,2.4235,2.3995,2.4075,2.4155,2.3981,2.3888,2.3928,2.4222,2.4289,2.4356,2.4596,2.4636,2.4636,2.4636,2.4636,2.4636,2.4636,2.4636,2.4636,2.4636,2.4636,2.4636,2.4636,2.485,2.4903,2.4589,2.4863,2.489,2.4649,2.4636,2.4636,2.4636,2.4636,2.4636,2.4636,2.4636,2.4636,2.4636,2.4636,2.4636,2.4636,2.4636,2.4636,1.5725,1.5524,1.5231,1.4981,1.4442,1.3948,1.3573,0.0,1.3293,1.3547,0.0,1.3745,1.4008,0.0,0.0,1.3972,1.4528,1.518,1.5808,1.65,1.7702,1.9466,1.9893,2.016,2.0393,2.0722,2.0975,2.1243,2.1015,2.1109,2.1695,2.1897,2.2164,2.2458,2.2726,2.2928,2.2928,2.2928,2.2928,2.2928,2.2928,2.2928,2.2928,2.2928,2.2928,2.2928,2.2928,2.2928,2.2981,2.3514,2.3768,2.3834,2.4409,2.4636,2.4636,2.4636,2.4636,2.4636,2.4636,2.4636,2.4636,2.4636,2.4636,2.4636,2.4636,2.4609,2.4583,2.4543,2.4556,2.4583,2.4543,2.4369,2.4262,2.4489,2.4342,2.4235,2.4529,2.4583,2.4596,2.4549,2.4636,2.4636,2.4636,2.4636,2.4636,2.4636,2.4636,2.4636,2.4636,2.4636,2.4636,2.4636,2.4663,2.4676,2.4562,2.4663,2.4676,2.4562,2.4636,2.4636,2.4636,2.4636,2.4636,2.4636,2.4636,2.4636,2.4636,2.4636,2.4636,2.4636,2.4636,2.4636,1.6126,1.5872,1.5538,1.5129,1.4643,1.4215,1.3706,1.364,1.3707,1.3613,0.0,0.0,0.0,0.0,0.0,0.0,1.4429,1.479,1.4985,1.5578,1.654,1.8143,1.8597,1.8958,1.9426,1.9746,1.9973,2.0094,2.0134,2.0428,2.1078,2.1547,2.1951,2.2405,2.2539,2.2686,2.2928,2.2928,2.2928,2.2928,2.2928,2.2928,2.2928,2.2928,2.2928,2.2928,2.2928,2.2928,2.2968,2.334,2.3514,2.3567,2.4155,2.4489,2.4636,2.4636,2.4636,2.4636,2.4636,2.4636,2.4636,2.4636,2.4636,2.4636,2.4636,2.4636,2.4636,2.4636,2.4636,2.4636,2.4636,2.4543,2.4489,2.4609,2.4543,2.4489,2.4609,2.4636,2.4636,2.4636,2.4636,2.4636,2.4636,2.4636,2.4636,2.4636,2.4636,2.4636,2.4636,2.4636,2.4636,2.4636,2.4636,2.4636,2.4636,2.4636,2.4636,2.4636,2.4636,2.4636,2.4636,2.4636,2.4636,2.4636,2.4636,2.4636,2.4636,2.4636,2.4636,2.4636,2.4636,2.4636,1.6616,1.6233,1.5805,1.5231,1.4856,1.4482,1.3853,1.3935,1.4055,1.3866,1.4186,0.0,0.0,0.0,1.4429,1.4135,0.0,1.4239,1.4239,1.4576,1.5337,1.6807,1.7328,1.7796,1.8384,1.8557,1.8704,1.8865,1.9145,1.9573,2.016,2.0989,2.163,2.2044,2.2298,2.2525,2.2739,2.2819,2.2928,2.2928,2.2928,2.2928,2.2928,2.2928,2.2928,2.2928,2.2928,2.2928,2.2886,2.3193,2.3327,2.338,2.3968,2.4329,2.4529,2.4609,2.4636,2.4636,2.4636,2.4636,2.4636,2.4636,2.4636,2.4636,2.4636,2.4636,2.4636,2.4636,2.4636,2.4636,2.4636,2.4636,2.4636,2.4636,2.4636,2.4636,2.4636,2.4636,2.4636,2.4636,2.4636,2.4636,2.4636,2.4636,2.4636,2.4636,2.4636,2.4636,2.4636,2.4636,2.4636,2.4636,2.4636,2.4636,2.4636,2.4636,2.4636,2.4636,2.4636,2.4636,2.4636,2.4636,2.4636,2.4636,2.4636,2.4636,2.4636,2.4636,2.4636,2.4636,2.4636,2.4636,1.7179,1.675,1.6126,1.5524,1.5164,1.4834,1.4202,1.4082,1.4162,1.4442,1.4509,1.4603,1.4941,1.471,1.4429,1.4135,1.3813,0.0,0.0,1.34,1.3828,1.5297,1.5979,1.6616,1.7206,1.6954,1.7021,1.7595,1.7903,1.8343,1.8945,2.0347,2.1136,2.1149,2.1977,2.2418,2.2432,2.2712,2.2928,2.2928,2.2928,2.2928,2.2928,2.2928,2.2928,2.2928,2.2928,2.2928,2.2886,2.3193,2.3327,2.338,2.3968,2.4209,2.4249,2.4529,2.4636,2.4636,2.4636,2.4636,2.4636,2.4636,2.4636,2.4636,2.4636,2.4636,2.4636,2.4636,2.4636,2.4636,2.4636,2.4636,2.4636,2.4636,2.4636,2.4636,2.4636,2.4636,2.4636,2.4636,2.4636,2.4636,2.4636,2.4636,2.4636,2.4636,2.4636,2.4636,2.4636,2.4636,2.4636,2.4636,2.4636,2.4636,2.4636,2.4636,2.4636,2.4636,2.4636,2.4636,2.4636,2.4636,2.4636,2.4636,2.4636,2.4636,2.4636,2.4636,2.4636,2.4636,2.4636,2.4636,1.7246,1.7058,1.671,1.5885,1.5605,1.5391,1.4803,1.4713,1.475,1.5044,1.5257,1.5471,1.5826,1.5591,1.5118,1.4482,1.4122,1.3734,0.0,1.2998,1.324,1.4135,1.4923,1.5611,1.5952,1.6072,1.6286,1.6687,1.6981,1.7582,1.8584,1.9653,2.0508,2.1096,2.1777,2.2218,2.2418,2.2712,2.2928,2.2928,2.2928,2.2928,2.2928,2.2928,2.2928,2.2928,2.2928,2.2928,2.2941,2.2979,2.302,2.3073,2.3688,2.3915,2.3981,2.4462,2.4636,2.4636,2.4636,2.4636,2.4636,2.4636,2.4636,2.4636,2.4636,2.4636,2.4636,2.4636,2.4636,2.4636,2.4636,2.4636,2.4636,2.4636,2.4636,2.4636,2.4636,2.4636,2.4636,2.4636,2.4636,2.4636,2.4636,2.4636,2.4636,2.4636,2.4636,2.4636,2.4636,2.4636,2.4636,2.4636,2.4636,2.4636,2.4636,2.4636,2.4636,2.4636,2.4636,2.4636,2.4636,2.4636,2.4636,2.4636,2.4636,2.4636,2.4636,2.4636,2.4636,2.4636,2.4636,2.4636,1.7515,1.7367,1.7058,1.6446,1.6139,1.5858,1.5378,1.5271,1.5324,1.5511,1.5778,1.6072,1.6366,1.6099,1.5531,1.4803,1.4255,1.3614,0.0,1.2811,1.3052,1.3293,1.4015,1.4656,1.5044,1.5351,1.5605,1.5839,1.6166,1.682,1.7809,1.8891,1.984,2.0615,2.151,2.2071,2.2258,2.2659,2.2928,2.2928,2.2928,2.2928,2.2928,2.2928,2.2928,2.2928,2.2928,2.2928,2.2928,2.2928,2.2926,2.3073,2.3581,2.3834,2.3981,2.4462,2.4636,2.4636,2.4636,2.4636,2.4636,2.4636,2.4636,2.4636,2.4636,2.4636,2.4636,2.4636,2.4636,2.4636,2.4636,2.4636,2.4636,2.4636,2.4636,2.4636,2.4636,2.4636,2.4636,2.4636,2.4636,2.4636,2.4636,2.4636,2.4636,2.4636,2.4636,2.4636,2.4636,2.4636,2.4636,2.4636,2.4636,2.4636,2.4636,2.4636,2.4636,2.4636,2.4636,2.4636,2.4636,2.4636,2.4636,2.4636,2.4636,2.4636,2.4636,2.4636,2.4636,2.4636,2.4636,2.4636]}]]